ECMWFNIL_sfc_gust_000.txt.gz
Wind_Gust
0 0 0 0 0 0 0 0 0 0 0 0 0 0 0 0 0 0 0 0 0 0 0 0 0 0 0 0 0 0 0 0 0 0 0 0 0 0 0 0 0 0
0 0 0 0 0 0 0 0 0 0 0 0 0 0 0 0 0 0 0 0 0 0 0 0 0 0 0 0 0 0 0 0 0 0 0 0 0 0 0 0 0 0
0 0 0 0 0 0 0 0 0 0 0 0 0 0 0 0 0 0 0 0 0 0 0 0 0 0 0 0 0 0 0 0 0 0 0 0 0 0 0 0 0 0
0 0 0 0 0 0 0 0 0 0 0 0 0 0 0 0 0 0 0 0 0 0 0 0 0 0 0 0 0 0 0 0 0 0 0 0 0 0 0 0 0 0
0 0 0 0 0 0 0 0 0 0 0 0 0 0 0 0 0 0 0 0 0 0 0 0 0 0 0 0 0 0 0 0 0 0 0 0 0 0 0 0 0 0
0 0 0 0 0 0 0 0 0 0 0 0 0 0 0 0 0 0 0 0 0 0 0 0 0 0 0 0 0 0 0 0 0 0 0 0 0 0 0 0 0 0
0 0 0 0 0 0 0 0 0 0 0 0 0 0 0 0 0 0 0 0 0 0 0 0 0 0 0 0 0 0 0 0 0 0 0 0 0 0 0 0 0 0
0 0 0 0 0 0 0 0 0 0 0 0 0 0 0 0 0 0 0 0 0 0 0 0 0 0 0 0 0 0 0 0 0 0 0 0 0 0 0 0 0 0
0 0 0 0 0 0 0 0 0 0 0 0 0 0 0 0 0 0 0 0 0 0 0 0 0 0 0 0 0 0 0 0 0 0 0 0 0 0 0 0 0 0
0 0 0 0 0 0 0 0 0 0 0 0 0 0 0 0 0 0 0 0 0 0 0 0 0 0 0 0 0 0 0 0 0 0 0 0 0 0 0 0 0 0
0 0 0 0 0 0 0 0 0 0 0 0 0 0 0 0 0 0 0 0 0 0 0 0 0 0 0 0 0 0 0 0 0 0 0 0 0 0 0 0 0 0
0 0 0 0 0 0 0 0 0 0 0 0 0 0 0 0 0 0 0 0 0 0 0 0 0 0 0 0 0 0 0 0 0 0 0 0 0 0 0 0 0 0
0 0 0 0 0 0 0 0 0 0 0 0 0 0 0 0 0 0 0 0 0 0 0 0 0 0 0 0 0 0 0 0 0 0 0 0 0 0 0 0 0 0
0 0 0 0 0 0 0 0 0 0 0 0 0 0 0 0 0 0 0 0 0 0 0 0 0 0 0 0 0 0 0 0 0 0 0 0 0 0 0 0 0 0
0 0 0 0 0 0 0 0 0 0 0 0 0 0 0 0 0 0 0 0 0 0 0 0 0 0 0 0 0 0 0 0 0 0 0 0 0 0 0 0 0 0
0 0 0 0 0 0 0 0 0 0 0 0 0 0 0 0 0 0 0 0 0 0 0 0 0 0 0 0 0 0 0 0 0 0 0 0 0 0 0 0 0 0
0 0 0 0 0 0 0 0 0 0 0 0 0 0 0 0 0 0 0 0 0 0 0 0 0 0 0 0 0 0 0 0 0 0 0 0 0 0 0 0 0 0
0 0 0 0 0 0 0 0 0 0 0 0 0 0 0 0 0 0 0 0 0 0 0 0 0 0 0 0 0 0 0 0 0 0 0 0 0 0 0 0 0 0
0 0 0 0 0 0 0 0 0 0 0 0 0 0 0 0 0 0 0 0 0 0 0 0 0 0 0 0 0 0 0 0 0 0 0 0 0 0 0 0 0 0
0 0 0 0 0 0 0 0 0 0 0 0 0 0 0 0 0 0 0 0 0 0 0 0 0 0 0 0 0 0 0 0 0 0 0 0 0 0 0 0 0 0
0 0 0 0 0 0 0 0 0 0 0 0 0 0 0 0 0 0 0 0 0 0 0 0 0 0 0 0 0 0 0 0 0 0 0 0 0 0 0 0 0 0
0 0 0 0 0 0 0 0 0 0 0 0 0 0 0 0 0 0 0 0 0 0 0 0 0 0 0 0 0 0 0 0 0 0 0 0 0 0 0 0 0 0
0 0 0 0 0 0 0 0 0 0 0 0 0 0 0 0 0 0 0 0 0 0 0 0 0 0 0 0 0 0 0 0 0 0 0 0 0 0 0 0 0 0
0 0 0 0 0 0 0 0 0 0 0 0 0 0 0 0 0 0 0 0 0 0 0 0 0 0 0 0 0 0 0 0 0 0 0 0 0 0 0 0 0 0
0 0 0 0 0 0 0 0 0 0 0 0 0 0 0 0 0 0 0 0 0 0 0 0 0 0 0 0 0 0 0 0 0 0 0 0 0 0 0 0 0 0
0 0 0 0 0 0 0 0 0 0 0 0 0 0 0 0 0 0 0 0 0 0 0 0 0 0 0 0 0 0 0 0 0 0 0 0 0 0 0 0 0 0

ECMWFNIL_sfc_gust_006.txt.gz
Wind_Gust
10 9 10 10 11 11 12 13 13 14 15 15 16 16 18 19 19 19 20 22 21 23 23 23 23 23 24 23 22 24 25 23 25 23 29 32 33 34 35 31 28 29
11 11 10 10 11 11 12 13 15 16 17 16 16 16 17 18 19 20 20 21 22 23 23 23 23 24 24 25 23 25 25 25 25 24 24 27 30 32 36 35 32 31
12 11 11 11 12 12 13 14 15 17 17 17 17 18 18 17 20 20 21 21 22 22 22 23 24 24 25 25 25 25 27 25 27 25 25 26 27 29 30 35 35 34
13 12 12 12 12 13 14 15 15 17 17 18 17 17 18 18 20 21 22 21 23 24 23 23 24 24 25 26 26 28 27 28 28 26 27 26 27 28 31 30 35 36
13 13 13 12 12 13 14 15 17 18 18 20 20 20 21 20 21 22 23 23 23 23 23 24 24 26 25 26 26 28 27 29 29 29 30 28 27 28 29 33 36 40
12 13 13 13 13 14 15 16 18 19 20 20 22 22 21 22 23 23 24 24 24 24 23 24 24 25 26 26 28 28 29 29 29 30 32 32 30 29 30 31 34 37
12 12 12 14 14 14 16 17 18 20 21 22 23 24 24 24 24 24 25 25 26 26 26 27 26 26 26 26 27 28 31 29 29 31 33 35 33 32 30 30 33 34
12 12 13 14 14 15 17 18 20 21 21 21 22 24 24 26 27 25 24 25 25 27 27 28 28 29 27 27 28 28 30 31 30 31 32 35 34 34 33 32 29 33
12 12 13 14 15 16 17 20 21 21 21 23 24 25 25 26 27 26 27 27 27 28 28 28 29 30 30 29 29 29 30 30 31 31 32 33 34 36 37 34 32 32
12 13 13 15 16 17 18 19 22 22 23 24 25 25 27 26 27 28 28 28 28 29 29 29 30 30 31 31 31 30 31 31 31 33 33 33 35 35 37 38 34 33
12 13 14 15 16 17 19 22 23 24 24 25 25 26 26 27 28 28 29 29 31 30 30 31 31 31 32 33 32 31 31 32 32 32 33 34 34 35 29 36 37 35
13 13 14 16 17 18 20 21 23 24 25 25 25 26 28 28 29 30 30 30 31 31 31 31 32 33 34 34 34 33 33 32 33 32 33 35 35 34 36 35 34 37
13 14 15 16 17 19 21 23 24 24 26 27 26 26 29 30 30 30 30 31 32 32 32 33 33 34 35 34 34 34 34 33 33 33 33 34 35 37 36 36 36 37
13 14 15 16 18 21 22 23 24 25 26 27 27 29 31 31 32 31 31 31 33 33 34 34 34 34 35 35 36 36 35 35 34 33 34 35 34 36 36 36 36 35
13 14 15 18 20 22 22 23 25 26 27 28 28 29 30 30 30 31 32 33 34 34 35 34 35 36 36 36 36 36 36 36 36 35 35 34 37 38 38 39 37 36
14 15 17 18 21 22 23 25 27 28 28 28 29 30 30 30 30 31 32 34 35 36 35 36 37 37 31 26 25 34 34 36 34 34 34 34 35 38 39 40 40 36
15 15 17 20 21 23 24 27 28 29 29 29 29 29 30 31 32 33 34 34 35 35 36 37 38 37 26 23 25 27 32 33 32 33 32 35 35 37 40 39 37 37
14 16 19 21 22 24 26 27 28 29 29 29 30 30 30 30 31 33 34 35 36 36 37 38 38 27 26 25 25 25 24 36 36 34 32 33 34 36 38 37 36 37
15 17 20 22 22 24 26 27 29 29 29 29 30 30 29 31 32 33 34 35 37 38 39 39 39 28 27 27 26 25 25 28 37 37 37 35 32 34 36 38 35 34
16 19 21 21 22 25 26 28 28 29 29 30 31 31 31 32 32 33 34 36 38 38 39 40 41 30 28 28 27 27 27 26 36 39 38 38 37 35 34 36 37 35
17 19 20 20 23 25 27 28 29 30 30 31 32 31 32 33 33 33 34 35 36 38 39 40 43 28 28 28 27 27 28 27 36 39 39 39 39 36 35 35 35 37
16 18 20 22 24 26 27 29 30 30 31 31 31 32 32 33 33 34 36 36 36 38 39 41 41 29 28 27 28 27 28 30 36 39 39 39 40 37 37 37 36 37
16 19 21 23 24 27 29 30 31 32 30 30 31 32 32 33 34 35 35 36 37 38 40 42 42 34 29 29 29 29 26 33 37 38 38 39 39 37 38 39 37 35
16 19 22 23 24 27 30 30 29 30 31 30 32 32 33 33 34 35 35 35 36 38 39 38 38 33 29 29 30 31 28 36 37 37 36 39 38 37 38 37 37 30
17 20 21 23 25 27 26 27 29 31 32 31 31 31 33 33 33 34 34 34 34 34 31 41 40 36 31 31 32 31 32 35 38 35 35 37 36 35 37 39 37 30
17 19 21 23 26 26 26 26 30 33 32 32 32 32 33 32 32 34 35 34 31 32 34 35 39 39 37 31 31 29 30 35 35 36 35 36 34 35 37 36 38 36

ECMWFNIL_sfc_gust_009.txt.gz
Wind_Gust
15 13 13 12 12 10 10 11 10 11 12 13 14 14 14 13 13 13 15 16 16 18 18 20 21 22 23 24 25 24 24 25 25 23 23 23 23 29 30 27 29 32
15 14 13 12 12 11 11 10 11 12 13 13 14 15 14 14 14 15 16 17 18 18 19 20 22 23 23 24 24 26 26 23 25 24 23 23 24 26 30 30 33 31
15 14 13 12 11 10 11 11 12 13 14 14 13 15 16 15 17 16 17 17 19 19 19 19 20 22 23 24 25 26 27 26 26 25 27 26 25 26 26 29 29 28
16 15 14 13 12 12 12 13 13 14 14 15 15 15 15 16 17 18 18 18 20 21 21 20 21 22 23 25 24 26 26 28 28 26 27 26 26 26 26 25 26 29
17 16 15 14 13 13 13 14 14 14 14 15 15 16 19 18 19 20 20 20 19 21 21 22 21 22 22 24 25 26 26 29 28 28 29 27 27 27 26 25 26 28
17 17 16 15 14 14 15 15 15 15 16 16 17 18 19 19 20 21 22 21 21 22 22 23 23 23 23 24 26 26 26 27 28 28 29 30 29 28 27 27 27 28
17 16 15 15 14 15 15 16 16 16 17 17 17 18 18 20 22 22 23 23 23 23 23 23 24 25 24 24 24 25 27 26 28 30 30 30 30 31 30 27 29 29
17 15 16 15 15 15 16 17 17 17 17 18 18 19 19 21 23 23 23 24 24 25 24 25 26 26 25 25 26 26 26 26 26 29 30 31 29 31 32 33 28 30
17 16 16 15 15 15 16 18 18 17 18 20 21 21 20 21 22 23 24 25 26 26 26 26 26 27 26 27 28 28 28 26 27 28 29 30 31 31 33 33 32 31
17 16 15 15 15 16 16 17 18 18 18 20 21 21 22 21 22 24 26 26 28 29 29 28 29 28 28 29 29 29 30 29 28 29 30 30 32 33 32 33 33 34
16 16 15 16 16 16 16 17 17 19 19 20 21 22 21 23 24 24 26 28 30 29 30 30 29 30 30 31 30 29 29 30 29 29 30 32 32 32 27 32 33 35
16 15 15 15 15 16 16 17 18 19 20 20 21 23 24 25 25 27 28 29 29 30 31 31 31 31 31 31 32 31 31 30 30 29 30 32 32 33 33 34 33 33
17 15 15 14 14 16 16 17 19 19 20 22 22 24 25 26 27 28 28 29 30 31 32 32 32 32 32 32 32 32 32 33 32 32 31 31 32 34 33 35 35 34
14 13 13 15 15 16 17 18 19 20 21 21 23 26 27 27 28 28 28 29 31 31 32 32 32 32 32 33 33 32 33 32 34 33 33 32 31 34 34 35 37 37
14 13 14 15 17 18 18 18 19 19 21 23 24 26 27 28 27 28 29 30 30 31 32 32 33 34 33 32 32 33 33 33 33 34 35 34 32 33 35 36 35 37
15 14 16 16 17 17 18 18 19 20 22 24 26 27 28 28 28 28 29 31 32 32 32 33 34 35 27 22 20 30 30 32 31 33 33 35 35 35 34 35 36 35
15 15 16 16 16 17 17 19 20 20 22 24 25 26 28 29 29 30 30 31 32 32 33 34 35 34 23 21 19 19 25 34 35 32 30 32 34 36 36 35 35 35
16 16 16 16 16 18 19 19 19 21 23 24 26 27 28 28 30 30 31 31 32 33 33 35 35 24 23 23 21 20 16 28 36 39 36 35 33 33 33 33 34 35
15 16 17 17 17 17 18 18 20 22 23 24 26 26 27 29 30 31 32 32 33 34 35 36 36 24 22 23 23 23 22 21 30 37 39 38 36 35 34 33 32 33
15 16 17 17 16 16 18 20 20 22 22 23 26 27 28 29 30 31 31 32 33 34 36 37 37 27 23 22 20 22 22 22 28 34 37 40 40 39 35 35 34 33
16 17 17 17 16 18 19 20 20 22 23 25 26 27 29 30 30 30 31 31 33 33 35 36 38 24 21 21 21 21 19 19 29 35 39 41 42 40 40 39 36 37
16 16 17 17 18 19 20 20 21 22 24 25 26 28 30 30 31 32 32 34 34 35 36 38 39 26 24 23 25 24 24 28 34 37 42 42 43 41 39 39 39 39
16 17 17 18 19 20 20 20 21 21 24 27 29 30 30 31 32 32 33 35 35 36 37 40 39 30 25 24 24 26 25 33 37 39 39 40 42 39 41 40 38 39
16 17 18 18 19 21 21 20 22 23 22 24 28 31 33 32 32 34 34 34 35 36 37 38 38 32 26 26 26 25 24 32 36 38 38 39 38 37 38 38 38 34
17 17 18 19 20 20 20 21 23 24 22 24 29 30 33 32 32 34 34 34 34 36 29 38 40 36 30 29 29 30 31 32 37 38 38 37 36 36 35 37 37 33
16 17 17 19 20 21 21 22 22 23 22 25 29 32 33 32 33 34 35 36 36 36 37 35 37 37 34 27 26 27 30 33 34 36 37 37 36 37 35 35 36 37

ECMWFNIL_sfc_gust_012.txt.gz
Wind_Gust
13 12 12 11 11 9 8 8 6 6 6 6 7 8 8 7 7 7 9 10 11 11 12 12 13 13 15 14 14 17 18 16 17 15 16 15 15 14 16 15 17 20
13 12 11 11 11 9 7 7 7 7 7 7 8 8 8 9 8 9 10 11 13 14 14 14 14 15 15 18 15 15 17 16 18 18 15 16 17 16 15 14 16 18
14 13 12 12 10 9 9 8 7 7 8 9 8 8 10 9 10 10 12 12 14 14 13 13 14 15 16 17 17 18 19 17 19 19 18 17 16 16 15 15 15 17
15 14 13 12 10 9 10 9 9 9 9 10 10 10 11 10 10 11 12 13 14 15 15 15 16 17 17 17 16 19 19 21 20 18 19 17 17 17 16 15 15 16
16 15 14 13 11 10 10 10 11 11 11 10 9 9 11 11 12 14 14 14 14 16 15 16 16 16 15 17 17 17 18 21 19 17 19 19 19 18 16 16 16 17
16 17 16 15 13 12 12 12 12 12 12 11 11 12 12 13 14 15 15 15 15 16 17 17 17 17 17 16 16 16 17 20 21 19 22 21 22 21 20 17 16 18
17 16 15 15 13 13 13 12 12 12 11 11 11 12 13 14 15 16 17 16 17 18 18 18 17 16 15 15 16 17 18 19 21 24 24 22 20 21 21 21 20 20
17 15 15 14 13 13 13 13 12 12 11 12 13 14 14 16 17 16 16 18 18 19 19 19 20 20 18 16 19 18 18 17 17 22 22 23 19 24 22 21 19 20
16 16 15 14 13 13 13 14 13 12 12 13 14 15 15 16 16 16 17 17 19 19 19 19 19 20 17 18 19 20 22 20 18 19 20 21 22 25 25 24 22 21
17 15 15 14 14 14 13 13 13 12 13 14 16 15 17 15 16 17 17 17 18 20 20 19 20 19 20 21 23 22 21 23 22 21 20 22 23 24 25 24 23 22
16 16 15 14 14 13 13 13 13 14 13 15 15 16 16 16 16 16 17 19 18 20 20 20 21 22 22 22 22 21 23 22 22 22 22 22 22 22 19 25 24 23
16 15 15 14 14 14 13 13 13 13 14 14 15 17 16 16 17 18 18 20 20 21 21 23 23 23 24 25 25 24 23 22 21 22 23 24 23 23 25 23 23 25
17 16 14 13 13 13 12 13 13 13 14 15 14 16 16 17 17 19 18 19 21 21 22 23 25 26 27 24 26 25 26 25 24 23 23 23 23 25 24 23 24 25
16 15 14 13 12 11 12 12 12 13 14 14 14 15 16 18 19 19 19 19 21 21 22 22 25 26 26 26 27 27 24 23 24 24 24 26 22 22 23 23 23 24
12 13 11 12 12 12 12 13 13 13 13 14 13 15 16 18 19 21 22 24 24 23 25 22 21 24 25 26 23 24 25 23 24 26 25 25 24 25 24 25 23 23
14 12 12 11 12 13 13 13 13 13 13 14 16 17 17 17 18 19 22 23 25 27 23 21 20 20 17 17 14 17 20 22 22 23 23 23 24 24 25 25 26 24
14 13 13 13 13 13 12 13 14 13 14 15 14 15 15 17 16 19 22 23 26 24 24 23 22 22 17 15 15 17 16 17 20 24 25 28 26 26 26 24 24 27
14 13 13 13 13 13 13 13 13 14 15 15 15 15 15 14 15 18 21 24 24 27 24 23 23 16 18 18 17 18 16 20 20 23 23 25 27 29 29 27 26 26
13 13 12 12 12 13 13 12 13 14 15 15 15 13 13 15 18 18 22 25 27 27 29 28 27 19 20 20 19 17 16 16 19 21 26 27 25 32 34 34 28 26
11 11 12 11 11 12 12 13 13 15 14 13 13 14 15 15 16 21 24 26 28 28 29 30 29 18 20 20 20 21 19 15 18 21 24 31 30 34 31 31 29 29
10 11 11 12 12 12 11 13 15 14 14 14 15 14 13 15 18 22 22 23 26 25 26 26 25 19 21 22 23 24 23 20 22 22 25 26 26 27 29 31 34 32
10 10 11 12 13 13 14 14 14 13 13 13 15 11 11 13 16 17 21 25 24 24 24 25 25 20 21 21 21 21 24 22 23 25 27 28 26 25 26 32 32 33
9 10 12 12 13 13 14 14 13 13 12 13 14 15 14 15 16 18 22 24 25 26 27 26 25 21 20 20 19 19 17 21 20 26 30 38 35 34 32 32 33 35
9 11 12 13 12 13 13 12 13 15 16 14 15 15 16 15 17 20 25 26 24 25 25 27 27 22 22 23 23 23 23 25 23 27 29 32 31 30 34 38 34 30
9 10 11 12 13 13 12 14 14 14 16 15 13 15 15 17 20 27 28 27 28 28 22 29 28 24 21 22 23 23 27 25 24 25 30 30 32 35 30 30 31 26
7 8 9 10 12 11 12 14 14 16 14 13 11 14 19 23 24 27 29 32 30 33 27 25 26 25 23 22 22 23 24 32 24 27 33 32 31 34 31 29 29 30

ECMWFNIL_sfc_gust_015.txt.gz
Wind_Gust
11 9 11 10 10 9 10 9 8 9 9 7 8 5 5 3 2 2 2 2 2 3 5 6 5 6 8 8 8 9 8 9 12 13 13 13 12 13 16 13 11 11
11 11 9 9 8 7 8 10 8 8 7 6 6 5 3 2 1 2 1 2 2 3 4 5 6 6 5 5 6 8 8 8 9 9 12 12 13 13 15 14 14 13
11 10 11 10 11 8 8 9 8 7 7 5 4 3 3 3 1 1 2 3 4 4 5 5 5 5 5 5 5 6 9 10 12 11 11 13 16 17 15 15 14 13
12 12 12 11 10 10 8 9 7 6 6 4 3 3 4 4 3 2 1 3 3 5 6 6 8 8 9 10 9 10 10 11 10 9 11 11 11 13 14 12 13 14
13 12 11 10 9 9 9 10 8 7 6 6 5 4 4 2 1 2 3 5 5 6 6 6 6 7 7 8 8 10 10 11 10 8 9 13 14 14 15 15 14 14
11 11 11 11 10 9 10 8 8 7 7 5 7 5 4 3 3 3 4 6 6 6 6 6 6 6 6 8 9 9 10 10 10 9 9 12 14 14 15 14 14 15
13 11 11 10 9 9 8 8 6 7 7 6 5 4 4 3 4 5 6 6 6 6 5 6 6 7 6 6 7 8 9 8 8 10 11 12 13 15 14 14 13 14
12 10 11 10 10 8 9 7 7 7 6 5 5 5 4 5 5 5 6 6 7 8 7 6 7 7 6 5 7 8 10 11 11 11 11 11 9 11 13 15 14 15
12 11 11 10 10 9 9 8 7 6 6 6 5 5 5 6 6 6 7 7 6 6 6 6 7 7 6 6 8 9 11 10 10 11 12 12 12 12 12 13 15 16
13 11 12 10 10 9 9 8 7 6 5 6 6 5 6 6 6 6 5 5 6 6 6 7 7 7 7 5 7 8 10 13 14 15 14 13 13 13 12 12 13 14
12 12 12 11 10 8 9 8 7 6 6 6 5 5 6 5 6 5 6 5 7 7 7 7 6 6 5 5 6 7 10 11 11 11 12 14 15 16 13 14 13 13
13 12 12 11 10 9 8 8 7 6 6 5 6 6 5 5 5 5 6 7 6 8 7 7 6 7 7 7 8 10 12 14 14 13 13 13 13 13 14 15 16 16
13 12 12 10 10 9 9 7 7 6 6 6 6 6 5 5 4 4 4 4 6 6 7 8 8 7 8 8 8 10 11 11 13 13 14 15 14 15 14 14 14 15
13 11 11 11 10 9 9 8 7 6 6 6 5 4 4 3 3 4 5 6 9 9 9 10 10 11 10 11 11 12 13 13 13 14 14 14 12 13 14 16 16 15
11 11 10 10 10 9 8 7 7 6 6 5 4 4 3 3 4 5 6 4 4 5 7 8 10 11 10 11 12 14 14 14 13 14 16 18 18 18 18 18 18 17
13 10 11 10 9 9 8 7 7 6 6 5 5 5 4 4 4 4 3 4 6 7 7 9 11 12 13 17 15 15 13 14 14 15 15 16 18 20 20 19 18 19
13 11 11 10 9 8 7 7 7 7 6 6 5 3 3 3 1 4 3 3 4 4 6 7 9 12 16 17 18 19 17 14 14 15 14 15 15 17 19 20 20 20
12 11 10 9 9 8 8 8 8 7 6 4 3 2 2 3 5 4 3 2 3 3 4 6 8 10 15 17 18 19 17 19 16 16 16 16 17 18 19 20 20 21
11 11 10 9 9 9 9 8 7 6 5 3 2 3 2 5 5 2 2 2 3 4 5 6 8 10 15 16 17 17 19 20 20 19 19 19 19 20 21 22 21 21
10 10 10 8 7 7 6 6 6 6 4 3 3 3 3 4 2 1 2 3 3 6 7 7 11 11 15 15 15 16 16 17 19 20 20 20 19 20 21 21 22 24
10 9 8 7 6 5 4 4 5 4 3 4 5 4 6 4 2 2 2 4 5 7 8 11 12 13 15 16 16 17 17 15 16 17 20 20 20 18 20 21 21 24
11 8 7 6 4 3 3 3 3 2 2 3 4 7 4 3 1 1 3 5 6 7 10 13 13 13 14 14 15 14 15 15 15 18 20 21 23 22 22 23 22 23
10 8 6 4 4 5 4 4 5 3 4 3 7 3 2 1 2 3 5 7 8 8 9 11 11 11 14 16 17 19 17 18 18 20 21 22 23 21 23 23 24 23
9 7 6 6 8 8 7 6 6 4 4 4 7 3 2 1 3 4 6 6 7 8 10 14 15 15 17 19 20 20 18 19 17 19 21 22 24 23 23 25 25 27
11 9 8 7 8 8 9 7 5 4 4 7 6 5 4 5 6 8 7 8 8 9 12 18 17 16 15 16 17 15 14 13 16 19 23 23 25 27 24 26 26 22
8 11 11 11 7 6 7 5 3 6 8 7 5 6 5 6 6 8 9 10 9 11 14 14 17 17 16 18 17 17 16 19 18 22 24 25 26 29 30 28 27 27

ECMWFNIL_sfc_gust_018.txt.gz
Wind_Gust
12 11 13 12 13 13 13 12 10 10 10 8 9 7 8 5 2 3 4 4 3 3 2 3 5 5 5 5 6 7 5 5 6 8 9 10 9 9 11 8 8 9
12 12 11 10 10 9 11 12 12 12 11 9 9 7 4 5 2 3 2 3 2 2 1 1 1 1 1 2 4 6 8 7 7 6 8 10 11 9 11 9 9 10
10 10 11 12 14 11 11 10 11 11 10 10 7 7 6 4 5 3 4 3 1 1 2 2 2 3 3 5 6 5 7 8 10 10 9 9 9 10 10 11 11 10
12 13 13 12 11 11 9 10 8 8 7 9 8 7 7 5 5 3 1 3 2 1 2 2 4 4 4 6 6 8 8 8 10 9 11 11 9 8 9 9 12 14
14 12 10 11 10 9 9 10 10 9 10 10 7 6 7 5 5 4 3 2 2 3 3 4 3 4 4 5 4 6 7 8 8 8 10 12 11 9 10 8 10 12
10 11 11 12 11 11 11 9 9 9 9 7 9 7 6 6 6 5 5 4 3 3 4 4 4 5 4 4 4 5 6 6 7 6 8 10 12 11 11 9 9 11
14 12 12 10 9 10 11 9 8 8 9 9 6 7 7 6 6 5 5 5 4 4 4 5 5 5 4 4 4 6 7 5 5 5 6 9 9 11 11 11 11 12
14 11 11 10 10 9 10 9 9 8 8 6 7 6 7 7 6 5 4 5 4 5 5 5 5 5 5 4 6 6 6 5 5 6 6 8 7 9 10 11 12 14
13 13 11 11 11 9 9 9 8 7 7 8 7 6 5 6 6 5 6 5 4 4 5 4 5 5 5 5 6 6 6 5 5 5 6 9 10 10 10 10 12 13
14 13 12 12 12 10 9 8 8 8 7 8 7 6 6 6 5 6 4 4 4 3 4 5 4 5 5 5 6 6 6 6 6 6 7 8 9 9 9 9 9 11
15 14 15 13 12 10 10 9 8 8 7 7 6 6 6 5 4 3 4 4 5 4 3 3 5 5 5 5 6 6 7 8 8 8 8 9 10 10 9 9 9 9
17 15 16 15 13 11 11 11 10 8 7 6 6 7 6 5 6 3 4 3 3 4 3 2 3 3 4 5 6 6 8 9 10 10 9 10 9 10 10 8 8 9
17 17 15 14 13 12 11 10 10 8 8 7 6 6 6 5 3 3 2 4 2 1 2 2 2 2 3 4 4 5 6 6 8 9 9 9 8 10 8 7 7 7
15 12 13 13 12 11 11 11 10 9 8 7 6 6 5 5 5 4 3 2 4 5 3 3 2 2 2 2 3 4 5 6 7 9 9 10 10 10 10 11 10 9
12 11 11 12 12 11 11 10 10 9 8 7 6 6 6 6 6 5 5 5 4 4 3 2 2 1 3 2 3 5 4 6 7 9 10 11 10 10 11 11 12 11
14 12 13 13 13 13 11 10 9 8 8 6 6 6 6 5 6 5 6 6 4 2 1 1 2 4 5 7 6 6 7 8 9 9 9 10 12 13 12 11 12 12
14 13 13 14 13 12 10 9 9 8 7 6 5 5 5 5 7 6 5 5 4 2 1 2 4 6 9 10 11 12 10 10 10 11 9 11 10 12 14 14 13 12
13 13 12 12 12 12 11 10 8 7 7 5 5 5 5 7 7 6 6 5 3 2 2 5 6 7 12 12 13 14 12 13 11 12 12 12 12 13 14 13 14 14
15 15 13 12 11 11 11 10 8 6 5 5 7 6 6 7 6 5 4 2 2 3 5 6 6 8 12 14 14 15 15 14 11 12 14 13 13 13 13 14 14 15
16 16 15 13 11 10 9 7 6 7 6 7 6 5 6 6 4 4 2 1 2 4 6 6 8 9 13 14 14 14 14 12 9 11 12 13 13 14 15 15 15 16
16 17 16 13 10 8 7 6 6 5 5 4 6 7 8 6 4 1 1 2 4 5 6 8 10 11 13 14 13 14 14 12 11 12 14 15 16 14 15 16 15 17
17 15 12 11 9 7 8 7 6 7 8 6 7 6 5 5 3 2 2 4 6 6 7 9 10 12 14 14 15 15 16 13 12 13 14 15 15 13 13 13 14 15
16 16 13 13 11 12 11 10 10 8 8 6 10 6 6 4 2 2 3 3 4 5 8 11 11 12 14 16 16 16 13 12 11 13 13 14 14 12 13 14 15 14
15 17 16 15 14 14 12 9 8 7 6 7 12 9 5 4 5 4 4 4 3 6 9 11 12 13 16 16 17 17 16 16 13 13 13 14 16 15 15 16 15 21
17 17 17 17 14 12 12 10 9 10 9 7 8 7 7 5 4 2 5 6 5 7 10 13 14 14 15 17 18 18 19 15 14 13 16 16 17 19 16 18 17 15
19 18 16 16 13 10 8 11 10 10 8 8 7 7 6 5 3 5 6 8 6 6 11 12 15 15 15 18 18 18 18 18 13 16 19 20 20 22 23 17 17 17

ECMWFNIL_sfc_gust_021.txt.gz
Wind_Gust
11 10 12 12 12 11 11 10 8 8 8 5 8 7 8 6 2 2 4 5 5 5 4 5 5 5 4 4 4 5 5 4 5 5 5 5 4 2 3 3 3 3
13 12 10 10 9 8 8 9 11 11 9 8 8 6 4 4 3 5 5 4 2 3 4 5 4 4 5 5 5 5 5 5 7 4 5 6 7 5 5 4 4 4
12 11 11 12 14 11 10 9 9 9 9 9 6 5 6 5 6 3 5 5 4 3 3 2 3 4 4 5 5 5 5 5 6 5 3 4 5 5 7 6 5 5
13 15 15 13 12 12 10 10 7 7 5 5 7 7 7 6 6 6 4 5 4 2 4 5 5 6 6 6 4 5 4 5 6 4 5 4 3 3 5 5 6 7
16 15 13 12 11 10 10 11 11 10 9 9 5 6 8 7 5 5 4 3 3 2 4 4 5 6 6 7 6 6 6 7 6 4 3 4 6 4 4 3 5 6
13 14 14 14 12 12 13 12 11 10 9 6 10 8 7 6 6 5 4 3 2 1 1 3 5 6 5 6 6 6 7 9 9 7 6 5 5 5 6 5 5 5
17 14 14 13 12 12 14 12 10 10 11 10 8 8 8 7 6 6 5 3 2 1 2 3 3 6 6 5 5 6 8 6 8 7 7 9 7 7 6 6 7 7
17 16 16 14 14 14 14 13 12 12 11 9 10 8 9 9 8 6 4 4 3 3 3 3 4 6 6 3 5 6 8 7 8 7 7 8 7 10 10 9 6 8
16 16 15 15 16 15 14 14 13 11 11 14 11 10 7 10 9 8 7 5 4 4 4 4 5 5 3 2 5 5 6 7 7 7 7 10 11 12 12 12 12 11
17 17 16 17 18 17 16 14 14 12 12 13 12 11 12 7 9 9 7 6 6 4 4 4 2 2 3 2 3 3 4 5 5 5 6 7 8 10 11 11 12 12
18 17 19 19 19 16 15 14 13 13 12 13 12 11 10 10 6 6 7 7 8 6 5 3 3 3 2 1 1 1 1 2 2 2 3 5 6 7 8 9 10 11
19 17 20 21 17 14 15 15 15 14 14 11 13 12 9 9 10 7 8 8 6 5 5 5 5 5 5 3 2 2 2 2 3 3 3 5 6 6 7 7 8 9
19 19 19 15 15 15 15 15 15 14 14 14 11 12 11 9 7 7 6 7 6 7 7 7 6 5 5 5 4 3 2 2 4 5 5 6 6 8 8 8 9 9
21 18 15 14 13 15 16 15 15 14 13 12 11 11 10 10 10 9 7 6 8 8 7 7 6 5 4 4 3 3 3 4 5 6 7 7 7 9 9 10 10 10
19 15 14 14 15 15 15 15 15 14 12 12 11 10 10 10 9 9 9 7 6 8 7 5 6 4 3 3 4 5 4 6 7 8 9 10 10 10 10 11 10 11
21 18 17 16 16 17 16 15 14 13 12 11 10 10 9 9 9 9 10 10 9 6 5 4 2 2 4 7 6 6 6 7 8 9 9 10 11 12 11 11 12 12
19 16 17 18 17 16 15 15 15 14 13 10 9 9 10 9 10 9 7 7 8 7 4 1 2 3 7 9 10 12 10 8 9 10 8 10 10 12 13 13 12 11
14 14 15 16 16 17 17 16 15 14 13 11 10 9 8 9 8 8 9 8 7 5 3 2 3 6 10 11 12 13 12 13 9 10 10 10 10 11 12 12 13 13
14 15 14 15 17 18 17 17 16 14 13 11 11 9 8 10 9 11 9 7 6 4 2 3 3 7 10 12 13 14 15 14 11 10 11 11 11 12 13 14 14 15
17 16 16 16 13 16 17 16 15 14 11 9 10 9 11 10 10 10 8 7 5 4 2 2 4 7 11 13 14 15 16 14 11 12 12 12 13 13 14 14 14 16
18 18 15 8 11 13 12 13 11 11 10 10 12 12 13 13 12 10 7 7 5 5 2 3 6 9 12 14 14 16 17 15 13 13 13 13 14 13 14 15 14 16
18 16 16 19 20 13 12 12 12 12 13 11 11 10 9 10 7 9 8 6 4 3 2 5 8 10 12 13 16 16 18 16 13 14 15 15 15 13 14 14 14 14
20 20 18 18 19 17 15 15 15 13 11 10 14 11 11 9 9 6 6 5 3 3 4 6 6 10 13 15 16 18 15 15 14 16 16 16 17 14 15 15 14 13
19 21 20 17 17 17 17 14 14 12 12 11 15 12 10 9 7 6 3 4 4 5 5 5 7 10 14 16 17 17 17 18 16 17 18 17 18 15 14 15 14 20
18 19 20 20 17 17 16 15 13 14 11 9 12 12 11 8 6 6 5 4 5 6 8 6 7 10 13 16 17 18 18 15 16 17 19 18 18 19 15 16 17 16
21 23 21 22 18 15 13 14 12 13 12 12 10 11 12 8 7 6 5 5 4 3 5 5 7 10 12 16 17 18 18 19 16 18 20 21 19 23 23 18 17 18

ECMWFNIL_sfc_gust_024.txt.gz
Wind_Gust
11 10 12 12 12 12 13 11 9 10 9 7 10 9 11 7 7 7 8 8 8 9 6 6 5 7 8 7 7 8 7 7 6 5 5 6 6 6 8 8 8 7
12 11 10 9 9 8 9 11 12 12 12 10 10 8 5 8 7 10 10 9 7 8 7 6 6 7 7 7 7 8 7 6 7 3 6 6 6 6 7 7 7 6
11 10 11 12 14 13 13 11 10 11 11 12 7 6 8 6 10 7 10 10 9 8 7 7 7 7 7 6 6 7 6 5 6 4 4 4 3 4 5 5 6 6
13 13 14 13 11 12 11 11 10 9 7 7 10 10 10 9 10 10 8 9 10 7 7 6 7 6 7 7 7 6 4 4 4 4 4 4 3 1 3 3 3 6
14 13 11 11 11 9 9 12 13 12 12 13 8 8 10 10 10 10 9 9 9 9 7 8 7 7 7 8 6 6 2 3 4 4 4 3 3 2 3 3 5 5
10 12 12 12 12 12 13 13 13 13 12 9 12 11 11 12 12 11 11 10 9 10 8 7 7 7 7 8 7 6 5 4 4 3 3 3 6 6 6 7 6 7
13 12 13 12 9 11 13 14 11 12 13 13 10 11 12 12 11 11 11 10 8 7 7 6 5 6 7 7 7 6 6 4 5 5 6 5 3 6 5 6 6 7
14 12 14 13 13 12 13 13 11 12 11 9 12 11 12 13 12 10 9 9 7 6 6 6 5 7 6 7 7 5 4 5 6 7 7 6 5 5 5 5 5 6
13 14 14 13 14 14 15 15 13 10 9 12 12 11 9 11 11 10 9 7 6 6 5 5 5 6 6 7 7 5 3 4 5 7 6 6 5 2 4 4 6 7
16 16 13 15 16 17 16 14 12 10 10 11 11 11 13 8 9 10 8 7 6 4 4 4 5 5 5 5 7 7 7 6 6 7 6 5 4 3 4 4 5 7
19 18 17 17 19 17 15 11 10 11 10 11 11 11 10 11 8 8 9 8 8 6 5 4 5 5 5 4 4 5 6 6 5 4 3 3 4 5 5 5 6 7
19 16 18 20 20 17 15 13 13 12 13 10 12 13 10 10 12 9 11 10 7 7 7 7 6 6 6 6 5 5 5 4 2 1 3 4 5 6 7 7 7 8
17 18 20 19 18 17 14 14 16 16 16 16 13 14 14 12 9 11 7 9 8 9 9 9 8 7 5 4 5 6 4 2 2 4 6 6 6 8 8 8 9 9
11 9 9 10 10 11 15 16 17 17 18 15 15 15 14 13 13 12 9 7 10 9 8 8 8 7 6 6 5 3 2 3 5 5 7 8 8 9 8 9 9 10
9 8 7 7 8 10 8 16 18 18 17 17 15 14 12 12 11 11 11 8 6 8 9 8 9 7 6 5 3 2 1 4 6 7 8 9 9 9 9 9 9 9
9 9 11 15 15 16 18 18 16 13 15 16 14 12 12 10 10 8 10 11 11 9 8 8 7 5 5 6 4 2 4 4 5 7 8 9 10 11 10 10 10 10
9 10 11 13 14 14 12 12 14 18 19 18 15 11 11 10 10 10 8 9 11 12 10 8 6 5 5 4 4 5 3 3 5 7 7 9 10 10 12 12 11 11
9 9 11 12 13 14 15 16 18 18 18 16 15 13 10 12 11 10 11 10 11 10 9 8 6 4 4 4 4 6 7 6 5 7 8 9 10 11 12 12 13 13
10 12 12 13 14 12 11 12 13 11 11 14 15 12 12 14 12 12 12 10 12 12 9 6 5 4 2 3 6 7 9 8 6 7 9 10 11 12 12 13 13 14
9 11 12 12 10 10 12 14 16 17 16 13 13 11 13 14 13 13 11 11 10 10 9 7 5 3 2 4 7 9 10 9 7 9 9 11 12 13 14 14 14 15
10 11 10 10 12 14 14 16 16 15 15 15 16 16 16 18 17 14 10 10 8 9 9 5 4 3 2 5 7 10 11 9 8 9 10 11 12 12 14 14 14 15
12 11 11 12 14 16 16 16 16 18 17 15 14 13 13 14 10 12 12 10 8 7 6 3 3 3 4 6 8 10 11 9 9 10 11 13 14 13 13 13 13 14
13 13 13 14 16 18 18 18 17 15 14 15 19 17 16 15 14 10 11 11 9 7 7 4 3 5 4 6 8 11 9 10 10 11 12 14 15 14 14 13 13 14
13 13 15 15 17 19 18 17 17 16 17 17 22 19 16 13 12 11 9 10 10 8 8 7 6 6 6 7 9 10 10 10 11 12 14 15 16 13 13 13 15 23
13 14 15 13 12 11 10 18 21 21 16 16 18 16 15 12 11 11 8 5 5 7 9 7 6 5 6 8 9 11 11 9 11 11 15 16 17 19 14 17 17 14
14 17 17 20 23 21 21 20 15 13 15 15 13 14 14 11 10 10 10 6 4 5 5 6 6 6 6 9 9 11 12 13 10 12 16 18 18 17 18 15 18 20

ECMWFNIL_sfc_gust_027.txt.gz
Wind_Gust
13 12 13 13 13 11 13 13 12 13 13 12 13 14 16 13 13 13 12 13 14 15 14 14 14 14 14 13 13 14 14 13 12 12 12 12 13 12 14 13 12 12
13 12 11 10 9 9 9 10 13 13 13 12 12 11 10 12 13 13 13 13 14 14 14 13 13 14 14 14 13 13 13 12 12 10 11 11 11 12 12 11 11 10
13 12 12 13 13 12 12 11 10 11 12 12 9 9 10 10 13 12 14 14 14 14 12 12 12 12 13 13 12 12 12 12 11 10 10 11 11 11 11 10 11 10
14 14 15 14 13 12 12 12 12 11 10 9 11 11 11 11 12 13 13 13 14 13 12 11 12 11 12 12 11 12 11 11 10 9 10 10 10 10 10 9 10 10
14 14 14 14 13 13 12 14 15 14 14 14 11 11 12 12 13 14 14 14 14 14 13 12 11 11 11 11 10 11 10 10 8 8 9 10 10 9 9 9 9 10
14 16 16 16 15 14 15 15 15 15 14 13 13 13 13 14 14 15 15 16 14 15 14 13 12 11 11 11 10 9 9 8 9 8 9 9 9 9 9 9 9 10
15 15 16 16 14 15 15 15 14 14 14 14 13 13 14 15 15 16 17 16 17 16 16 15 13 12 11 11 11 10 9 9 9 8 9 8 8 8 9 8 10 10
17 16 16 16 16 16 17 17 15 15 14 13 14 14 15 16 17 16 16 17 17 17 16 16 15 14 13 12 12 11 10 9 9 9 8 9 7 8 8 8 8 10
19 18 18 17 18 18 18 19 17 15 15 16 16 15 15 16 17 17 17 18 18 17 17 16 16 15 13 12 11 11 11 10 9 9 9 8 7 7 8 8 9 10
17 17 15 16 18 20 19 19 17 16 16 18 18 17 18 17 17 18 17 18 18 18 17 16 16 15 14 12 12 11 10 10 10 9 8 7 7 8 9 9 10 11
15 15 16 18 18 17 17 17 15 15 15 19 19 19 19 19 17 17 18 19 19 19 18 17 16 15 14 13 11 10 10 10 10 9 7 7 7 8 6 10 11 12
15 15 16 18 19 18 16 15 15 15 16 16 19 21 21 20 20 19 20 20 20 18 17 16 15 14 13 13 13 12 12 10 9 7 7 7 8 9 10 10 11 13
13 15 17 18 18 18 15 15 15 14 14 13 19 18 19 19 18 19 19 20 19 17 16 16 15 13 13 13 13 12 11 10 8 7 7 8 9 11 12 12 13 14
16 14 17 19 17 16 17 16 15 15 16 17 18 21 22 23 25 22 18 17 17 16 14 13 14 15 15 14 13 12 10 9 8 7 8 9 9 11 12 13 14 15
17 17 17 16 17 18 17 16 15 14 16 17 16 17 18 21 20 20 18 17 17 18 18 16 16 16 14 14 13 12 10 8 7 8 9 10 11 12 12 14 15 15
16 17 18 18 17 17 17 15 14 14 16 17 18 18 19 17 15 16 18 18 18 18 18 18 17 16 13 12 7 11 10 9 7 7 9 11 12 13 14 15 15 16
13 14 15 18 18 17 13 13 15 15 16 17 18 20 19 19 18 16 15 17 18 18 19 17 16 16 15 13 11 6 8 9 9 9 10 11 13 14 16 16 16 17
14 13 14 16 17 18 14 14 14 14 16 16 16 17 16 16 16 16 16 15 14 17 17 18 18 13 15 13 11 8 4 8 8 9 10 12 13 15 16 17 18 18
15 15 15 15 16 17 14 13 15 16 16 16 18 16 15 16 15 16 17 18 19 19 17 17 18 13 14 13 10 9 6 4 9 9 11 12 14 16 17 17 18 18
16 16 16 16 15 17 16 15 16 18 17 15 14 15 15 14 13 15 15 15 16 17 16 16 17 12 13 11 9 7 6 3 8 9 11 13 15 16 16 17 18 19
17 17 17 16 16 17 17 17 17 14 14 14 17 19 18 18 18 17 14 14 14 14 15 14 13 11 10 9 8 6 4 4 8 9 11 13 14 15 16 17 18 19
18 18 17 16 17 18 19 19 16 16 17 15 16 14 12 14 14 16 18 15 14 14 14 14 12 8 7 7 6 5 3 7 9 10 12 14 15 16 17 18 18 19
18 19 19 18 17 19 20 18 16 15 13 16 17 16 17 15 16 16 16 16 15 14 16 15 13 9 8 6 4 3 4 10 11 13 14 15 16 17 18 18 18 19
18 19 20 19 17 20 20 18 13 11 13 14 17 18 18 17 17 14 12 13 14 13 12 13 12 10 7 5 5 4 4 10 13 15 16 17 18 17 18 18 20 19
19 20 20 19 19 21 17 14 14 14 12 12 11 15 17 17 17 15 12 9 9 10 7 10 10 9 7 7 6 5 7 11 14 17 18 19 20 20 18 21 22 18
20 20 20 21 21 14 15 17 19 19 18 19 16 13 17 14 12 13 12 9 7 8 8 8 9 9 11 7 6 7 7 12 15 18 21 21 21 22 26 24 25 26

ECMWFNIL_sfc_gust_030.txt.gz
Wind_Gust
16 16 16 17 17 15 15 14 14 14 15 14 14 15 16 14 16 15 14 14 13 14 13 12 11 11 11 11 9 10 12 11 11 11 12 11 12 11 11 11 10 11
16 15 15 15 16 16 15 15 14 15 15 14 14 14 15 15 16 15 15 15 15 15 14 13 12 12 11 11 10 9 11 10 10 11 11 11 12 12 11 10 9 9
16 16 16 16 17 16 16 16 15 15 15 15 14 14 15 15 16 15 16 15 15 15 15 14 13 12 12 12 12 10 11 10 10 10 9 10 10 10 11 9 10 9
18 18 18 17 17 16 16 16 16 16 15 16 16 15 15 15 16 16 16 15 15 16 15 15 14 14 13 13 12 12 11 11 11 10 10 10 9 10 9 9 9 9
18 18 18 18 17 16 16 17 18 17 18 18 16 16 17 17 17 18 17 17 15 16 16 16 15 14 14 13 12 12 12 12 11 11 10 10 9 9 9 8 9 9
17 19 19 19 18 17 19 19 19 18 18 17 18 18 18 19 19 19 19 18 17 17 16 16 16 15 14 13 12 11 11 12 12 10 11 11 11 10 10 9 8 8
18 18 18 18 17 17 17 17 17 18 19 18 18 19 19 21 21 21 21 20 20 19 19 17 16 16 14 14 13 13 12 11 12 12 12 11 11 11 10 8 8 8
19 17 18 18 17 17 18 19 18 18 17 18 18 19 19 21 23 22 22 22 21 21 20 19 18 17 16 15 14 14 13 13 12 13 11 11 10 10 9 9 8 9
17 18 19 18 20 19 19 20 20 17 17 18 19 19 20 21 22 23 24 24 23 22 21 20 19 18 16 16 15 16 16 14 13 13 13 12 12 11 10 8 9 9
17 18 18 19 19 19 19 19 21 18 18 18 19 22 23 21 22 25 25 25 24 23 22 21 21 20 19 18 18 17 16 16 15 14 14 13 11 11 10 9 10 11
19 21 20 20 21 20 19 18 18 19 18 19 21 19 19 20 22 23 24 24 24 24 24 23 23 22 21 19 18 17 16 16 15 14 13 12 11 10 7 11 11 13
16 17 17 16 17 18 19 20 20 21 21 20 19 21 20 21 22 22 22 24 24 25 25 25 25 24 23 22 21 19 17 16 15 14 14 13 12 11 11 10 11 14
14 15 17 16 15 16 19 20 20 19 20 21 20 22 22 20 18 24 25 26 27 27 28 27 26 25 24 22 21 21 19 18 16 15 14 12 11 11 10 11 13 15
11 11 12 15 17 20 22 21 21 20 21 21 22 23 23 24 26 26 25 25 26 26 26 25 24 24 23 23 22 21 19 17 16 14 13 12 10 11 10 11 13 15
11 11 11 12 13 15 16 18 21 20 19 21 21 22 23 24 27 28 27 26 26 24 23 22 21 21 22 22 21 20 18 17 15 14 12 10 10 10 11 13 14 14
13 12 13 12 13 15 15 15 17 16 17 18 19 21 22 25 26 26 26 25 25 23 22 19 19 12 13 11 8 18 17 16 14 13 12 9 9 11 12 14 14 15
13 12 13 14 14 15 15 15 16 16 17 18 19 18 18 20 21 24 24 22 23 23 20 16 15 15 15 15 14 9 12 13 13 12 10 10 10 11 13 14 15 16
15 14 14 14 14 16 16 15 15 17 18 18 19 17 18 19 20 22 22 23 25 22 21 19 19 13 16 14 12 10 5 12 11 10 10 10 10 12 14 15 16 16
16 16 16 15 15 15 15 15 16 17 18 19 19 18 18 20 22 23 25 26 24 22 21 22 21 14 16 15 12 9 4 6 11 9 8 8 10 12 14 15 15 16
17 17 17 16 15 15 15 16 17 18 17 18 18 18 19 19 20 22 23 23 21 21 22 23 22 14 16 15 12 8 5 6 10 8 8 10 10 12 13 14 15 16
16 17 17 17 17 16 15 16 16 16 17 18 18 18 20 22 22 23 22 20 21 22 23 21 19 14 14 13 12 8 7 7 8 7 9 9 10 11 13 14 15 16
17 17 17 17 17 17 17 17 16 16 16 16 17 17 18 18 19 20 20 21 21 22 22 22 18 13 13 12 10 8 9 10 7 9 10 11 12 12 14 15 15 16
18 18 18 18 18 18 19 18 17 17 16 16 18 18 18 17 17 17 18 21 21 20 21 20 17 12 12 11 9 8 9 9 8 12 11 12 13 13 15 15 15 16
20 19 20 19 19 20 19 18 17 16 16 17 19 19 17 18 20 20 18 19 20 19 19 18 17 14 12 11 9 6 8 10 11 12 12 14 15 15 16 17 16 9
21 21 21 21 21 20 18 18 19 16 12 13 14 17 18 19 20 22 20 19 17 17 13 17 17 14 11 11 10 8 10 12 13 15 16 16 18 18 16 18 19 14
20 21 21 21 22 20 20 17 14 15 15 15 16 19 19 19 18 19 19 16 15 16 16 16 16 16 16 11 10 8 6 12 14 15 17 18 18 20 22 20 21 20

ECMWFNIL_sfc_gust_033.txt.gz
Wind_Gust
17 16 17 17 17 16 16 14 13 14 13 12 12 12 14 12 14 12 10 10 9 9 9 9 9 8 9 8 6 8 10 9 9 9 10 10 11 10 11 11 10 11
17 16 17 17 17 16 17 15 13 13 13 12 12 12 12 13 13 12 12 11 11 10 10 10 9 9 9 9 7 6 9 8 8 10 9 9 9 9 10 9 10 9
18 17 17 16 17 15 15 16 15 14 14 14 12 12 13 14 15 14 13 12 12 12 11 10 10 9 9 8 8 7 8 7 7 8 7 8 8 8 8 7 8 8
18 18 18 17 15 15 16 16 16 16 15 16 15 15 15 15 16 16 15 15 14 14 13 12 11 11 10 10 9 9 9 9 9 8 8 9 8 8 7 7 7 9
17 18 17 17 16 16 16 17 17 16 16 16 16 17 18 17 18 18 18 17 16 15 15 14 13 12 12 11 11 10 10 10 10 11 10 9 9 8 8 8 7 7
19 20 18 17 17 17 20 19 19 17 17 16 17 18 18 19 20 19 19 18 18 18 17 17 16 15 15 14 13 12 12 13 13 11 12 11 11 10 11 9 9 10
18 18 17 20 18 20 20 20 19 19 19 18 18 19 19 20 21 21 21 21 20 20 20 19 18 18 17 16 15 14 14 12 14 14 13 13 12 11 9 10 9 8
18 18 20 20 19 21 22 21 20 20 18 19 18 20 20 21 23 21 21 22 21 22 21 20 20 20 19 17 18 16 15 13 14 14 14 13 12 13 13 10 8 9
17 18 18 19 21 22 23 24 21 20 20 20 21 20 20 22 22 22 22 23 23 22 22 22 22 21 20 19 18 18 18 16 15 15 15 14 14 14 14 14 11 10
18 18 18 18 17 20 22 22 23 23 23 22 21 21 22 21 21 22 22 23 25 25 24 24 24 22 22 21 21 20 20 19 18 16 16 16 15 15 14 12 11 10
12 12 13 15 13 15 18 20 20 21 21 21 21 22 22 22 23 23 25 26 26 26 26 25 24 24 23 22 20 19 20 19 18 18 16 16 15 13 8 10 11 10
15 15 17 16 17 17 18 17 17 18 20 20 20 21 21 21 23 25 26 27 26 26 25 25 24 23 23 23 22 20 20 19 18 17 16 16 14 13 13 13 11 11
15 17 15 15 15 16 17 19 20 19 19 20 20 21 23 23 24 26 25 27 27 25 26 25 24 23 22 22 21 21 20 19 18 16 16 14 14 14 13 12 12 12
8 8 10 13 14 15 16 18 19 17 20 21 20 21 23 24 25 25 24 21 22 24 24 24 24 24 24 23 22 21 19 19 18 16 16 15 13 13 12 11 11 12
9 9 11 11 14 16 16 17 19 22 23 23 23 22 19 21 20 19 14 17 21 25 24 25 25 25 25 22 21 20 19 18 17 17 15 14 14 13 12 12 12 12
11 10 13 13 13 14 15 16 18 19 20 20 21 20 20 19 20 14 14 19 23 23 25 21 14 14 8 9 10 21 20 21 19 16 14 13 12 12 11 12 12 12
12 12 12 14 13 14 14 15 16 15 16 17 18 19 19 18 16 19 19 23 26 26 18 12 10 11 14 16 13 8 17 17 16 14 13 12 11 11 11 11 12 13
13 13 14 13 13 15 15 15 15 16 17 18 17 17 18 17 20 21 24 23 23 25 17 16 15 11 15 17 16 14 8 15 13 12 12 11 11 11 12 12 12 12
13 14 15 14 14 15 14 14 15 16 17 18 18 16 16 19 20 19 20 21 22 23 20 17 18 8 16 17 16 15 9 6 12 11 11 11 9 10 12 12 13 14
15 15 15 15 15 15 15 16 16 17 16 16 16 17 18 18 18 19 18 18 21 22 17 18 19 12 15 15 15 13 9 4 9 10 7 8 10 11 11 12 13 15
16 16 16 16 15 15 15 16 16 16 17 17 17 17 17 18 17 19 19 16 19 18 19 20 18 13 15 15 14 11 6 3 8 8 8 9 10 12 13 14 14 15
17 16 16 16 17 16 16 16 16 16 17 16 17 17 17 16 17 17 17 18 16 20 21 23 18 12 14 13 11 9 4 6 9 7 9 11 12 13 14 15 14 14
17 17 16 17 17 17 17 17 17 17 16 17 17 17 17 17 17 16 15 15 18 19 23 22 19 12 12 11 8 7 4 8 8 11 12 13 13 13 14 15 14 14
17 17 17 17 17 18 18 16 16 17 16 16 18 17 17 12 9 10 14 17 19 21 23 22 19 12 10 9 8 7 5 8 8 11 11 11 14 13 14 14 14 4
19 19 18 19 19 19 18 18 17 16 16 16 16 13 12 14 17 17 17 16 18 19 15 19 18 13 9 9 6 4 6 9 9 11 12 13 13 14 13 14 15 11
18 18 19 19 20 19 19 18 16 16 16 13 11 13 17 17 17 18 17 18 19 18 17 17 17 14 12 8 6 4 4 11 10 11 12 12 13 15 15 16 17 18

ECMWFNIL_sfc_gust_036.txt.gz
Wind_Gust
12 12 11 11 11 11 11 9 10 9 8 7 8 8 9 7 10 6 6 6 5 5 5 4 4 3 4 3 5 6 8 5 6 6 7 7 7 7 8 7 5 6
13 12 12 10 9 10 10 8 8 10 8 6 7 8 9 8 9 8 7 7 7 6 5 4 4 4 4 5 2 4 7 4 5 8 6 6 7 7 5 6 5 5
12 11 12 11 10 9 11 9 6 8 8 7 5 8 9 9 10 9 9 7 9 8 6 6 5 4 4 5 4 3 6 3 5 4 3 7 5 5 4 4 4 3
11 11 10 10 9 8 9 10 7 6 7 8 7 8 9 10 11 10 9 10 9 9 9 8 7 7 6 7 4 4 6 4 5 4 5 4 3 4 4 4 4 4
11 10 9 8 8 7 7 9 9 8 7 7 8 8 9 10 11 11 11 11 10 11 11 10 9 8 7 6 6 5 7 5 6 4 5 5 5 5 4 4 3 2
10 12 12 10 7 6 7 8 9 8 8 7 8 8 8 10 11 12 12 12 12 12 12 12 12 10 10 8 7 6 9 7 8 7 9 7 8 5 7 5 3 4
7 8 6 7 8 8 6 7 9 8 7 6 8 8 8 10 12 13 14 14 16 15 15 14 12 11 10 10 10 9 10 9 11 11 10 9 7 6 6 6 6 5
7 6 5 3 6 6 7 7 9 9 8 7 7 8 8 11 15 12 13 15 16 16 14 15 14 13 11 10 11 10 9 9 10 11 9 9 7 10 7 6 5 4
10 8 7 5 6 6 8 9 9 8 8 8 8 10 11 13 13 13 15 16 16 16 16 15 15 14 11 11 10 11 12 10 8 9 8 7 9 9 11 10 7 5
5 6 7 6 5 6 9 10 9 9 11 10 6 6 11 10 14 17 17 16 16 17 17 14 14 12 12 13 14 12 11 12 11 9 9 9 9 10 11 10 10 7
8 7 6 5 7 9 10 13 13 11 7 11 11 11 11 15 15 17 19 19 18 19 18 15 13 13 13 12 10 8 9 9 10 11 9 9 8 8 6 6 8 6
9 8 7 7 12 14 13 11 11 12 12 14 14 14 12 15 19 22 22 22 19 18 15 16 17 15 15 13 14 13 10 8 7 8 8 9 9 9 9 5 4 6
10 10 8 7 10 12 14 13 13 7 10 14 14 14 14 13 18 19 15 18 21 19 17 15 16 15 13 12 12 13 12 11 9 7 7 6 7 8 6 6 7 7
10 12 10 11 11 12 12 11 9 12 18 18 15 18 17 17 13 8 16 9 12 12 13 11 11 13 19 17 14 12 10 12 11 11 9 8 5 5 6 6 6 5
4 6 11 13 16 16 15 13 14 14 17 20 20 22 19 10 11 10 11 14 12 12 9 6 13 14 16 15 16 12 9 11 13 13 11 8 8 9 6 6 6 5
5 4 7 7 9 9 12 14 14 13 12 13 15 16 15 13 16 16 14 14 14 12 10 10 11 10 13 15 12 18 10 12 11 11 11 9 8 9 8 7 7 6
7 7 7 8 7 8 7 11 12 11 14 15 13 13 13 13 12 17 15 12 13 12 8 8 7 11 12 11 9 10 10 9 10 9 9 8 9 9 8 8 8 9
7 7 8 8 7 9 10 10 10 11 11 10 9 10 10 9 11 12 11 11 12 14 13 9 7 5 8 9 6 6 5 7 8 9 9 7 5 7 8 6 5 5
8 9 9 8 9 9 8 8 10 11 12 10 10 9 9 9 10 10 12 11 13 13 14 9 9 4 7 9 11 12 13 11 9 8 10 9 7 5 6 4 3 4
10 10 11 9 9 9 8 11 10 11 9 9 9 8 7 9 8 10 9 11 10 12 7 12 10 5 10 13 13 14 13 9 11 9 8 7 5 4 3 4 4 5
10 10 10 10 10 10 9 11 11 9 10 9 9 9 8 7 10 9 10 9 9 9 14 11 11 7 11 14 14 15 15 10 11 9 9 6 4 2 3 4 7 7
11 10 9 9 10 8 10 11 10 9 9 8 10 10 9 7 6 8 6 7 13 16 14 15 10 7 13 13 14 13 13 11 10 7 6 4 2 3 6 7 8 9
11 11 11 11 11 11 11 10 9 10 9 10 10 10 9 8 6 6 8 16 16 14 17 15 12 9 12 13 14 14 9 10 6 5 4 3 4 7 10 9 9 10
12 13 12 11 11 13 12 9 9 9 10 8 11 10 11 6 6 14 17 15 15 16 15 16 13 8 11 13 14 14 10 6 5 2 2 4 4 6 8 8 9 6
13 13 13 13 14 13 10 11 11 11 11 9 9 9 9 14 14 17 15 16 15 16 14 17 14 9 10 13 13 12 9 6 6 5 4 3 4 5 6 7 8 5
11 11 11 12 14 12 11 12 11 12 10 9 7 10 14 14 15 15 16 14 15 16 15 15 15 10 10 12 12 11 10 9 7 7 6 6 7 8 9 8 8 11

ECMWFNIL_sfc_gust_039.txt.gz
Wind_Gust
11 12 15 14 12 11 11 12 10 12 13 14 14 13 14 11 9 8 6 7 7 7 6 5 4 3 4 8 7 9 8 8 6 6 7 7 6 6 8 7 6 6
10 11 13 13 12 9 9 11 10 12 12 13 13 13 12 12 9 8 8 7 7 7 6 6 5 5 3 6 6 9 7 7 5 6 7 6 6 6 5 6 6 7
9 9 12 13 14 11 9 8 10 10 11 12 11 12 13 12 10 8 8 8 7 6 6 5 5 4 4 4 6 7 8 7 6 4 5 5 4 5 3 5 7 6
9 9 9 10 12 13 10 9 7 8 7 10 10 12 14 12 11 10 9 9 9 7 6 4 4 3 4 6 5 6 7 7 7 7 6 5 5 6 5 5 5 7
9 9 8 8 9 11 10 9 9 8 8 9 10 10 13 12 11 9 10 8 9 8 7 7 4 4 2 5 4 5 5 5 5 7 7 5 5 7 5 5 2 5
7 9 8 10 8 12 11 9 9 9 7 7 11 12 12 12 12 10 10 9 8 9 8 7 6 5 4 5 4 5 5 6 5 5 5 6 5 5 5 5 3 5
6 7 7 7 8 11 10 10 8 9 10 10 8 10 12 12 11 11 11 11 10 9 10 9 8 7 5 6 6 5 6 6 6 6 5 6 7 4 3 6 5 4
13 11 5 6 8 6 7 9 9 7 7 8 10 10 11 12 12 11 10 10 10 11 11 11 10 10 7 7 7 6 6 5 8 7 6 6 7 7 5 7 5 5
16 12 11 10 10 6 7 8 8 9 9 7 3 2 4 8 11 11 10 10 10 12 11 11 13 12 11 9 8 8 7 6 8 8 8 6 8 10 8 6 6 5
14 5 10 10 9 7 5 6 8 9 10 10 7 6 6 2 3 4 6 9 11 11 12 12 12 13 13 13 12 11 10 11 9 10 8 6 9 9 9 9 9 7
8 11 6 7 4 3 4 4 7 7 6 6 4 3 6 6 7 9 9 7 4 2 6 10 12 13 14 14 14 13 13 12 11 12 10 9 8 10 9 10 9 9
6 7 7 8 8 6 4 2 2 1 1 2 2 3 5 6 4 7 6 6 5 1 6 3 5 4 5 6 9 14 13 12 13 13 11 10 8 9 7 10 10 9
7 8 8 7 7 6 3 2 2 4 5 6 6 5 5 7 8 7 4 5 3 3 7 8 5 5 10 13 12 9 10 10 12 14 12 11 9 10 7 10 9 7
9 6 6 6 5 5 4 4 5 7 7 4 2 4 5 8 9 8 9 9 8 7 7 5 4 10 7 6 8 12 10 12 13 14 13 11 9 9 10 11 9 8
9 6 6 6 6 6 6 6 7 9 7 6 7 9 5 6 8 7 9 8 6 6 8 7 7 8 10 10 11 12 10 9 11 13 14 12 10 11 10 11 10 9
7 9 10 9 8 9 10 10 10 9 9 10 13 14 10 9 9 9 7 10 11 10 9 10 10 9 10 12 12 12 13 16 10 11 11 12 13 12 10 10 10 8
4 4 5 9 10 11 10 10 10 10 10 12 13 12 10 11 12 10 10 11 15 14 10 10 9 10 12 15 15 14 12 11 12 11 8 11 12 13 12 11 9 9
2 2 4 3 3 2 2 3 3 6 9 10 9 8 10 10 14 16 16 15 14 11 8 7 6 7 7 8 9 15 11 13 16 17 13 12 12 12 11 11 10 9
5 6 6 7 6 5 5 5 6 6 6 5 3 6 5 7 12 13 12 12 11 10 9 5 9 4 6 4 5 5 6 7 9 9 11 9 10 10 10 10 10 10
5 5 6 6 6 7 7 8 7 7 6 5 6 7 4 3 5 12 12 12 13 9 6 4 2 6 3 3 4 6 9 10 8 10 8 10 8 9 9 10 9 9
5 4 4 4 4 6 5 5 6 7 7 7 7 4 4 3 5 6 10 8 8 12 10 8 5 6 8 7 8 11 14 10 10 10 13 12 10 10 9 8 7 7
3 3 4 4 4 3 3 4 4 3 4 5 4 6 6 5 4 4 6 12 12 13 13 10 6 7 10 12 13 13 13 11 11 11 12 10 10 7 6 6 5 4
1 1 1 1 2 2 2 3 5 7 8 5 5 6 6 9 7 10 8 11 12 12 15 11 7 7 11 13 13 13 11 10 9 10 9 9 8 8 3 2 3 5
4 3 3 2 2 2 2 2 2 2 3 2 2 4 9 8 9 12 11 10 12 13 14 15 8 6 11 12 13 12 9 11 9 9 7 6 5 5 6 4 4 10
5 4 3 3 3 4 3 3 3 3 3 4 7 11 9 9 11 13 11 10 8 10 11 15 11 7 10 13 12 11 11 8 9 9 8 6 6 7 8 10 12 14
4 4 5 5 5 3 3 3 3 5 7 6 8 11 11 10 11 12 12 9 9 10 10 10 12 7 7 12 12 11 9 10 8 10 9 8 7 7 7 8 12 13

ECMWFNIL_sfc_gust_042.txt.gz
Wind_Gust
12 12 14 11 10 10 12 11 10 12 12 11 12 11 12 10 6 6 6 6 6 6 4 6 6 6 6 6 6 7 7 6 6 6 7 8 7 8 10 8 8 8
11 11 11 11 9 7 8 10 11 12 12 11 11 12 9 9 7 8 8 7 6 6 4 5 6 7 6 6 5 7 5 6 5 4 7 6 5 8 8 6 6 5
10 10 13 13 13 10 10 10 11 10 12 12 10 11 12 10 10 7 9 8 8 6 5 4 5 5 6 5 5 6 6 5 4 2 5 5 5 8 5 6 6 6
11 14 14 13 12 13 11 10 10 10 7 9 10 12 13 10 10 10 8 9 9 6 6 4 5 4 6 6 6 5 5 5 4 4 3 2 3 5 5 6 5 5
10 11 11 12 12 11 10 12 11 11 13 14 10 9 10 10 10 10 11 9 9 8 6 6 4 5 5 6 6 6 3 5 3 5 6 4 2 4 3 6 5 4
7 11 11 12 12 11 12 12 11 11 13 10 15 13 12 12 12 12 12 11 9 10 8 7 7 6 6 7 5 7 6 6 6 5 6 5 3 3 5 6 6 4
10 10 10 9 11 12 13 12 12 12 13 15 11 13 13 12 11 13 13 13 13 12 11 10 8 7 6 7 6 8 7 7 6 6 7 4 4 3 2 5 6 5
7 6 8 2 7 12 12 10 9 10 11 8 14 14 15 15 14 13 12 12 13 14 13 12 11 9 8 7 9 8 8 7 9 7 7 7 4 5 4 4 5 6
12 10 8 7 6 5 5 7 9 7 7 6 9 11 11 14 15 14 14 13 12 13 14 12 12 12 10 10 10 10 10 8 8 9 9 9 8 8 7 5 5 5
7 10 8 9 8 7 9 13 14 13 11 9 4 5 7 5 5 6 5 9 11 12 12 13 13 13 13 12 13 12 10 11 10 10 10 10 11 10 7 7 8 6
7 4 5 2 3 3 14 14 10 7 4 5 5 7 5 7 4 5 8 9 12 11 10 9 11 11 12 13 11 11 13 13 13 13 11 11 11 11 10 10 9 9
6 11 10 9 8 7 6 7 9 9 12 13 12 14 7 7 8 4 6 7 7 7 8 7 8 10 11 11 9 8 8 9 10 11 12 11 10 11 11 11 11 10
6 5 5 7 6 7 4 3 4 7 9 17 16 15 8 9 8 9 8 7 6 5 7 8 8 9 11 10 9 10 10 9 8 9 10 12 11 11 11 11 11 11
9 7 6 8 7 5 5 7 9 9 10 10 10 10 10 11 9 10 9 8 8 7 6 7 6 6 6 8 10 12 12 10 10 9 8 8 8 9 10 11 12 12
7 5 6 6 6 6 6 7 7 7 6 5 5 6 8 8 8 9 8 6 4 5 6 6 8 9 10 10 11 11 10 10 10 10 10 9 8 8 8 10 10 11
6 5 6 6 5 7 8 7 7 6 5 5 7 6 6 6 7 6 6 6 6 5 5 6 8 8 9 12 10 11 9 8 6 6 9 11 11 9 8 9 12 11
3 7 4 4 6 4 4 5 7 6 4 5 6 5 6 7 5 6 7 7 8 7 7 9 9 10 12 13 12 9 6 7 7 5 6 7 9 13 14 12 9 10
6 4 2 3 3 5 5 6 5 5 5 6 6 7 7 5 6 10 9 7 6 6 8 10 9 3 4 5 8 10 8 8 8 8 9 10 11 12 12 12 12 10
3 6 6 5 5 6 6 6 6 3 2 2 4 7 3 6 10 9 11 7 7 8 9 5 3 7 5 6 8 9 9 7 7 8 9 9 7 9 11 11 10 9
2 2 3 2 1 2 4 5 6 5 5 6 4 2 1 3 5 7 8 5 4 5 2 3 4 5 4 7 9 11 10 7 3 3 4 6 6 6 6 8 9 10
3 3 4 5 3 2 3 3 3 3 3 3 3 4 4 2 1 5 6 3 3 4 5 4 4 4 6 7 8 8 10 7 8 9 11 11 11 11 10 10 11 9
1 1 3 4 4 5 3 3 4 4 4 5 4 5 4 5 6 3 2 4 5 6 6 5 4 5 9 11 14 14 13 11 11 12 11 12 12 12 9 7 8 7
4 3 3 2 1 2 2 2 2 4 4 3 7 6 6 7 5 4 3 6 6 6 8 5 4 5 9 13 14 15 12 11 10 11 10 10 10 9 9 7 5 4
1 1 1 1 2 2 2 1 2 2 4 3 5 5 6 4 5 8 6 5 6 6 5 8 4 6 7 10 12 12 11 12 11 12 10 9 9 10 11 10 10 15
4 3 3 1 2 2 2 1 1 2 3 6 7 8 7 5 5 9 7 6 5 5 7 9 6 6 8 11 12 11 10 8 10 11 11 8 10 13 13 12 12 12
7 7 5 2 2 4 4 3 3 5 7 9 6 8 9 7 7 8 9 6 4 5 6 5 8 5 6 11 12 13 12 12 8 11 10 9 9 12 13 11 11 11

ECMWFNIL_sfc_gust_045.txt.gz
Wind_Gust
14 13 14 13 12 10 10 8 6 7 6 6 8 6 8 3 2 3 5 6 6 7 5 5 5 5 5 6 6 7 6 6 6 6 8 9 7 8 10 8 7 8
13 14 13 12 11 8 7 6 6 7 7 6 6 6 4 2 1 2 4 4 4 6 5 5 5 6 5 6 6 9 6 6 6 4 9 8 6 9 8 7 6 5
11 12 14 14 15 11 10 7 6 6 7 6 5 6 7 3 2 1 2 4 4 4 4 6 6 5 5 4 5 7 8 6 6 5 8 6 6 9 5 6 7 6
12 14 15 14 13 14 10 10 7 6 3 5 8 7 6 4 4 3 3 4 4 4 4 5 6 6 6 6 5 6 6 6 5 5 7 5 6 8 5 6 6 6
17 14 13 14 13 12 11 12 11 9 8 10 5 4 5 4 4 4 4 4 3 4 3 4 4 6 6 6 5 6 4 7 4 5 6 6 2 6 5 7 7 6
12 14 13 14 13 13 13 13 13 12 9 5 8 5 5 4 5 6 7 7 6 6 5 3 3 3 5 6 4 4 5 5 4 6 6 6 4 3 5 6 6 7
14 13 13 12 12 12 13 13 11 10 11 10 5 7 7 6 5 7 7 9 8 7 7 7 6 6 5 5 6 4 4 5 5 6 7 6 6 4 3 5 5 6
8 11 13 10 10 8 5 5 5 4 3 3 8 9 9 9 9 8 6 6 6 8 8 8 8 7 6 5 6 6 5 4 6 5 5 6 4 6 5 5 7 7
8 6 7 8 7 7 7 7 8 7 7 7 4 3 2 3 7 8 10 9 8 8 8 7 9 9 6 6 7 7 8 6 7 7 7 7 7 7 7 6 6 6
12 12 12 11 12 11 11 9 8 7 8 11 8 8 4 3 6 6 7 6 9 10 10 10 9 9 7 8 9 9 9 8 7 7 7 8 9 8 6 7 8 6
6 5 9 9 8 7 6 6 5 4 6 9 11 9 7 4 4 3 6 11 15 13 11 10 10 9 7 7 7 7 8 9 8 9 9 8 9 9 9 9 9 9
4 3 3 6 6 4 5 7 5 4 4 4 6 7 7 7 6 3 8 12 12 12 10 13 11 8 7 8 8 6 6 7 8 9 9 9 8 8 9 9 10 9
5 4 2 3 3 3 7 6 5 3 3 4 4 5 7 8 6 6 4 10 15 14 15 17 15 10 9 9 9 7 8 8 8 8 7 8 8 9 9 10 10 9
8 9 6 7 4 5 5 12 11 7 7 7 6 7 7 8 10 10 12 12 10 11 13 15 16 11 8 10 10 10 8 9 9 9 9 8 7 8 8 10 11 11
13 14 11 12 10 11 13 13 14 17 13 9 7 6 7 10 11 9 6 10 16 15 13 13 12 10 9 9 10 10 11 12 12 12 12 11 9 8 7 8 8 10
11 9 10 13 14 13 13 11 11 10 9 9 9 8 12 15 14 12 16 19 17 15 12 11 9 8 9 12 10 10 10 10 9 9 9 10 10 8 6 7 9 10
14 14 15 15 15 14 13 12 11 8 6 7 9 12 14 14 13 13 15 16 15 15 12 9 8 5 6 5 6 8 6 4 6 7 5 6 7 8 10 10 9 9
5 4 3 1 1 2 3 3 3 5 6 5 5 7 9 10 12 13 12 11 8 5 6 5 4 5 6 7 11 14 9 8 7 6 9 6 6 7 6 7 8 8
6 7 6 6 3 3 3 4 5 5 3 3 2 2 1 2 5 3 5 5 6 7 5 3 4 3 5 6 10 12 11 9 5 6 7 7 7 7 8 8 7 8
4 4 3 3 3 4 4 4 4 3 3 3 3 4 3 1 2 3 2 2 5 6 4 2 1 5 7 9 9 9 7 7 4 6 5 4 4 3 3 5 6 8
4 5 5 5 5 4 3 4 3 2 2 2 2 1 1 1 2 3 2 3 2 3 5 2 2 6 7 8 9 6 4 4 4 5 6 4 4 4 5 8 8 9
6 7 7 6 5 5 6 4 3 3 5 3 4 3 3 4 5 7 5 5 4 5 5 2 3 7 4 5 5 6 7 6 6 8 8 7 7 6 6 6 7 9
3 6 6 5 5 5 6 5 5 4 2 2 6 5 5 7 5 5 4 4 4 3 5 3 4 7 4 3 9 10 8 8 8 10 9 10 8 8 8 8 8 10
3 4 4 2 3 2 2 1 1 1 2 2 4 4 6 5 4 6 6 5 4 3 2 5 3 6 5 4 5 6 8 10 9 11 9 10 10 9 10 11 13 16
3 4 4 2 1 1 2 2 3 4 3 6 8 7 6 4 5 7 6 6 5 4 6 6 4 5 5 5 7 8 8 7 10 10 11 7 10 11 10 10 11 12
6 7 6 6 5 3 3 5 4 5 5 8 6 7 7 5 4 5 5 5 5 5 5 3 5 4 5 7 8 8 9 12 9 13 10 9 8 9 11 9 10 11

ECMWFNIL_sfc_gust_048.txt.gz
Wind_Gust
9 9 12 10 9 9 11 9 5 8 5 6 8 5 7 3 3 5 5 6 5 7 6 5 6 6 6 6 6 8 8 8 7 6 9 10 8 8 10 9 9 10
9 7 7 7 8 7 7 8 7 9 7 6 5 6 2 4 3 5 5 6 6 6 5 3 3 5 5 6 6 9 7 8 8 4 11 10 8 10 9 8 8 6
7 8 9 10 10 8 8 7 7 7 8 6 5 4 4 3 5 4 5 5 7 6 5 3 4 3 4 4 4 6 8 8 8 6 9 9 8 10 7 8 8 8
5 7 9 8 9 10 9 9 6 6 6 7 5 5 6 3 4 4 3 5 5 5 5 3 3 3 3 4 4 6 5 7 6 7 9 6 6 9 7 8 8 8
9 7 6 6 6 8 8 9 9 8 8 7 6 5 6 5 5 5 5 4 4 3 3 3 3 3 3 4 3 5 3 6 4 6 9 7 3 6 4 7 8 8
8 7 6 6 6 9 9 8 8 9 7 6 8 7 5 5 5 5 5 5 3 3 2 1 2 2 4 5 4 4 5 5 3 5 6 6 3 3 6 7 8 8
11 9 7 7 6 3 6 6 6 6 6 3 5 4 4 4 5 5 4 4 3 3 3 3 2 1 1 4 4 4 2 3 5 5 7 3 5 3 3 5 8 8
8 8 9 8 7 4 2 3 4 5 5 4 4 5 6 5 4 4 4 2 1 2 2 2 1 2 2 3 5 5 4 4 6 7 6 6 4 5 4 4 7 8
10 9 8 8 8 6 4 5 5 5 6 7 7 6 6 6 7 7 4 3 1 1 2 3 4 3 2 3 5 5 6 6 6 7 8 9 8 8 8 6 6 6
9 8 10 10 10 8 5 2 3 5 6 8 8 8 8 5 6 7 7 5 4 1 1 3 5 4 4 4 5 5 7 6 6 8 8 8 9 10 10 10 9 8
7 7 7 9 9 8 8 7 6 6 6 10 10 9 7 8 7 7 8 7 5 4 3 4 5 5 4 3 4 6 8 8 8 8 9 10 10 9 9 10 10 10
9 8 8 8 8 7 7 7 7 7 6 3 5 7 5 5 6 5 7 8 7 7 7 8 7 6 5 5 5 5 8 9 9 9 9 9 8 9 9 9 11 11
11 10 11 11 10 10 8 5 4 5 7 7 5 8 8 7 6 7 4 5 7 6 5 5 8 8 8 8 7 7 9 10 10 11 12 9 9 9 9 9 8 9
9 9 9 9 8 7 10 9 7 3 3 4 5 6 5 4 3 4 5 3 2 4 7 7 6 6 6 9 9 8 10 12 13 12 12 11 8 9 9 11 12 10
8 6 6 10 9 7 7 8 8 6 5 5 5 5 6 6 6 6 5 3 3 4 5 4 4 5 5 5 6 7 7 12 12 11 12 11 9 9 9 10 11 11
7 5 7 7 7 7 8 9 10 11 11 7 5 4 5 5 4 4 4 5 6 5 4 4 7 4 3 2 6 11 9 8 9 11 10 9 9 8 8 8 10 11
6 8 9 8 7 8 6 4 7 8 6 3 2 4 5 4 2 6 7 6 6 6 7 6 6 7 4 7 12 8 6 9 8 8 7 7 7 8 9 9 8 7
6 6 6 5 5 3 1 2 3 5 5 4 4 5 6 5 6 8 7 6 5 5 6 7 4 4 5 9 11 8 7 8 6 7 6 6 6 7 8 7 7 6
5 6 6 5 4 3 3 4 5 5 5 3 7 8 5 4 7 6 8 7 6 5 7 7 6 2 5 6 5 2 5 6 7 6 6 6 6 6 6 6 6 6
7 9 9 8 8 8 9 9 9 8 7 6 7 7 8 7 6 5 7 6 5 5 5 5 5 5 7 7 7 5 2 3 4 3 2 3 4 5 6 6 6 7
7 6 7 6 6 7 8 8 8 7 7 5 7 6 7 9 7 5 4 5 5 4 3 2 4 8 9 9 7 4 2 3 6 7 7 7 8 8 6 3 6 7
7 6 5 5 6 6 7 7 5 5 6 4 7 8 8 9 9 8 6 6 6 4 4 4 7 9 9 8 4 4 6 7 8 9 9 9 10 9 9 9 8 10
7 8 7 7 7 8 8 7 8 6 5 4 10 7 8 8 7 5 3 4 3 3 4 1 4 8 7 5 4 8 7 8 9 10 10 11 11 10 10 10 9 10
4 8 8 7 7 9 8 6 6 5 6 5 11 9 8 5 6 8 6 4 4 2 2 4 1 5 4 5 5 5 7 10 9 11 10 10 10 10 10 10 10 13
1 4 6 6 7 5 6 7 6 7 6 7 8 9 8 6 5 9 6 6 4 2 5 5 4 5 5 4 6 8 9 9 11 11 11 8 9 10 9 10 10 10
5 5 6 7 7 6 5 8 9 8 7 8 6 8 10 7 6 7 8 5 5 5 5 5 5 5 5 4 7 8 7 9 11 14 11 8 7 9 11 9 9 10

ECMWFNIL_sfc_gust_054.txt.gz
Wind_Gust
16 16 17 16 16 17 17 16 16 15 16 16 16 15 15 14 12 12 12 13 13 14 14 13 13 12 13 13 12 14 15 12 13 13 12 12 13 12 13 13 12 12
14 15 15 15 15 16 16 16 16 17 16 15 16 15 15 14 12 12 12 12 13 13 13 13 13 13 12 14 13 13 14 12 12 13 12 11 11 12 12 11 11 11
13 14 15 15 15 16 16 16 16 16 17 16 16 15 16 14 13 12 12 11 12 12 12 12 13 13 13 13 12 13 14 12 12 12 12 13 12 12 11 11 12 12
14 15 15 15 16 17 16 17 16 16 16 18 16 16 16 14 14 14 13 12 13 12 12 11 11 12 13 14 12 14 13 13 13 11 11 11 11 12 11 11 11 12
15 16 16 17 17 17 16 17 17 17 17 16 16 16 17 16 15 15 14 13 13 13 13 13 12 12 11 12 12 13 12 13 11 10 11 11 10 10 10 10 11 11
13 15 16 17 18 18 17 17 17 17 17 16 17 17 16 16 16 15 15 14 14 15 15 15 14 13 11 11 10 11 11 12 11 10 12 11 11 9 10 10 10 11
15 15 14 15 16 18 16 15 15 15 16 16 17 16 16 16 15 16 16 16 16 16 16 16 15 14 13 12 11 11 11 11 10 10 11 11 10 10 9 8 9 10
15 14 15 15 16 17 16 16 15 15 14 15 16 16 16 16 16 15 15 16 16 16 16 16 16 16 14 13 13 13 12 10 10 10 9 10 8 9 10 8 7 8
14 13 14 15 16 16 17 17 16 15 15 15 16 16 16 16 16 16 16 16 15 15 15 15 15 15 14 14 13 13 14 12 11 10 10 10 9 9 10 10 9 8
13 13 13 14 15 16 17 16 17 16 16 15 16 16 18 16 16 17 16 15 14 14 15 14 14 13 14 14 14 13 13 13 13 11 12 11 10 10 10 10 9 9
13 14 14 15 16 15 17 18 17 17 16 17 15 16 16 17 18 17 16 16 15 15 15 14 14 13 13 12 11 10 10 10 11 12 12 13 13 13 8 12 12 12
13 13 15 16 16 16 17 18 18 17 17 16 17 17 16 17 17 17 17 17 16 15 13 13 12 11 12 13 13 13 12 12 12 13 13 13 14 15 16 15 14 15
14 14 14 14 15 16 18 19 19 17 17 17 16 15 15 18 17 17 16 16 16 14 14 13 12 12 11 10 11 13 14 15 14 14 14 13 13 14 15 16 16 16
14 14 15 15 15 16 18 18 18 18 16 15 14 14 15 18 17 17 15 16 14 14 13 13 13 14 13 13 14 13 13 14 14 14 14 14 14 14 14 14 15 15
12 12 13 14 15 16 16 17 18 18 17 15 14 14 15 16 16 15 15 15 15 13 14 12 11 11 11 12 13 15 14 14 13 13 13 13 13 13 13 14 15 15
12 11 12 13 14 15 15 15 16 16 16 15 16 16 15 14 15 14 14 14 14 13 13 12 11 11 11 9 9 12 11 10 10 10 11 10 11 11 12 12 13 13
12 12 12 13 13 13 13 14 15 13 14 14 14 13 13 12 11 12 12 11 12 12 13 11 11 13 8 5 3 5 10 9 9 9 9 8 9 9 10 10 11 11
12 12 12 13 12 13 14 15 15 15 14 12 9 9 11 11 11 11 11 11 11 12 11 11 12 7 5 4 4 3 7 11 8 8 9 8 9 9 9 10 10 10
11 12 12 13 12 11 11 11 14 14 15 14 11 10 10 12 10 11 11 11 12 13 13 12 12 4 2 4 5 5 5 10 10 8 8 8 9 8 10 10 10 9
10 10 11 12 12 12 12 12 12 11 11 10 11 10 13 13 12 12 13 13 12 12 13 14 14 6 3 5 5 5 5 8 11 8 8 10 10 10 8 10 10 11
12 12 12 12 12 12 11 12 12 14 15 14 14 16 18 16 14 13 12 12 12 11 13 13 14 6 2 3 5 5 6 8 10 9 10 11 11 11 10 10 10 9
13 13 13 13 14 14 14 14 13 13 15 14 14 14 13 12 13 13 12 12 11 11 12 13 12 7 4 3 4 6 9 11 10 10 11 11 12 12 11 12 12 11
14 14 14 12 12 13 14 14 13 14 14 14 14 14 14 13 13 12 13 13 12 11 11 13 12 7 3 5 7 8 10 10 10 11 12 13 12 12 13 15 15 14
16 15 13 12 11 11 12 11 11 11 11 10 12 12 13 13 13 13 12 11 11 11 9 10 13 8 3 4 5 7 11 11 10 12 12 13 13 13 14 16 18 18
14 17 18 17 15 13 12 12 11 11 11 11 11 11 12 13 13 14 12 11 11 11 3 7 13 10 4 3 4 5 11 10 9 12 11 12 13 14 13 15 17 15
10 11 12 14 15 14 13 11 11 11 13 12 11 12 14 12 12 12 12 11 11 11 10 8 11 13 10 2 3 4 8 15 9 10 10 10 10 13 13 14 16 17

ECMWFNIL_sfc_gust_057.txt.gz
Wind_Gust
16 14 13 15 16 17 16 17 17 17 17 17 17 17 16 14 14 14 13 14 14 14 14 14 13 13 14 13 13 15 15 13 14 14 14 14 14 13 15 14 12 12
16 14 12 12 14 15 16 16 17 18 18 16 17 17 16 15 14 14 14 14 14 14 14 14 13 13 13 14 13 13 14 13 13 13 12 12 12 13 13 12 12 11
16 16 13 12 13 14 16 16 16 17 18 17 17 17 17 15 14 14 13 13 14 14 13 13 13 13 13 13 12 13 14 13 13 13 13 14 12 12 12 11 11 11
17 15 14 13 13 15 16 18 17 18 18 19 17 17 17 15 15 14 13 12 13 13 13 12 12 12 13 13 11 13 12 12 13 11 11 11 12 13 12 12 13 13
16 17 15 15 14 15 15 17 18 19 19 18 18 17 18 16 16 15 14 13 12 12 13 13 12 13 12 12 12 12 11 12 10 10 11 11 11 10 10 10 10 11
16 17 14 15 15 15 17 18 19 20 19 18 18 18 17 17 17 16 15 14 13 13 13 13 13 12 12 12 11 11 11 12 11 9 11 10 10 8 11 10 9 10
16 15 15 14 15 16 16 17 17 19 20 19 19 17 18 17 17 17 17 15 15 15 15 14 13 12 12 11 11 11 11 11 10 10 11 11 10 9 8 8 8 10
16 15 17 18 17 18 16 18 18 18 18 20 18 18 18 19 19 17 16 16 16 16 15 15 14 13 12 11 12 12 11 10 9 10 9 10 7 9 9 8 7 6
13 14 17 18 20 18 17 18 18 17 19 19 19 19 18 18 18 17 18 17 17 16 16 15 15 14 12 11 12 13 13 11 10 10 10 10 9 9 11 12 8 7
13 14 17 18 20 18 18 17 18 17 17 19 20 19 20 17 17 18 18 17 17 16 16 15 15 14 13 13 14 13 13 13 12 11 11 11 11 11 10 11 9 8
15 17 18 18 18 17 17 17 17 17 16 18 17 18 18 17 17 17 16 17 16 17 17 15 15 14 14 13 12 11 11 11 12 12 11 11 11 11 7 10 11 11
18 17 17 17 16 16 16 16 17 16 17 16 17 18 17 17 17 17 16 17 17 16 15 15 14 14 13 13 13 13 12 11 11 12 13 13 13 13 13 12 12 13
20 19 18 17 17 16 17 19 19 17 18 17 17 17 18 18 17 17 15 16 17 16 14 14 13 14 13 12 13 13 14 14 14 15 15 14 12 13 13 13 13 13
18 18 17 17 18 18 19 19 18 17 17 16 17 18 18 19 19 19 14 17 15 20 14 14 12 12 14 13 13 12 13 15 17 14 15 15 13 12 12 12 12 13
20 21 19 18 17 17 18 18 18 18 17 17 15 15 15 18 17 17 19 21 19 15 14 11 12 14 20 15 11 14 14 16 14 15 13 12 12 12 11 11 11 11
22 20 17 15 15 15 16 16 17 17 16 15 15 15 13 16 23 23 18 15 15 12 12 11 13 14 9 11 9 13 15 22 18 10 12 11 10 9 10 10 11 10
14 13 14 13 11 12 14 12 13 16 12 11 14 13 11 13 14 14 20 19 16 12 13 14 14 12 9 10 10 10 11 12 11 9 10 8 9 9 8 10 11 11
14 14 14 14 16 14 14 15 15 15 17 15 14 12 13 12 13 15 16 12 15 14 13 14 12 7 9 7 8 9 6 11 10 8 8 7 8 8 9 9 9 9
14 15 16 15 15 15 12 14 13 15 15 13 12 12 12 13 13 14 16 13 13 13 13 11 14 7 8 5 6 9 8 9 11 6 6 10 8 10 11 10 8 6
15 15 14 15 17 19 18 16 14 13 13 12 12 12 11 12 12 13 13 14 15 14 16 13 13 9 4 3 5 6 8 8 11 7 8 9 9 8 8 9 8 9
16 15 15 14 14 13 14 15 13 13 13 14 13 14 13 13 13 14 14 16 21 19 15 15 13 5 5 6 5 6 8 8 8 6 7 9 8 8 8 8 8 7
16 16 16 15 14 14 15 15 15 15 17 16 16 15 15 14 13 14 12 11 11 13 15 15 12 5 4 4 4 6 7 14 9 7 7 9 9 9 9 11 11 10
15 15 15 16 16 16 16 15 15 16 16 17 16 15 15 15 14 13 13 13 12 13 13 13 13 7 4 3 4 5 7 13 7 9 10 8 9 10 12 15 16 18
13 14 14 13 13 15 16 15 15 15 14 14 15 14 14 13 13 13 12 12 11 12 12 13 13 9 4 2 4 5 7 13 11 8 9 9 9 10 14 15 18 20
8 10 9 11 11 13 12 14 13 13 13 11 12 13 14 13 13 14 12 11 10 11 6 9 14 9 3 2 4 7 10 13 13 10 10 8 8 11 10 13 15 15
9 9 10 9 11 11 11 12 11 11 11 11 11 13 14 15 13 13 11 11 12 11 11 10 13 13 10 3 4 6 6 14 16 9 11 10 11 10 13 14 13 15

ECMWFNIL_sfc_gust_060.txt.gz
Wind_Gust
11 9 11 10 10 9 9 9 9 9 9 9 10 9 9 9 10 8 8 7 7 7 6 6 5 6 8 8 8 11 10 8 9 7 9 9 9 9 10 8 7 7
11 9 11 9 9 8 8 9 9 9 9 9 10 10 9 9 8 8 8 8 8 7 6 5 6 6 7 8 7 8 8 7 8 11 8 8 8 8 7 6 6 7
9 10 10 10 10 9 9 8 8 9 9 10 11 10 11 9 9 9 7 7 8 7 6 6 7 6 6 6 7 7 8 7 7 7 7 8 7 8 6 6 8 8
10 9 9 10 10 10 10 10 10 10 9 11 11 12 12 10 9 9 8 9 7 7 6 5 5 5 8 6 5 6 7 7 6 6 7 6 7 8 7 5 6 8
6 6 7 9 11 11 10 12 11 11 11 10 11 11 12 10 10 10 9 8 8 8 6 6 5 5 4 5 6 5 5 5 4 6 7 6 5 6 7 6 5 6
9 7 7 8 10 12 13 12 13 13 13 11 12 12 11 12 11 12 10 9 9 9 8 7 7 4 5 5 4 4 5 6 4 6 7 5 4 4 9 6 7 8
10 9 11 8 11 13 13 13 12 13 13 12 13 10 12 12 12 12 13 11 11 11 11 8 6 5 4 3 4 3 6 4 5 5 8 8 4 3 4 5 7 7
11 6 12 17 8 13 12 14 12 12 12 13 11 12 13 14 15 11 11 11 11 12 10 10 9 9 6 4 4 5 4 3 3 2 6 6 2 6 5 5 4 8
14 14 14 15 9 12 13 15 12 11 13 12 12 12 12 13 13 12 13 13 13 11 12 11 10 9 5 4 5 5 7 4 2 3 5 4 3 3 7 7 3 4
12 11 17 18 11 9 12 11 12 12 13 13 14 13 15 12 13 14 13 11 12 13 12 12 12 9 8 7 9 7 7 7 5 3 3 2 2 5 7 7 3 3
13 14 20 18 15 9 8 12 12 13 13 17 14 14 14 12 13 13 13 14 12 14 14 12 12 11 8 7 6 7 6 5 5 5 4 4 5 7 7 4 3 2
15 19 11 15 13 8 9 12 14 13 14 14 15 16 13 12 11 12 12 14 14 13 12 12 12 11 9 6 5 5 5 5 9 18 17 18 22 21 20 25 12 4
21 20 24 21 15 10 13 15 16 13 14 12 10 10 11 10 10 10 8 10 12 10 11 8 12 13 10 8 11 10 14 15 20 20 18 21 20 21 23 23 25 23
12 15 17 12 11 10 15 22 15 11 10 6 6 6 9 11 11 10 8 8 9 15 22 19 12 11 11 8 10 13 16 15 11 9 8 8 6 6 8 14 19 21
7 8 11 13 10 12 12 20 21 18 10 9 6 7 8 12 11 8 6 13 16 21 21 17 15 18 15 11 8 12 12 11 10 9 7 4 6 8 7 8 10 19
6 6 8 10 14 14 16 17 14 15 15 11 6 6 6 12 15 13 11 12 16 17 17 13 15 13 14 14 10 8 7 9 7 7 7 8 7 5 4 6 8 10
6 8 8 10 12 10 13 12 12 9 8 6 5 8 8 8 11 14 13 14 18 14 11 7 8 10 8 7 8 9 6 6 5 5 7 9 9 8 8 8 12 12
10 10 10 9 13 10 11 14 11 9 9 6 5 9 9 10 12 13 14 13 13 11 8 7 8 9 8 9 9 9 8 5 3 7 9 7 10 14 15 11 10 9
12 12 10 12 14 13 11 14 12 11 10 9 4 6 9 13 12 15 12 13 13 12 9 8 7 4 4 7 7 6 7 6 7 6 9 6 6 6 5 4 6 10
13 9 12 13 15 15 14 14 14 12 9 8 5 5 6 14 16 9 7 12 12 11 9 8 8 5 4 5 5 6 6 4 8 3 6 8 8 8 8 8 7 6
16 15 12 11 14 17 14 12 12 11 11 9 8 7 8 10 15 13 9 11 11 10 10 10 8 5 4 4 4 5 6 6 5 5 8 8 7 7 11 13 10 10
18 15 15 14 14 14 11 11 12 11 10 8 8 7 9 9 9 12 16 15 13 14 12 9 7 4 4 3 3 3 6 7 4 5 8 9 13 16 15 15 13 11
12 14 12 12 12 13 12 12 11 12 9 10 11 11 11 11 9 10 15 18 17 13 11 11 9 6 5 5 4 4 3 5 6 5 12 10 13 13 14 14 12 12
8 9 14 14 12 12 11 11 11 11 13 12 12 11 12 12 11 11 11 15 15 14 14 12 10 7 7 7 6 6 3 5 7 9 10 12 12 11 12 13 14 19
15 15 12 9 13 12 10 9 8 9 11 10 10 9 9 11 9 11 10 10 10 12 12 13 12 7 6 6 6 5 6 5 7 8 10 11 14 14 12 12 12 12
7 8 7 10 7 6 6 5 6 8 6 7 9 10 12 10 9 13 12 11 10 9 10 11 12 10 10 6 7 7 5 6 6 4 6 5 14 15 14 12 13 11

ECMWFNIL_sfc_gust_063.txt.gz
Wind_Gust
11 12 13 13 13 12 13 15 14 15 13 12 12 9 11 10 11 11 10 10 10 11 10 11 11 12 13 12 10 10 9 9 9 8 8 10 10 10 12 11 9 9
9 10 10 11 11 10 11 14 13 14 13 12 11 11 10 11 9 10 9 10 9 8 7 9 9 10 10 8 7 9 7 7 7 5 8 8 8 10 10 8 7 6
8 8 8 9 11 10 13 12 12 13 14 12 12 11 11 9 11 9 9 8 8 8 10 10 10 10 10 10 9 10 10 8 8 6 8 7 8 10 7 7 7 7
8 9 8 7 8 11 11 12 12 12 13 14 12 12 12 10 10 8 7 8 9 11 11 10 10 10 10 9 8 8 7 8 8 7 7 6 6 7 6 6 7 8
9 8 8 7 8 9 10 12 12 13 14 13 12 11 12 10 9 9 8 7 7 7 7 9 9 9 10 10 8 8 6 8 6 7 7 5 4 7 6 9 8 8
10 8 6 10 8 10 11 11 11 13 13 11 12 10 10 9 10 9 8 7 7 8 8 8 9 10 11 9 8 8 8 9 8 7 7 6 4 3 7 7 7 7
10 9 8 7 10 10 11 10 11 12 12 11 10 9 9 9 10 10 8 7 7 8 8 7 7 8 7 7 8 7 7 7 6 7 8 5 5 6 6 6 6 7
9 9 7 8 8 9 9 10 11 12 11 11 10 8 8 9 9 8 7 7 7 8 8 7 7 7 6 9 9 7 4 4 8 8 6 5 5 6 7 10 7 8
11 10 10 9 8 6 8 8 10 10 12 12 10 8 7 8 8 9 8 7 7 7 9 7 7 6 6 9 8 7 6 7 7 7 6 8 6 5 7 7 8 7
9 9 9 10 11 11 6 6 8 10 11 11 8 8 8 6 8 8 9 8 8 7 7 7 7 6 7 9 9 7 9 12 13 12 11 10 11 12 9 9 7 7
7 7 6 7 8 11 13 9 6 8 8 10 8 8 6 7 7 7 7 8 9 8 8 8 9 8 8 10 13 14 14 11 8 9 8 7 9 8 7 7 9 13
8 6 5 9 11 14 13 16 13 5 6 6 9 8 6 6 10 7 8 7 8 5 7 10 11 14 12 9 11 10 12 11 8 8 5 5 5 7 6 5 7 9
8 7 8 13 15 17 15 14 12 11 4 5 7 9 7 6 7 8 5 8 11 15 12 11 13 15 16 15 14 11 9 8 8 6 5 5 4 7 7 6 6 6
9 8 10 10 10 12 11 5 2 3 2 5 6 9 9 6 9 11 13 14 9 11 12 12 12 13 11 14 15 14 11 4 7 7 5 4 5 5 6 6 5 5
11 11 10 12 11 7 11 6 8 8 7 8 5 5 10 6 8 15 14 15 11 10 9 10 12 11 9 9 12 11 8 5 6 5 6 6 6 6 5 6 5 5
13 16 15 12 11 10 13 17 18 11 8 12 10 5 7 10 13 12 13 13 12 10 10 9 10 8 8 11 6 9 8 6 6 7 6 6 6 6 6 5 6 3
11 13 14 12 12 12 11 11 10 11 10 10 3 3 7 11 15 14 12 11 12 13 12 9 9 8 7 10 7 5 9 9 8 6 6 6 5 6 6 5 4 5
14 15 18 17 14 14 16 14 10 10 11 5 4 8 8 10 13 12 11 11 12 12 12 10 8 6 10 9 8 7 5 9 8 8 7 6 5 5 5 6 6 7
12 11 13 14 12 8 4 6 8 8 9 7 6 7 9 10 9 11 10 10 13 13 12 11 8 4 9 10 9 7 4 2 7 7 7 5 5 4 5 6 6 8
13 13 13 13 11 12 11 7 6 6 5 3 7 8 9 8 7 9 7 7 7 11 11 10 10 6 7 9 8 8 5 3 1 4 7 8 8 8 8 8 7 9
13 14 14 13 14 13 12 10 9 7 4 5 6 9 10 11 11 6 6 6 8 9 11 10 9 7 7 8 8 7 4 2 4 12 12 12 10 9 10 10 11 14
9 11 12 11 12 11 10 10 9 8 8 10 7 9 12 14 14 8 9 8 8 10 10 9 7 5 4 6 6 6 4 5 6 14 14 11 10 9 10 10 12 13
6 6 8 10 10 10 8 6 9 8 7 10 11 11 12 12 12 10 9 9 8 8 10 9 7 5 4 5 5 4 3 4 9 12 14 11 9 8 10 10 11 11
6 7 7 9 11 9 10 10 9 9 9 10 11 12 11 12 12 11 9 9 10 9 11 12 8 7 8 5 5 4 3 7 12 14 12 13 10 7 8 8 9 14
9 14 11 9 10 8 8 9 7 8 6 5 6 7 9 7 10 12 10 8 7 9 9 11 9 6 6 5 5 5 5 4 10 13 14 11 13 10 7 8 8 9
14 13 6 10 10 4 8 9 9 7 6 6 7 8 9 8 9 12 11 8 8 10 10 10 10 6 7 7 6 6 4 6 9 13 14 14 13 14 11 6 7 8

ECMWFNIL_sfc_gust_066.txt.gz
Wind_Gust
12 10 12 12 11 10 11 12 9 11 9 9 11 8 11 7 7 9 7 9 10 11 10 10 9 8 9 8 8 8 7 7 7 7 10 10 8 9 12 10 9 9
11 11 11 10 10 8 9 11 10 12 9 8 9 9 7 8 7 9 8 9 10 11 9 9 8 8 8 9 7 8 7 8 8 6 11 10 7 10 9 7 6 6
10 11 12 11 12 10 11 10 11 10 10 8 9 9 9 8 8 7 7 8 10 10 9 9 9 7 8 7 6 7 8 8 9 7 10 8 7 10 5 6 9 8
11 12 12 11 12 12 11 12 9 10 9 11 9 9 10 7 8 7 6 8 10 9 9 9 9 8 8 8 8 7 6 6 4 6 8 7 7 8 7 8 8 10
11 11 10 11 11 12 11 13 12 11 11 11 8 8 10 8 7 6 6 7 9 9 9 9 7 8 8 8 7 8 6 7 4 7 9 7 5 8 6 10 9 9
6 10 11 12 12 13 13 14 13 12 12 10 10 9 9 7 7 6 7 8 7 9 9 8 8 7 7 7 8 7 6 7 3 6 7 7 5 5 7 8 9 9
11 11 12 14 13 14 15 14 13 13 13 12 10 8 7 7 7 6 6 6 6 7 9 9 9 7 6 7 7 6 5 5 3 6 6 3 6 5 5 7 7 7
12 11 13 14 15 15 16 16 15 14 12 12 12 9 8 8 7 6 5 6 6 6 7 8 8 7 6 7 8 7 6 5 4 5 6 4 5 5 5 5 5 7
12 12 11 10 12 13 15 15 15 13 13 14 12 11 9 9 7 7 6 6 6 6 6 7 8 8 7 9 8 9 9 7 6 6 7 6 7 5 5 4 7 6
14 13 13 13 14 10 12 12 13 12 11 12 11 11 11 7 6 7 6 6 6 6 6 5 6 7 7 8 11 12 13 11 9 9 9 8 7 6 5 6 6 6
15 16 17 14 11 10 8 9 13 14 12 13 11 10 9 9 6 5 6 7 9 8 7 6 5 7 8 9 10 10 12 11 9 8 7 6 7 8 7 6 5 6
11 12 13 14 10 8 9 8 9 9 12 12 13 12 7 7 8 7 8 8 8 6 6 7 8 9 9 8 7 7 8 9 9 8 7 7 5 6 6 5 5 4
11 12 10 13 11 8 10 11 10 9 9 12 13 13 10 8 7 8 6 8 7 10 11 11 11 11 11 10 9 9 8 9 9 9 7 7 5 6 6 5 5 5
12 12 13 13 11 7 8 9 10 9 7 5 8 11 10 9 9 8 7 9 11 12 11 12 11 10 10 9 8 8 8 7 7 8 8 6 4 3 2 4 4 4
10 7 7 9 12 9 7 8 10 9 5 4 7 10 10 9 10 10 11 9 8 11 10 9 12 12 11 12 11 8 9 10 8 7 8 8 6 4 4 4 3 5
9 9 9 8 11 12 10 8 9 10 8 7 5 4 8 11 12 10 12 13 11 8 8 9 9 9 8 10 9 12 9 8 8 7 7 7 7 6 5 5 6 6
12 11 10 10 9 10 10 10 11 11 10 8 7 7 10 11 14 13 13 15 15 13 10 8 8 8 9 10 11 12 11 8 9 8 6 7 8 9 9 9 5 8
10 10 10 9 8 9 9 8 6 8 9 8 7 7 8 8 10 14 14 13 12 12 12 11 9 5 7 8 10 10 9 10 7 7 8 8 7 7 6 7 9 10
4 7 9 9 9 7 6 7 9 7 7 8 9 9 9 10 10 11 13 11 14 13 10 8 8 6 7 6 7 8 8 7 7 6 8 7 7 8 7 7 8 10
3 6 7 6 3 3 3 4 4 7 6 7 9 9 11 11 10 9 9 10 12 14 13 11 11 9 10 9 9 9 9 7 7 8 8 9 10 10 9 9 10 12
2 2 5 7 7 4 3 2 3 4 3 5 11 12 14 14 14 12 11 11 11 12 13 12 11 9 9 9 9 9 8 7 9 10 10 7 6 8 11 11 10 11
4 3 3 4 5 6 5 4 2 4 4 4 6 7 5 5 6 9 11 9 8 9 10 12 8 9 9 9 8 8 10 11 12 13 10 9 8 9 11 12 11 12
5 4 2 3 3 3 4 7 6 4 2 5 9 10 11 9 8 10 11 13 12 10 10 10 9 8 8 9 9 11 9 11 12 12 12 11 9 8 11 11 11 11
2 7 5 2 1 2 3 3 5 4 3 7 7 9 13 13 8 8 7 9 12 11 11 12 9 7 7 5 7 12 9 13 12 14 11 13 9 7 9 9 9 12
7 6 5 5 4 2 3 3 6 9 7 9 11 11 11 6 3 7 7 5 6 8 8 10 10 8 8 7 8 9 8 10 12 13 14 10 13 10 7 9 7 6
15 16 14 7 3 3 2 4 3 3 8 10 10 10 9 8 7 8 9 7 7 8 9 9 10 8 9 8 7 6 6 11 12 15 14 12 11 14 12 6 6 7

ECMWFNIL_sfc_gust_069.txt.gz
Wind_Gust
12 11 13 12 11 11 12 11 8 11 8 8 10 6 8 4 5 8 8 8 7 7 5 6 6 6 6 6 6 8 7 8 8 6 9 10 8 7 9 6 5 8
10 11 10 10 10 8 8 10 10 12 9 6 8 7 4 6 3 8 9 8 6 6 5 6 5 6 6 7 6 10 7 8 8 4 11 9 6 9 8 5 6 5
11 11 12 12 14 10 9 6 8 9 10 7 6 7 7 5 7 6 8 9 8 6 6 5 5 5 6 6 6 7 9 8 9 5 10 8 6 11 5 6 7 5
11 13 13 11 12 12 10 12 8 9 8 9 7 6 7 5 7 7 6 7 8 6 5 5 6 5 5 5 6 8 7 8 4 6 9 7 7 8 6 7 8 8
12 11 11 12 11 12 12 13 11 10 10 9 7 6 8 7 7 6 6 5 6 5 5 5 5 5 4 5 5 8 6 8 4 7 10 8 5 7 4 8 10 9
8 10 11 13 14 14 13 12 12 11 10 8 10 7 7 7 7 6 6 6 4 6 5 4 5 3 3 3 5 5 5 8 4 8 9 7 6 6 6 8 10 11
9 9 10 10 12 13 14 12 11 11 12 11 8 8 9 8 7 7 6 6 6 5 6 5 5 3 2 4 4 4 6 5 4 7 8 5 7 7 6 8 10 9
8 7 11 11 12 10 11 11 10 10 9 7 9 8 8 9 9 7 6 6 6 5 5 4 4 4 3 4 5 5 4 3 4 6 6 6 7 7 6 7 7 9
9 10 10 12 14 12 12 12 11 9 8 10 7 7 5 8 8 8 8 7 6 6 4 4 5 4 2 4 4 5 4 2 2 5 6 6 7 6 6 5 8 7
4 8 11 11 13 12 12 9 10 9 8 9 9 8 9 6 8 8 8 7 7 5 6 5 4 3 2 2 6 6 5 5 3 3 4 5 6 5 5 7 7 7
10 7 9 8 7 8 10 10 11 11 9 10 10 11 10 9 7 9 9 10 9 8 7 5 5 6 5 4 4 5 6 6 4 3 4 5 5 5 7 7 6 6
10 8 9 10 10 9 9 9 10 9 10 7 10 11 10 10 11 8 10 10 8 6 6 7 8 8 8 8 7 7 7 6 5 5 5 5 5 5 6 5 8 6
14 12 7 9 13 16 13 9 8 8 8 10 7 9 9 9 9 10 8 9 7 7 8 8 9 9 9 8 7 7 8 7 5 5 4 4 3 4 4 5 6 6
10 10 11 10 7 7 9 11 10 9 9 8 7 9 9 10 10 10 7 6 8 8 8 8 8 7 7 6 7 8 9 6 7 6 5 3 1 1 2 3 5 5
11 11 11 11 8 10 7 5 9 9 8 8 9 9 10 11 10 8 7 5 5 8 9 8 10 12 12 12 11 8 8 10 9 8 7 5 2 1 2 4 5 5
10 10 9 5 6 10 11 8 5 8 10 10 8 8 9 8 8 9 9 10 10 7 7 9 10 10 11 15 13 14 10 8 6 5 5 6 5 4 3 4 5 5
10 9 11 12 8 5 3 16 13 7 7 8 9 9 9 7 8 9 9 9 11 12 10 10 10 10 11 12 11 12 11 9 10 8 5 6 7 7 6 5 5 5
7 8 8 6 8 11 11 5 5 4 5 5 2 6 9 6 7 9 10 9 10 11 12 12 10 6 8 9 9 12 10 11 9 11 9 8 9 9 7 8 7 7
3 5 6 5 4 5 3 4 5 4 4 4 5 5 4 6 8 6 6 6 9 11 11 10 9 8 10 10 11 11 11 9 8 9 10 9 8 9 9 9 8 8
6 5 5 3 3 3 3 4 5 8 7 6 4 2 4 5 4 7 6 8 9 11 12 11 10 9 11 11 11 10 9 7 7 8 8 9 9 9 10 10 10 10
8 8 6 6 5 4 3 3 3 3 3 5 6 7 7 9 12 11 10 10 9 9 10 11 12 10 10 10 9 9 8 5 8 7 7 6 6 7 9 11 9 9
6 6 8 7 5 3 2 3 4 7 5 4 4 3 2 3 6 11 9 10 10 8 9 11 7 8 7 5 6 6 5 5 7 7 7 5 5 5 8 9 10 10
8 5 5 4 3 2 1 2 2 2 2 4 6 4 4 4 12 10 9 7 7 7 9 10 6 6 3 3 3 4 5 7 8 8 7 6 4 3 6 9 9 9
14 10 8 5 3 2 1 2 2 3 4 4 8 8 7 10 11 10 7 7 7 11 10 8 9 13 13 9 10 10 9 10 10 11 9 8 8 7 6 5 6 9
13 14 13 12 12 10 7 7 3 4 2 2 4 5 7 7 7 4 1 4 9 7 8 10 11 7 9 10 9 9 10 8 12 13 13 9 11 9 6 7 5 6
13 13 13 13 11 12 14 11 7 4 2 4 2 3 4 3 1 4 8 11 5 8 10 9 8 6 9 9 9 10 12 10 11 16 14 13 11 14 12 4 3 4

ECMWFNIL_sfc_gust_072.txt.gz
Wind_Gust
13 12 13 12 11 12 13 12 9 12 10 8 9 7 9 8 7 7 7 8 7 9 8 7 7 8 8 7 7 9 8 7 7 6 6 7 7 9 11 9 7 9
12 12 11 10 10 8 9 11 12 13 11 9 8 9 6 8 6 9 10 9 8 9 8 7 7 7 7 8 6 10 8 7 8 6 7 8 6 8 9 8 9 8
11 12 13 14 14 11 11 7 9 10 11 8 6 7 8 6 9 5 7 10 10 8 8 7 8 7 8 7 6 7 8 7 9 6 8 8 7 9 8 8 8 7
9 13 14 12 13 13 9 10 5 7 7 9 7 6 8 7 8 8 7 9 10 8 7 7 8 7 8 8 8 9 8 9 6 5 8 8 8 6 7 9 9 9
12 9 9 11 9 10 10 11 10 8 8 8 6 5 9 8 8 8 8 8 8 8 7 8 7 8 8 8 7 10 7 9 6 5 9 8 6 6 5 9 10 10
9 11 12 12 12 13 11 10 10 9 9 7 7 6 6 8 9 8 8 9 7 8 8 7 8 6 8 8 9 9 8 9 6 6 10 8 7 7 6 8 10 11
12 12 12 12 11 10 11 9 8 8 9 9 8 7 8 9 8 9 8 9 8 7 8 7 7 7 6 7 9 8 7 8 6 8 10 5 7 8 7 7 8 11
12 11 13 12 13 11 11 10 10 10 10 9 9 7 8 10 9 8 8 9 9 7 7 7 7 7 6 7 9 9 6 5 7 9 9 6 6 8 7 7 7 10
11 11 13 14 14 11 10 10 9 9 9 11 9 8 5 9 10 9 9 8 8 8 7 6 7 7 5 7 7 8 7 5 4 6 8 7 8 6 7 6 9 9
11 11 13 13 13 11 11 8 10 9 8 10 10 9 10 4 7 9 8 7 8 6 7 7 7 6 6 6 8 8 7 6 5 5 6 6 7 6 6 7 8 8
9 10 11 12 12 11 11 10 9 9 8 9 9 8 7 8 5 7 9 9 10 10 8 8 8 8 8 7 7 6 7 7 6 6 6 6 6 5 6 7 6 7
8 9 12 11 12 11 12 11 10 8 8 7 9 10 6 7 9 7 10 9 9 9 9 9 8 9 8 9 9 9 8 7 7 7 6 7 7 6 7 6 9 8
7 9 10 10 10 11 11 10 10 9 9 9 7 8 9 7 5 6 4 7 7 7 8 8 8 7 8 8 9 9 9 10 9 8 7 7 6 6 5 5 7 8
11 7 9 10 9 8 9 9 8 8 7 6 7 8 8 8 9 7 5 5 7 7 6 7 8 8 7 7 8 9 9 8 9 10 9 8 8 7 6 6 5 5
12 9 9 9 10 8 6 5 7 6 6 7 8 7 8 8 7 6 6 5 4 6 7 7 9 9 9 10 10 7 5 7 7 9 9 10 9 8 6 5 5 5
11 14 13 11 11 12 8 5 6 6 8 8 7 8 7 5 5 5 5 6 6 6 7 8 9 9 8 10 9 12 10 8 7 7 8 9 10 9 6 5 5 5
9 8 7 12 10 10 5 5 4 3 5 6 7 6 6 5 5 5 5 5 5 7 8 9 9 10 12 11 10 10 10 10 10 8 7 8 9 10 9 7 4 4
8 9 9 8 7 5 7 8 7 7 3 2 4 5 4 5 4 4 3 4 4 4 6 7 7 6 10 11 11 9 7 10 9 9 9 8 8 8 8 9 8 6
8 7 7 8 8 7 7 4 4 6 5 7 4 2 4 4 3 2 4 3 4 6 7 7 6 7 10 11 11 10 8 8 9 9 10 10 9 9 9 9 9 8
8 8 9 8 8 8 6 6 5 4 5 5 3 2 1 1 3 3 4 3 4 4 5 6 5 6 8 9 10 7 6 5 6 8 8 9 9 10 10 10 12 11
9 8 8 7 8 8 5 4 4 4 4 3 2 2 3 4 2 2 2 2 2 2 3 5 7 6 2 2 3 5 5 4 6 6 8 8 8 9 10 12 12 12
9 8 8 8 7 7 9 7 7 6 3 2 2 4 3 3 2 3 5 6 7 5 2 2 3 5 5 4 4 5 5 7 7 7 8 8 8 9 10 11 11 12
14 13 12 11 10 9 8 7 7 8 8 6 4 3 3 4 6 6 5 6 5 5 6 5 7 6 7 6 4 3 3 7 7 7 7 8 9 9 10 11 11 11
16 16 15 14 14 14 11 9 6 3 3 3 3 4 5 6 6 7 5 2 2 4 7 7 7 6 10 11 11 10 8 10 10 8 8 8 7 7 8 9 10 12
14 15 14 14 15 14 13 13 12 9 6 4 4 3 2 4 3 2 6 5 2 1 5 5 5 8 9 10 10 9 10 8 9 9 9 7 8 7 5 8 7 9
14 15 14 14 13 12 13 13 12 12 13 8 5 3 3 3 2 2 2 5 3 4 2 4 7 7 6 7 8 9 10 10 9 12 13 11 9 11 11 6 7 8

ECMWFNIL_sfc_gust_075.txt.gz
Wind_Gust
15 14 14 14 14 13 14 13 11 13 11 10 10 10 10 10 10 10 10 10 9 10 9 9 9 9 9 9 8 9 9 9 10 9 10 9 9 10 11 11 11 12
15 14 12 12 11 10 10 11 12 13 12 9 9 10 10 11 10 11 11 12 11 11 10 9 9 9 9 10 9 10 10 10 11 10 11 10 9 9 10 11 11 11
16 15 16 15 15 13 12 10 10 11 11 10 10 10 12 11 12 11 11 12 13 11 10 9 9 8 9 9 8 9 10 10 11 11 11 11 9 9 9 10 10 10
16 16 15 13 14 15 13 13 10 9 10 11 10 10 12 12 12 13 12 11 13 12 10 9 9 9 9 10 9 10 10 10 10 11 12 11 9 9 10 10 10 10
15 13 12 13 12 14 14 14 13 11 11 11 11 11 13 14 13 13 12 11 11 12 11 10 9 9 9 9 9 11 9 11 9 9 12 12 9 9 9 10 12 12
11 13 14 14 15 16 15 14 14 13 12 12 12 12 13 14 14 14 14 13 12 13 12 11 11 10 10 10 9 10 9 11 9 8 13 13 12 9 10 10 12 12
13 12 13 13 13 14 15 14 13 13 13 12 13 12 14 14 14 14 14 13 14 14 14 13 12 11 9 9 10 11 10 10 10 9 13 12 12 12 10 11 11 12
14 13 14 13 13 13 13 14 14 12 12 12 12 12 13 15 15 12 12 13 13 14 13 13 13 13 10 10 12 12 10 8 9 11 12 12 11 13 11 10 10 11
15 15 14 14 14 12 12 14 13 12 13 13 13 13 11 12 14 13 13 13 13 12 13 13 13 12 10 10 11 11 11 10 8 9 11 11 12 12 13 12 11 10
15 14 15 13 13 12 13 12 12 12 12 12 13 12 13 10 11 14 13 12 13 12 12 12 12 12 12 11 12 11 10 11 10 9 9 10 10 10 12 11 12 12
13 14 15 14 12 12 13 12 12 12 12 13 13 13 13 13 11 11 12 13 13 14 13 13 13 13 13 11 10 9 10 9 9 9 9 10 9 8 5 8 9 10
12 13 14 14 12 12 13 13 13 12 13 12 14 15 13 12 13 12 13 14 14 14 14 14 13 13 13 13 12 10 9 8 8 8 8 9 9 9 8 7 8 10
12 12 11 8 9 9 10 11 12 12 13 14 13 15 15 14 13 13 11 12 13 12 13 13 12 11 11 11 11 11 10 10 9 9 9 8 7 8 8 8 8 9
12 13 13 11 9 9 8 8 8 9 10 12 13 14 14 15 15 14 12 10 10 11 10 9 9 10 10 10 10 10 10 9 10 10 10 9 8 7 7 8 8 8
11 15 15 14 14 13 12 10 9 9 9 10 11 11 10 13 13 13 13 11 10 10 9 8 9 9 8 10 10 10 11 12 12 13 12 12 10 9 7 7 7 7
11 12 14 16 15 13 13 11 10 9 9 9 10 10 10 10 11 10 11 11 11 10 8 7 8 8 8 11 11 13 12 11 11 12 13 12 12 11 9 8 8 7
12 12 12 13 12 12 9 11 9 7 7 8 8 8 8 9 9 10 9 10 10 10 8 6 5 6 3 6 9 11 12 11 13 13 12 13 13 12 12 10 10 9
13 13 13 11 9 11 9 8 11 7 7 7 8 8 7 7 8 7 8 9 9 8 7 6 6 5 3 5 6 8 7 10 11 12 13 14 14 13 12 12 12 10
13 13 13 12 11 10 8 8 8 7 7 6 7 8 8 7 7 8 9 9 9 9 7 7 6 4 5 4 4 5 8 10 12 10 13 14 14 13 13 14 13 12
14 15 15 15 12 11 10 10 9 8 6 6 7 7 8 8 8 7 8 9 9 8 8 8 7 5 6 6 7 6 6 6 12 10 11 13 14 14 14 14 14 14
16 16 16 15 14 13 14 13 12 10 9 9 8 8 8 8 7 6 6 6 7 8 7 7 7 7 6 5 5 5 4 4 11 10 12 12 12 13 14 14 14 14
14 14 15 14 15 15 15 14 12 11 10 8 8 8 8 8 9 8 8 7 7 6 5 7 8 5 7 8 9 9 8 9 12 12 13 13 12 11 12 12 12 13
16 16 15 14 13 14 14 14 12 12 10 8 9 9 10 9 8 7 8 8 8 7 6 7 6 7 7 8 8 10 8 11 11 13 12 12 10 9 10 11 11 13
16 15 15 15 16 16 14 13 13 11 11 9 10 10 11 9 7 7 8 8 7 6 7 8 7 8 10 7 6 7 7 10 11 11 11 11 11 11 11 12 11 9
16 17 16 15 17 16 13 13 12 11 10 11 12 11 12 10 9 9 9 9 8 7 2 8 9 7 6 4 4 6 8 9 10 11 11 11 11 11 10 10 12 10
17 18 18 17 16 14 14 13 11 12 13 13 12 12 12 11 11 12 12 11 10 10 9 9 10 9 10 4 4 5 5 9 9 11 13 11 11 11 11 12 12 12

ECMWFNIL_sfc_gust_078.txt.gz
Wind_Gust
11 12 14 16 16 15 14 15 15 16 15 15 15 16 16 14 14 12 11 11 10 10 10 10 10 10 10 10 7 8 11 9 8 8 10 9 10 10 11 11 10 11
18 15 13 14 12 11 13 15 16 17 15 13 14 14 14 14 12 12 12 12 11 11 11 11 11 11 10 11 9 8 10 9 8 10 10 9 10 10 10 10 10 11
19 18 17 15 15 13 11 12 14 15 15 13 13 13 14 12 12 12 12 12 12 11 11 11 11 11 11 11 10 9 11 9 10 10 10 11 9 9 11 10 11 11
19 19 19 19 18 19 14 13 13 13 13 14 14 14 14 13 13 13 12 12 12 12 11 11 11 11 12 12 10 12 11 11 11 10 10 10 9 9 10 10 11 11
19 19 19 19 19 19 18 17 16 15 15 14 14 14 15 15 14 15 14 14 13 13 12 12 11 11 11 12 11 12 11 13 11 9 10 9 9 9 10 11 12 12
21 20 19 19 18 18 17 16 16 16 15 14 14 14 15 16 16 16 16 15 14 13 13 12 12 12 12 13 12 12 12 13 11 10 12 11 11 10 13 12 13 13
21 19 18 19 18 16 17 17 15 15 16 15 15 14 16 17 18 18 17 16 15 14 14 13 13 13 12 13 13 12 12 12 13 12 13 13 12 12 12 13 12 14
20 19 18 17 17 17 17 18 17 16 15 15 14 14 16 18 19 17 16 15 14 15 14 15 15 15 14 13 14 13 12 11 12 12 12 13 11 13 13 12 10 12
19 19 18 17 17 17 17 19 17 16 16 16 16 16 16 18 18 18 17 16 15 15 16 16 16 16 13 13 14 14 15 13 11 12 12 12 12 12 14 13 12 11
19 18 17 17 17 17 17 17 17 16 16 17 17 16 17 16 17 18 17 16 16 16 17 16 17 16 15 15 16 16 15 15 13 12 13 12 13 14 14 13 12 12
18 18 19 18 17 16 15 16 15 16 15 17 16 16 16 16 17 17 17 17 16 18 19 18 18 17 17 16 15 14 14 14 13 12 11 11 11 11 6 12 12 11
17 16 16 16 16 15 14 14 15 15 15 14 16 16 15 16 16 17 17 18 17 18 19 18 18 17 17 17 17 15 14 13 13 12 12 12 11 9 10 10 9 10
16 18 16 15 12 14 13 14 14 14 16 16 16 16 16 16 17 17 16 16 17 17 18 18 17 16 15 15 16 16 15 14 13 13 12 11 10 11 10 8 8 9
16 14 14 13 11 10 12 11 11 13 14 14 16 17 16 16 18 18 15 14 15 16 16 16 15 15 16 15 15 14 13 14 14 13 13 13 11 11 10 10 9 9
13 9 13 14 12 9 9 11 12 12 12 13 14 15 15 16 17 18 17 15 15 14 15 13 14 13 13 13 14 12 12 12 12 13 12 13 13 12 11 10 9 8
15 13 16 15 13 9 9 9 11 12 13 13 14 14 13 14 16 16 17 15 16 16 14 12 11 9 9 8 9 11 13 11 11 12 12 12 12 12 11 11 10 10
19 16 16 16 14 13 15 13 12 12 13 13 13 12 12 12 13 15 14 14 15 15 14 12 10 10 7 3 3 7 10 10 10 10 10 11 12 12 12 12 12 12
19 18 17 17 17 16 14 12 13 12 12 9 8 9 10 11 12 14 13 12 12 15 15 14 11 8 7 7 3 2 3 11 12 12 13 13 13 13 13 12 12 13
18 18 19 19 19 18 8 8 12 10 12 9 8 7 8 9 10 10 11 13 13 14 14 14 12 8 9 8 7 4 3 7 14 13 14 14 14 15 14 13 13 13
18 18 17 16 16 19 16 11 10 10 9 7 7 6 7 9 8 8 8 10 12 13 13 12 13 8 7 8 8 8 6 5 15 13 14 16 17 16 16 16 15 15
18 18 18 17 17 16 15 13 11 10 9 7 7 7 8 8 8 8 9 8 8 8 10 9 11 5 5 6 7 7 6 4 12 14 15 15 17 19 20 21 17 17
15 14 15 17 17 15 15 15 13 14 12 10 9 8 8 9 8 9 9 9 8 7 7 9 11 7 6 6 7 7 7 10 13 14 16 18 19 19 20 20 18 18
16 16 16 16 16 16 16 13 12 13 13 11 11 9 9 7 8 10 11 9 8 7 8 8 12 9 5 5 5 7 5 11 12 16 18 18 18 18 18 18 17 17
18 19 19 18 17 17 17 16 14 14 10 10 11 12 11 10 10 11 9 10 10 12 10 9 14 11 7 7 6 5 5 10 11 13 17 18 18 17 18 18 15 4
20 20 19 19 19 17 17 16 14 14 13 11 11 11 12 12 11 12 13 13 14 11 5 12 16 11 6 6 4 6 8 10 11 14 17 17 17 18 18 18 17 11
19 20 19 19 19 18 17 15 13 14 13 13 12 11 12 12 13 12 12 13 10 9 9 9 10 13 11 6 5 6 6 13 12 17 19 17 17 18 17 17 17 17

ECMWFNIL_sfc_gust_081.txt.gz
Wind_Gust
15 15 14 12 14 19 20 19 17 16 14 14 14 15 15 14 13 11 12 11 9 9 8 7 8 8 9 8 8 9 12 8 10 10 10 11 11 11 12 13 10 11
19 19 18 18 18 18 18 18 16 15 14 12 13 13 13 15 12 12 12 12 11 10 9 9 10 10 11 12 9 8 12 10 11 12 10 9 10 10 10 10 10 10
19 21 21 18 20 20 18 16 13 13 13 13 13 12 14 13 13 13 12 11 11 11 10 9 10 9 9 11 10 9 10 10 9 11 10 9 7 9 12 11 11 10
20 21 22 21 19 19 18 16 13 12 11 13 12 14 15 15 14 13 13 10 12 11 10 10 10 10 11 11 9 10 11 10 11 10 9 9 8 8 10 11 12 11
19 19 19 19 19 19 17 16 15 15 13 12 13 13 15 15 14 15 14 12 12 12 12 11 10 9 9 10 9 11 10 11 10 9 9 9 9 8 8 10 12 11
17 19 18 19 18 19 20 17 17 16 15 14 13 13 14 14 14 15 13 13 12 13 12 12 11 11 10 10 8 10 11 12 10 9 11 10 11 12 13 11 11 12
17 18 20 20 18 21 18 18 16 16 16 15 15 13 13 14 14 15 14 13 13 13 14 12 13 12 10 10 10 10 10 11 11 10 11 11 10 10 12 11 11 11
19 18 21 19 19 19 17 19 17 16 15 15 14 14 15 16 16 15 14 13 13 14 13 15 15 14 13 12 12 11 11 11 11 10 11 12 10 13 12 12 11 13
22 22 20 20 19 18 17 19 17 16 16 15 15 15 15 14 14 14 14 13 13 13 14 15 16 16 13 12 12 13 13 11 10 11 11 12 11 12 14 13 12 13
18 13 19 19 19 18 17 17 17 15 15 15 15 16 17 15 15 15 14 13 13 14 15 15 16 15 15 14 16 15 14 14 13 12 13 12 11 12 14 11 11 13
11 16 17 17 18 19 18 18 18 17 15 17 16 16 15 14 16 14 14 14 13 16 16 16 16 16 16 15 14 14 14 14 14 13 12 11 10 11 7 12 11 10
11 12 13 16 17 17 17 17 18 17 16 14 15 15 15 14 15 15 15 15 16 16 17 17 17 16 17 17 16 15 14 12 12 12 12 13 12 12 12 11 10 12
13 10 9 12 11 14 16 17 18 17 16 17 16 15 15 15 15 16 15 15 16 16 17 17 17 16 16 15 15 16 15 14 13 12 12 11 10 11 11 10 10 11
14 13 12 12 13 15 17 16 16 16 15 15 14 15 15 16 17 16 15 14 15 16 17 16 15 15 15 15 15 15 15 14 14 12 12 12 11 12 11 10 9 11
15 14 12 11 11 13 13 16 15 15 14 14 14 14 14 15 16 16 16 15 15 14 16 14 14 14 13 11 14 16 13 14 13 13 12 12 12 12 11 11 11 11
16 15 15 12 11 11 11 14 15 14 12 12 13 14 14 14 15 16 16 14 16 14 13 12 13 12 12 14 11 13 13 12 12 11 12 11 11 11 11 11 11 11
17 19 16 16 15 15 14 10 13 12 11 13 13 13 12 12 14 16 16 14 17 15 14 11 10 12 12 13 12 13 15 10 10 10 10 11 11 11 12 12 12 13
16 19 18 16 16 15 15 15 15 12 15 13 12 10 10 10 11 14 14 14 14 15 13 11 11 8 10 7 8 8 7 13 10 11 12 12 13 12 13 14 14 15
20 19 18 17 16 15 13 15 15 17 17 17 15 10 6 10 12 11 12 13 13 14 13 12 13 9 9 8 6 4 5 8 13 11 12 13 12 14 13 14 16 16
19 21 21 19 16 14 10 12 12 10 8 10 8 10 11 10 8 6 8 8 10 11 11 11 15 10 9 8 6 6 5 7 13 12 11 13 14 14 16 15 16 20
14 18 18 19 20 21 19 14 13 12 11 11 9 8 10 10 8 7 9 9 8 7 9 16 13 9 9 7 6 5 6 6 11 13 14 13 14 15 16 12 11 11
15 15 16 17 19 22 21 18 15 13 11 12 11 10 9 10 8 7 5 7 7 7 9 13 12 9 7 6 5 3 5 9 11 10 14 15 17 17 17 16 15 12
20 20 18 16 14 16 17 18 18 16 13 12 12 10 8 8 9 7 7 7 6 6 8 13 11 8 5 5 3 3 6 10 10 13 12 14 15 18 20 18 14 13
20 18 15 17 16 15 15 15 13 12 15 16 15 12 11 10 13 12 10 9 8 12 14 12 11 6 2 3 3 2 6 10 10 14 14 13 16 15 20 19 11 9
19 19 19 18 19 17 13 13 12 11 13 14 14 8 12 13 12 10 11 9 10 9 4 10 12 7 2 4 4 5 8 9 9 13 12 14 14 17 14 21 14 8
19 19 18 19 19 17 16 14 12 8 9 11 15 16 12 11 11 12 15 12 9 11 8 9 13 11 8 2 4 7 7 12 11 12 14 15 18 18 16 14 13 15

ECMWFNIL_sfc_gust_084.txt.gz
Wind_Gust
17 15 16 15 12 10 11 9 8 6 5 6 8 10 12 11 11 10 8 7 8 8 7 6 7 6 8 6 5 6 10 10 10 11 7 5 7 6 6 7 5 6
16 15 15 14 13 7 7 7 8 6 6 7 7 8 10 10 8 10 8 8 9 8 8 8 8 8 8 7 5 9 10 6 9 15 12 7 10 5 4 6 5 6
17 18 16 14 12 11 8 9 7 6 6 6 6 9 9 7 9 9 8 6 9 7 6 6 6 6 7 6 4 10 9 6 7 9 8 13 16 7 7 7 7 7
18 16 15 13 11 11 9 8 6 8 5 8 7 8 8 7 8 8 7 9 9 6 5 6 5 5 9 6 4 8 6 8 8 6 8 8 11 9 11 10 7 9
19 16 14 13 12 11 8 5 7 5 7 9 10 7 8 7 8 10 8 9 7 7 7 6 4 5 7 3 5 7 5 10 7 7 7 6 7 8 8 6 5 6
16 17 17 14 12 13 9 9 9 7 7 8 8 7 6 8 10 11 10 9 8 9 8 7 8 6 4 5 6 5 6 8 4 5 8 7 9 8 11 8 5 6
18 17 16 16 15 17 16 18 11 10 9 7 9 9 9 10 11 12 12 9 11 10 11 8 8 4 4 4 5 4 4 7 5 4 7 7 8 6 10 10 8 7
17 17 18 15 18 20 19 19 12 13 11 11 9 10 11 12 13 11 10 9 11 12 10 11 9 8 6 4 5 4 5 4 4 4 7 10 4 7 8 10 6 8
12 14 17 19 18 17 16 15 12 13 12 11 10 11 10 10 12 10 10 10 10 9 10 10 10 10 5 4 5 5 5 3 3 8 7 5 6 6 11 9 7 10
13 11 10 17 16 13 12 10 10 10 10 10 11 10 12 8 10 10 9 7 8 9 9 9 11 9 7 8 10 7 5 5 6 6 6 5 6 9 11 9 10 8
11 11 10 8 11 9 11 10 9 11 8 12 11 11 12 11 10 9 8 9 8 11 12 10 11 10 9 8 7 4 5 6 7 6 4 4 3 8 6 9 9 10
10 10 9 6 5 9 10 9 10 9 7 8 9 11 11 10 10 9 9 11 10 11 11 11 11 9 10 11 10 5 5 6 5 4 4 6 7 5 8 6 4 6
12 11 9 7 4 9 10 11 10 9 10 11 8 10 8 9 9 10 5 9 9 9 11 10 10 10 9 8 10 9 7 6 5 4 5 5 3 5 6 5 6 7
12 11 9 7 4 8 10 10 8 10 10 10 9 9 9 10 11 10 5 7 6 8 9 7 7 9 11 9 9 8 7 5 5 3 5 3 2 6 4 2 5 6
13 12 10 8 7 6 8 9 6 4 9 10 8 9 8 10 10 11 9 8 9 7 10 8 11 13 14 12 5 12 8 6 6 6 5 4 3 5 4 4 4 9
12 11 12 11 8 8 10 8 8 5 7 8 8 10 7 8 8 9 10 7 10 8 9 13 14 11 10 16 13 12 5 7 5 4 3 5 5 4 5 3 6 16
13 13 13 13 12 13 8 9 9 5 8 8 8 9 6 6 6 9 7 5 10 7 12 15 13 11 12 16 16 17 14 10 5 8 11 8 6 8 6 6 14 21
15 16 15 14 14 13 12 11 10 8 7 7 7 6 4 5 4 8 8 3 6 9 13 14 12 12 13 14 15 14 12 12 9 9 7 6 8 6 10 14 16 20
16 16 17 17 14 13 12 13 14 15 14 14 15 15 12 7 3 6 6 4 6 11 15 15 12 13 12 14 15 14 15 10 6 7 9 7 11 19 20 15 13 14
13 14 15 15 12 13 14 15 14 13 12 12 14 14 14 15 16 17 16 14 12 18 17 15 12 12 12 14 14 14 12 8 9 5 5 7 12 14 16 10 7 8
17 16 15 13 13 12 11 12 12 9 11 11 12 11 11 13 12 12 12 13 17 17 15 14 12 11 12 14 15 13 12 5 5 7 7 6 9 11 11 10 13 13
12 13 14 13 13 14 13 12 10 9 11 8 8 9 7 9 11 10 11 12 13 14 14 12 11 11 12 14 14 14 10 5 4 4 5 4 4 4 3 7 8 7
11 11 11 12 16 14 14 13 12 12 9 7 8 8 8 8 8 10 10 12 13 12 13 10 11 11 13 15 15 16 10 7 6 5 3 4 3 3 3 4 9 7
11 10 11 9 11 12 12 11 11 10 8 6 8 8 6 7 8 11 11 11 11 12 11 12 10 10 14 15 15 15 10 9 10 7 8 5 5 4 6 12 17 18
12 11 12 14 15 12 12 11 9 9 11 7 8 7 8 9 11 10 10 9 11 13 11 14 11 11 14 14 14 15 15 11 10 9 8 6 5 5 3 8 10 9
13 12 12 14 13 10 12 14 10 9 8 9 10 9 9 8 9 9 9 9 10 12 13 12 12 10 11 11 12 13 13 12 11 11 12 13 11 9 8 7 8 8

ECMWFNIL_sfc_gust_087.txt.gz
Wind_Gust
5 6 10 11 10 10 10 11 10 11 11 9 11 12 13 11 13 13 10 10 10 9 8 8 10 12 13 11 8 10 9 9 7 9 8 7 4 7 8 7 5 7
5 6 9 9 9 8 8 8 10 11 10 9 10 11 11 11 9 10 11 11 10 9 8 7 9 10 11 9 11 12 11 9 8 7 9 7 5 6 6 5 5 5
5 5 7 9 11 9 9 7 7 9 10 9 11 12 11 9 11 11 11 11 11 10 8 7 7 7 6 8 10 12 12 9 9 7 8 9 8 8 7 6 5 5
15 16 10 8 10 11 9 10 6 6 5 11 12 11 11 11 12 10 9 11 9 8 9 8 7 6 7 11 11 10 9 10 9 8 8 6 6 8 7 5 6 6
12 9 11 10 8 9 9 10 9 6 8 12 11 10 13 11 10 10 11 9 7 7 8 7 6 7 7 10 9 11 11 11 10 11 11 8 5 6 5 6 5 6
10 8 10 11 10 11 10 9 7 7 11 12 12 11 11 11 12 11 9 8 7 7 5 6 9 6 9 9 11 12 10 10 9 10 10 10 8 7 6 6 7 7
11 10 10 10 9 8 10 8 7 10 12 12 11 11 11 12 13 11 10 8 7 6 6 6 7 6 7 10 11 8 8 8 8 10 11 9 8 6 6 6 6 9
11 11 10 9 10 8 8 6 9 12 12 12 10 10 10 13 13 11 9 9 8 6 7 6 5 6 7 8 8 8 7 5 8 9 10 8 8 8 6 6 7 9
12 13 11 10 10 9 8 7 8 9 10 11 10 10 9 12 12 11 10 10 8 8 8 6 5 6 6 8 8 8 5 5 9 12 10 10 10 8 6 7 9 8
14 13 13 11 11 10 9 7 10 9 9 10 9 8 10 11 12 9 9 9 9 9 8 6 6 6 6 8 7 6 7 8 8 9 10 11 9 8 10 10 9 7
11 12 12 12 12 11 8 9 10 10 9 10 10 7 8 12 9 7 9 10 11 9 8 8 7 6 8 7 5 5 7 8 8 7 6 7 10 12 10 9 7 7
10 11 12 12 11 10 11 13 12 10 10 10 9 9 11 11 8 7 11 10 10 9 9 10 7 7 9 6 5 6 7 6 6 6 7 10 10 10 9 8 8 6
9 11 11 11 10 10 11 12 11 11 11 10 9 11 10 8 6 9 9 10 9 9 10 10 8 8 8 6 6 6 7 8 8 7 8 8 8 9 9 10 10 8
6 8 8 7 12 12 12 11 11 10 9 8 10 11 9 7 9 11 10 8 11 11 8 7 8 8 6 6 6 9 9 8 8 8 10 9 8 15 16 15 14 13
8 7 7 6 9 11 11 11 10 9 9 8 9 9 10 8 7 7 7 9 12 16 16 15 15 12 9 6 8 9 9 9 9 11 12 14 17 17 17 16 13 13
9 9 10 7 9 11 9 8 8 10 10 9 9 7 8 9 7 6 8 15 17 17 15 16 14 11 10 17 11 9 8 11 13 14 15 16 19 18 14 13 11 9
12 10 13 12 9 9 8 8 8 10 10 10 10 6 7 9 9 7 9 16 16 18 17 15 13 10 11 18 16 16 14 13 12 14 14 16 15 13 12 11 7 6
15 16 13 12 12 13 13 12 13 14 13 10 9 7 6 8 10 8 16 18 18 17 17 14 12 12 12 15 16 15 13 14 14 15 15 13 11 10 8 7 6 7
10 13 16 16 13 13 13 15 14 15 13 13 13 10 14 15 12 18 16 14 18 19 17 13 13 12 13 14 15 15 14 13 12 11 12 11 11 9 7 5 6 4
9 12 12 12 12 12 14 15 16 14 11 11 13 15 15 14 16 18 17 15 17 19 17 13 13 11 13 14 14 13 12 10 9 11 10 11 10 9 7 5 6 6
11 11 11 10 11 12 12 13 14 13 14 12 15 15 14 14 15 17 15 14 14 16 18 15 12 10 13 15 14 13 12 9 10 7 9 8 8 8 9 9 7 8
11 13 15 13 10 10 14 11 13 13 13 11 13 13 12 13 12 14 15 14 13 16 18 15 11 11 14 16 16 14 14 18 11 7 5 4 7 7 4 5 4 4
9 9 10 13 11 13 13 14 9 12 10 9 13 12 13 12 10 11 12 14 14 15 17 14 11 11 13 15 16 14 11 11 11 11 9 9 9 9 9 8 8 8
10 9 9 10 7 10 12 11 12 8 9 9 11 11 13 11 11 12 11 12 14 13 14 17 11 10 13 15 15 14 10 11 9 11 12 10 8 10 12 14 17 21
13 11 11 12 13 11 9 7 7 9 8 9 11 11 12 11 11 14 11 12 12 14 13 17 13 11 12 13 14 12 11 11 12 12 12 10 9 11 11 13 14 15
19 15 12 12 12 10 8 8 6 9 11 11 10 11 13 12 11 12 13 12 10 11 13 14 14 11 11 16 16 16 14 14 11 13 10 10 11 11 12 12 12 11

ECMWFNIL_sfc_gust_090.txt.gz
Wind_Gust
12 10 14 15 13 13 10 11 10 12 11 12 13 11 13 11 10 10 10 8 9 11 10 9 8 8 9 9 8 9 8 8 8 8 9 10 8 9 10 8 6 9
15 12 11 15 15 14 15 12 11 12 12 11 11 11 9 10 10 10 10 10 10 10 10 13 11 10 9 9 8 9 8 8 8 7 9 8 9 9 9 9 8 5
9 12 12 15 20 18 16 14 12 10 12 11 10 10 11 9 10 8 10 11 11 10 11 13 12 10 11 9 8 9 9 8 8 6 8 9 9 9 9 8 6 7
10 15 17 15 14 16 13 12 9 10 8 10 11 12 11 9 11 10 10 11 10 9 9 10 12 11 10 10 9 9 8 8 8 7 7 6 6 8 8 7 6 6
15 14 14 15 14 12 12 11 10 10 11 12 10 10 12 11 11 10 10 10 9 7 7 9 10 10 11 11 10 10 8 9 7 8 9 8 7 8 7 7 6 6
10 13 14 14 14 14 13 12 10 11 11 10 12 11 12 12 12 11 10 9 7 8 6 7 8 9 11 11 11 11 10 10 9 8 9 9 6 5 7 6 7 7
14 14 15 13 11 10 11 10 7 9 13 14 13 12 12 12 12 11 10 9 8 8 7 7 9 9 11 11 11 10 10 9 8 8 9 6 6 5 5 7 8 7
12 11 14 12 12 11 12 12 12 10 14 14 9 12 13 13 12 10 8 8 8 7 7 8 10 12 11 12 12 11 8 7 9 7 7 6 5 5 5 7 8 8
13 13 13 13 14 15 17 11 12 14 19 17 11 7 11 14 12 10 9 7 6 6 7 8 9 11 10 11 11 11 9 8 10 9 8 8 6 6 5 6 8 8
13 13 14 14 15 16 16 13 17 15 18 18 16 13 13 11 11 10 9 8 7 6 7 8 8 8 8 9 10 11 11 11 10 11 10 9 7 6 6 8 8 8
9 12 14 14 15 13 13 13 14 14 13 14 16 14 12 11 9 9 8 8 9 7 7 7 7 9 9 7 7 8 11 12 12 11 9 9 9 9 9 8 8 6
8 10 14 15 15 13 15 16 19 19 13 10 12 14 12 12 12 9 10 9 8 8 7 7 8 9 9 8 8 8 9 9 10 10 10 10 9 8 8 7 14 9
4 7 11 12 12 12 14 17 15 12 11 12 10 13 13 12 11 11 9 10 8 8 8 7 7 7 8 7 7 7 10 11 10 10 8 8 8 8 9 9 10 9
5 6 9 9 10 10 12 12 11 10 10 9 9 12 11 12 12 13 10 9 7 6 4 6 6 6 7 6 7 9 11 10 13 15 15 12 11 12 11 11 10 9
10 10 3 9 10 10 7 12 12 10 10 10 10 10 10 11 11 12 11 10 9 9 8 6 8 5 4 9 10 11 13 14 16 17 16 16 14 13 10 11 10 10
9 9 10 13 16 17 11 7 13 12 11 11 10 10 9 10 12 12 14 13 13 11 9 9 8 5 3 7 11 14 14 15 15 15 14 15 15 13 10 9 9 9
11 11 15 13 10 2 6 7 14 12 12 10 9 8 10 12 15 15 13 12 14 14 13 11 8 7 5 17 18 18 16 15 16 12 11 12 13 13 11 9 7 6
11 15 15 11 7 7 5 6 10 11 11 8 9 9 12 15 16 14 13 13 14 14 14 12 9 7 6 18 20 19 15 16 14 14 11 11 10 10 10 9 8 8
13 16 13 12 10 8 8 11 12 12 11 11 11 11 14 17 16 15 13 12 15 16 13 9 8 5 8 16 19 19 18 15 13 12 12 10 10 9 9 9 9 9
12 15 16 14 12 13 13 11 16 13 11 12 13 15 18 17 16 15 12 12 13 15 12 9 9 7 7 14 15 15 15 12 9 11 11 10 8 8 7 6 6 10
12 14 16 13 14 16 16 13 11 14 14 13 15 17 18 19 18 16 12 12 12 13 15 11 8 9 7 15 18 20 19 14 14 9 7 6 5 6 7 5 5 9
10 10 13 12 13 14 16 16 15 12 15 13 18 17 15 16 14 16 15 12 9 11 15 13 9 9 9 13 16 18 18 14 14 12 9 10 11 10 11 10 9 9
10 10 8 12 13 14 13 13 16 13 12 13 19 16 16 16 14 13 11 12 10 11 16 11 9 9 9 11 13 16 13 12 14 14 14 15 14 13 15 15 13 11
13 10 9 9 11 14 13 11 9 13 12 10 17 17 17 14 14 15 13 10 11 12 12 14 9 7 9 12 11 10 10 14 14 16 14 15 15 14 14 15 17 21
14 12 9 9 11 9 13 12 11 15 12 12 12 16 15 13 14 17 15 13 11 13 13 15 10 9 10 13 13 11 12 11 14 15 15 13 14 15 12 12 12 12
17 17 15 11 8 9 11 9 10 13 14 13 12 13 14 13 14 14 17 15 10 9 15 13 13 11 13 14 15 14 12 12 11 16 16 13 11 13 14 10 9 9

ECMWFNIL_sfc_gust_093.txt.gz
Wind_Gust
15 12 14 15 16 17 17 16 15 17 16 13 14 12 14 12 11 11 11 10 10 11 9 8 7 8 11 10 9 9 9 10 9 10 10 10 9 9 10 7 5 9
13 11 11 12 13 14 17 17 18 18 18 16 13 12 10 11 11 11 11 11 9 10 9 10 10 9 10 11 10 10 9 9 9 7 10 8 9 9 9 8 7 5
15 15 15 16 16 17 16 14 16 16 16 15 12 11 12 11 12 10 10 9 10 9 10 12 11 9 10 9 9 9 9 8 9 7 9 9 9 9 8 7 5 6
16 16 17 15 15 16 13 14 13 13 11 12 13 13 12 11 11 11 10 11 9 9 9 11 11 10 10 10 9 9 9 9 8 8 7 5 6 7 7 6 5 5
13 14 13 15 14 14 13 14 16 15 15 14 11 11 13 11 11 11 11 11 10 9 9 11 9 10 10 10 9 9 7 8 6 8 8 7 5 6 6 7 6 6
11 12 14 14 14 14 15 15 14 14 14 12 13 13 11 12 12 11 13 13 10 11 10 10 11 9 11 10 9 9 9 8 7 7 7 7 5 4 6 6 7 7
14 14 14 14 13 13 14 14 11 12 14 15 13 11 12 12 12 11 10 11 9 9 10 10 10 9 9 10 9 8 8 8 7 7 8 6 6 4 4 6 7 7
12 10 12 12 13 13 12 12 16 14 18 16 14 14 13 12 12 12 12 10 10 7 8 8 8 10 11 11 11 9 7 7 9 8 7 6 6 6 5 7 6 7
13 12 12 12 14 14 12 15 15 17 19 17 17 15 14 14 12 11 10 10 9 8 8 7 9 10 9 11 11 11 10 7 9 8 8 8 6 6 6 6 7 8
12 12 13 13 15 13 13 14 14 17 18 16 16 18 16 14 11 10 9 10 10 9 9 8 9 9 8 9 11 11 11 10 9 9 8 7 7 6 6 7 9 8
13 10 12 13 14 14 14 15 16 20 11 15 15 16 16 15 13 9 9 9 10 10 9 10 10 10 9 7 7 9 12 12 12 10 8 8 9 8 8 10 11 11
9 10 12 14 15 14 14 18 21 19 12 10 14 14 13 12 12 9 11 9 9 8 9 10 10 10 10 10 8 8 9 10 11 10 10 9 7 7 9 13 13 13
7 9 9 12 13 13 18 20 20 17 17 12 11 13 12 12 11 11 9 9 8 7 8 9 9 8 9 9 9 8 10 11 10 8 8 8 7 8 8 9 11 11
6 9 8 11 13 12 18 21 16 12 13 16 11 12 11 12 13 13 10 9 7 7 6 7 8 8 8 9 9 10 11 11 13 13 13 11 9 8 9 10 10 8
8 9 11 12 16 14 13 14 14 13 13 12 12 12 9 10 11 12 12 9 8 8 7 7 9 7 8 11 11 11 13 14 14 16 16 13 10 9 8 10 9 10
11 12 13 15 12 10 8 8 9 11 13 12 11 10 9 10 12 11 14 13 11 9 8 8 7 5 7 12 11 14 13 14 14 15 14 14 14 12 9 8 8 9
12 13 13 11 11 9 7 8 11 12 11 14 11 9 11 12 14 14 13 12 12 11 10 8 7 6 10 16 16 17 16 15 15 12 11 13 13 14 12 10 8 8
10 14 13 12 12 10 7 9 11 12 10 11 12 12 12 13 16 14 14 13 13 12 11 9 8 8 14 18 18 18 15 16 13 14 12 11 12 13 11 11 10 9
9 12 12 11 12 10 10 11 13 13 11 12 12 12 13 17 15 15 13 12 15 15 12 10 9 7 11 17 19 19 18 15 12 13 14 10 11 10 10 10 10 12
12 13 14 14 13 12 10 7 12 11 11 12 14 15 18 16 15 15 12 12 14 16 14 10 10 7 9 14 16 15 16 13 11 11 11 11 10 9 9 9 9 11
12 12 15 13 13 13 13 13 9 11 13 13 15 17 18 18 18 15 11 12 11 14 15 12 8 8 9 16 18 18 17 12 12 12 11 11 11 11 9 10 12 13
11 10 13 14 14 14 15 16 14 10 14 13 17 16 15 16 13 15 15 12 9 11 16 14 8 8 8 12 18 17 16 14 13 14 13 12 13 12 12 11 11 12
11 10 10 12 14 16 14 14 17 12 11 14 19 16 16 15 14 12 10 12 13 11 15 13 9 8 6 7 10 13 14 16 17 17 15 15 14 12 12 12 12 11
13 12 12 11 11 13 13 14 14 13 13 16 18 18 17 14 15 16 14 14 15 15 12 15 9 9 9 9 9 11 11 16 17 19 17 16 14 13 12 14 15 18
14 14 12 12 11 11 13 14 16 17 14 19 17 17 17 14 14 18 17 16 16 16 16 16 11 11 13 11 13 12 12 14 17 16 16 13 14 14 11 12 12 12
16 14 13 13 13 12 11 11 12 17 20 17 16 15 16 15 14 16 19 17 16 17 16 13 14 12 15 13 14 13 12 15 13 18 16 13 11 12 13 10 9 10

ECMWFNIL_sfc_gust_096.txt.gz
Wind_Gust
16 13 13 12 13 13 14 14 15 16 16 15 16 14 15 12 11 11 11 10 10 10 9 9 8 8 9 10 10 9 9 9 9 9 9 10 8 10 11 9 9 10
14 13 12 11 10 9 11 11 15 16 17 16 14 14 10 11 10 11 11 11 10 10 9 8 9 9 10 10 11 11 9 9 9 8 10 10 9 10 10 10 10 9
15 16 16 15 14 12 13 10 9 11 13 15 12 11 11 11 12 11 11 11 11 10 10 9 9 9 9 9 10 10 10 9 9 8 9 10 9 10 9 10 9 11
15 15 15 14 13 13 12 12 10 9 9 11 13 13 12 11 11 12 10 11 11 10 10 10 10 9 9 9 9 9 9 8 8 9 8 7 8 10 10 10 9 9
9 11 10 11 11 10 10 13 13 11 11 11 11 11 12 11 11 11 10 8 9 9 9 10 9 9 9 10 9 9 8 8 8 9 10 9 8 10 10 11 11 10
10 11 11 11 12 13 13 14 15 14 15 16 16 8 8 9 11 11 10 9 9 10 9 9 10 9 10 10 9 9 9 9 8 9 10 10 8 7 9 9 10 10
9 10 11 11 10 13 15 15 16 15 14 15 11 11 11 9 9 9 9 10 10 10 10 10 10 10 9 10 9 9 8 9 9 9 10 8 9 8 6 8 9 9
13 15 18 15 10 12 16 16 15 14 13 11 11 9 10 11 10 9 9 10 10 9 9 10 10 11 11 11 11 10 8 7 9 9 9 9 8 9 8 7 8 10
15 13 17 12 10 15 16 19 15 11 13 15 12 10 8 13 13 12 11 10 9 9 10 10 11 12 11 13 12 12 12 9 9 10 10 10 9 9 9 8 9 9
10 9 12 8 14 17 16 15 13 11 11 13 11 10 13 12 14 13 12 11 10 9 9 10 10 10 11 11 13 13 12 12 10 9 10 10 10 10 10 10 10 9
12 12 8 11 14 14 15 12 10 11 10 10 10 10 12 13 11 10 11 12 12 11 11 11 11 11 11 9 9 10 12 12 10 9 9 8 9 10 9 10 10 11
9 9 10 11 13 13 11 10 13 15 13 9 11 10 8 9 11 8 11 11 10 11 11 11 10 11 12 12 11 10 9 9 9 9 9 9 8 9 10 10 11 11
6 9 11 13 14 11 12 13 11 11 11 12 11 10 10 9 8 9 6 10 8 9 10 11 10 9 10 10 10 10 11 11 11 10 8 8 7 7 7 8 10 11
4 9 13 13 12 12 11 12 13 12 10 11 12 14 16 9 9 9 6 7 8 8 8 9 9 9 8 9 10 11 12 11 11 11 11 9 8 7 7 7 7 7
8 8 9 10 11 14 13 12 12 11 12 13 12 12 12 9 8 9 10 8 7 7 8 7 9 10 10 11 11 9 11 13 12 12 13 12 10 8 7 7 8 7
11 11 9 9 10 11 11 9 11 11 12 10 10 9 8 7 8 8 10 10 10 8 7 8 7 7 9 13 11 14 12 12 12 13 13 13 13 11 9 9 10 10
8 8 10 10 10 10 13 12 10 10 10 12 9 8 9 8 10 10 8 8 10 11 10 6 5 6 11 12 13 15 15 14 14 12 11 13 13 14 12 12 12 11
10 8 9 10 9 10 11 13 12 11 11 11 12 8 9 10 11 10 10 9 10 10 9 7 5 6 13 14 15 16 14 17 14 15 12 12 12 13 13 13 13 13
9 8 10 7 8 9 10 11 10 10 9 12 12 8 9 12 10 10 10 9 11 11 9 6 6 6 11 15 15 16 16 15 14 14 14 12 13 14 14 14 13 14
9 8 9 10 7 8 10 10 9 8 7 10 12 10 12 12 9 11 9 9 10 12 10 8 8 6 9 12 15 16 16 14 14 14 13 13 12 12 12 12 12 14
12 9 8 9 10 11 10 11 10 11 11 10 13 13 13 13 13 11 9 10 10 11 13 11 10 9 10 12 16 16 17 13 16 15 15 14 12 11 12 12 12 14
14 11 10 9 11 15 14 14 15 14 14 13 13 14 11 14 12 12 12 12 9 9 14 12 11 12 11 11 17 17 16 15 16 18 17 16 15 13 14 12 12 13
16 13 12 11 8 13 15 15 15 14 14 16 18 14 15 13 13 12 10 12 13 11 13 13 11 10 11 10 9 15 15 16 17 18 18 17 14 12 13 12 11 10
16 15 13 12 11 12 12 14 16 16 14 18 13 18 16 13 14 16 15 13 15 15 12 14 11 11 10 6 9 13 16 19 16 18 16 17 14 13 11 13 14 16
16 16 15 14 13 11 11 15 14 18 15 19 16 14 16 14 14 17 16 15 15 16 16 15 12 11 13 11 13 12 14 16 20 19 18 14 15 15 13 13 13 15
17 16 16 14 13 12 10 14 16 17 20 20 18 13 18 16 16 16 17 15 14 17 18 16 15 13 15 13 12 14 14 19 18 20 16 17 16 14 14 12 12 13

ECMWFNIL_sfc_gust_099.txt.gz
Wind_Gust
13 10 11 12 12 14 17 17 19 19 19 18 19 19 17 16 16 17 16 16 16 16 16 16 16 15 15 15 17 17 16 16 17 17 17 17 15 18 18 16 14 15
8 9 9 10 11 11 14 19 17 18 18 18 16 16 16 17 16 16 17 16 17 17 16 16 16 16 16 19 18 18 17 17 17 17 16 16 16 17 16 15 15 14
9 8 11 14 15 15 14 11 11 14 16 15 10 10 12 12 14 15 16 16 16 16 16 16 16 16 16 18 17 16 16 17 18 17 16 17 17 18 16 16 15 15
11 12 14 14 16 18 14 11 13 13 11 14 17 17 17 16 15 15 15 16 18 17 17 16 18 16 17 18 17 16 15 15 17 16 18 16 17 17 17 16 15 14
12 12 14 15 12 14 14 16 17 20 23 19 19 16 17 16 16 15 15 17 17 17 17 18 16 13 14 17 18 17 18 17 17 17 18 17 16 14 16 16 15 14
12 14 15 17 16 17 15 17 20 19 19 17 19 20 20 21 18 16 17 17 17 18 17 20 19 17 15 14 16 13 16 17 17 17 17 15 15 15 16 14 14 14
16 17 18 16 14 19 19 19 17 18 20 18 18 19 19 21 21 20 16 16 17 18 19 19 19 17 17 14 14 16 17 17 18 18 17 15 14 16 15 14 14 14
12 12 10 14 17 18 21 18 18 20 20 21 21 21 21 21 21 20 18 17 18 15 14 18 19 19 18 17 17 17 19 17 17 18 16 16 16 17 17 14 16 16
10 11 14 14 16 18 21 18 20 20 20 22 23 22 22 21 20 20 19 19 18 18 20 21 20 20 19 20 22 22 19 17 16 17 17 17 17 16 18 16 16 16
12 14 14 15 18 18 15 14 16 17 17 18 19 19 22 21 19 19 19 16 18 21 21 21 20 20 20 19 18 17 18 18 18 16 16 16 16 16 17 16 16 15
9 11 13 15 16 16 15 14 14 15 17 19 19 20 19 19 18 17 15 17 18 18 18 18 18 18 17 14 13 13 15 15 16 15 15 15 15 15 12 16 16 15
12 13 14 13 14 14 13 12 12 14 16 17 19 20 19 18 18 20 18 17 17 17 17 17 17 17 17 16 14 13 11 12 13 14 14 15 15 15 16 15 15 15
13 12 12 12 12 12 11 11 12 12 16 18 19 20 20 20 17 17 15 16 17 15 16 16 16 16 16 15 15 14 13 13 13 13 13 13 13 15 15 15 16 16
13 12 11 12 10 11 10 10 11 13 14 15 17 19 20 19 16 14 10 13 14 13 13 12 14 14 15 15 14 15 14 13 14 13 13 12 12 12 12 12 12 13
15 12 10 8 8 9 9 9 11 12 13 15 17 19 20 17 17 17 17 13 9 9 12 11 12 13 12 14 15 15 14 14 13 14 14 14 13 12 11 11 11 10
16 14 12 8 6 8 10 9 10 12 13 15 17 16 15 15 15 12 12 13 13 14 13 10 11 10 11 15 12 16 15 13 12 12 13 14 14 13 12 12 12 12
17 16 12 9 6 8 11 13 11 12 15 17 15 13 13 14 15 13 11 11 12 13 12 9 9 10 13 13 14 16 15 14 15 14 12 13 14 15 14 14 14 15
19 17 14 11 8 9 8 7 9 11 11 12 12 11 11 13 14 13 12 10 10 10 10 9 9 7 14 14 15 16 13 17 15 15 14 14 15 15 15 16 17 16
19 17 15 15 11 9 8 8 8 11 11 12 12 12 12 12 12 14 12 10 10 12 10 9 10 5 10 14 15 14 15 14 16 16 16 15 15 16 17 17 17 17
21 19 16 14 11 9 9 9 10 12 12 11 11 12 13 13 11 12 11 9 9 10 11 11 12 7 9 11 14 14 14 13 16 16 16 16 15 15 15 16 16 18
20 19 17 15 12 9 11 12 12 14 12 11 13 15 14 11 12 12 11 10 10 10 12 12 11 9 11 13 14 16 17 13 16 16 17 16 14 13 13 13 13 15
20 19 18 17 14 12 12 13 14 17 15 12 14 14 14 12 13 13 13 12 12 11 13 14 13 10 12 14 15 17 17 16 16 18 18 18 16 15 14 14 14 15
22 20 20 18 15 15 14 12 13 16 16 12 15 14 16 15 14 15 15 14 14 14 14 15 13 10 11 14 16 17 15 17 19 20 20 19 16 15 15 14 13 11
22 21 20 19 17 16 15 13 15 14 15 14 15 14 15 15 15 16 17 17 17 17 16 16 13 11 9 12 12 9 12 20 20 22 20 20 19 16 16 17 19 18
20 21 20 19 17 17 16 15 15 16 16 17 17 17 16 14 14 17 17 18 18 18 16 17 16 13 11 12 14 13 14 16 20 23 23 20 21 19 16 16 16 18
20 20 19 18 18 17 17 16 14 17 18 19 18 18 18 16 17 18 18 17 17 17 18 17 17 16 16 13 14 16 14 17 18 21 22 19 17 20 18 16 15 15

ECMWFNIL_sfc_gust_102.txt.gz
Wind_Gust
14 15 18 19 19 17 15 14 16 16 15 19 21 21 21 17 18 19 21 20 21 23 23 21 18 18 20 19 24 22 21 20 22 19 19 20 19 20 19 18 16 17
13 13 14 15 16 15 12 14 18 20 20 21 22 20 19 18 18 21 21 20 20 22 23 20 21 20 20 22 19 22 18 20 19 20 19 19 17 18 18 17 17 16
13 12 14 14 15 14 14 22 21 23 24 23 21 20 20 21 22 22 22 20 21 19 20 18 21 21 18 18 21 19 18 19 22 23 18 20 18 18 17 17 17 18
15 17 18 17 16 17 19 23 25 25 23 18 18 22 22 22 20 21 21 20 19 19 18 18 18 18 18 19 16 17 17 17 18 17 18 17 17 19 18 18 17 18
16 18 18 17 17 19 20 22 24 22 18 20 19 21 21 20 20 21 21 20 20 19 19 19 18 17 16 16 16 18 15 16 16 17 18 17 17 17 18 19 19 19
17 17 15 16 17 19 20 23 22 21 21 21 21 20 20 21 20 21 21 20 19 19 18 19 18 17 18 17 15 17 18 17 16 17 19 19 18 19 19 19 19 19
16 14 15 17 17 20 19 19 20 20 21 21 21 21 22 22 22 22 22 22 22 19 20 18 19 16 17 15 17 15 17 18 17 19 19 19 18 19 17 19 20 19
15 13 14 15 19 19 18 19 20 22 21 20 21 22 22 23 23 22 21 23 23 22 22 21 20 19 19 18 18 17 19 18 18 19 19 18 17 20 18 19 18 18
16 13 14 14 15 15 14 16 19 19 18 21 22 22 22 22 22 23 24 24 24 23 22 22 23 22 22 21 22 23 21 19 18 19 19 18 19 19 21 20 19 19
14 13 14 15 14 13 14 15 17 17 18 19 19 19 22 21 21 23 24 25 25 24 25 23 22 21 22 22 22 22 22 21 20 19 19 19 19 20 20 20 20 20
13 13 14 13 13 12 14 16 17 16 17 20 20 20 21 21 22 22 23 26 26 25 25 24 23 24 25 22 23 23 24 22 21 20 19 20 20 19 14 19 20 19
14 13 13 14 13 13 13 14 15 16 17 19 20 22 21 21 23 23 23 24 24 25 23 22 24 23 23 24 24 23 24 23 22 20 20 21 19 19 20 19 19 19
16 15 16 14 14 14 13 13 14 14 17 19 20 21 22 21 24 23 22 22 22 21 20 22 21 21 20 23 26 27 25 23 21 21 21 19 18 18 19 18 19 19
16 15 14 13 13 15 14 12 13 14 17 18 19 21 22 24 24 23 20 20 19 16 13 11 16 18 19 22 25 25 22 23 22 20 19 18 18 18 18 18 18 18
18 16 13 11 11 11 11 11 13 14 15 17 18 20 21 24 23 25 22 20 17 17 16 13 15 15 16 20 21 24 25 21 21 20 20 20 19 18 18 18 17 16
18 17 15 12 10 10 10 10 11 12 13 16 19 16 16 19 19 16 16 17 18 18 17 17 19 16 11 13 11 21 19 20 19 20 20 20 20 20 19 18 17 16
18 18 16 13 12 12 11 11 10 12 13 16 15 14 12 13 17 18 14 15 17 16 18 17 16 16 12 13 13 14 16 17 18 18 18 19 19 20 20 20 18 17
20 18 17 16 15 13 12 11 11 10 11 12 12 11 11 11 14 17 14 13 11 12 14 14 14 10 17 13 14 15 11 17 16 17 18 18 19 19 19 19 19 16
21 19 18 17 18 17 15 12 13 13 12 12 11 11 10 11 11 14 15 13 12 12 11 11 12 6 11 13 15 13 12 12 17 16 17 17 18 19 19 19 20 19
21 20 19 18 18 17 15 14 13 14 13 11 11 12 11 12 12 14 14 12 11 12 12 12 12 5 9 11 13 13 12 9 17 16 15 17 18 19 18 18 20 20
22 21 19 18 17 16 15 15 14 15 15 14 13 13 12 13 12 13 13 11 11 12 13 13 12 7 10 13 13 13 12 8 16 16 17 16 16 16 17 18 19 20
22 21 20 19 17 16 17 17 16 15 14 12 12 13 12 14 13 14 14 13 12 12 13 14 14 10 10 13 15 14 12 15 17 18 18 17 17 16 17 18 18 19
22 22 21 20 18 18 18 17 17 17 14 11 16 12 12 17 16 15 15 14 14 14 14 15 18 13 9 10 14 14 11 17 17 18 18 18 18 16 19 19 16 15
22 22 22 20 19 19 18 17 17 16 16 15 15 14 15 18 18 18 17 17 17 17 16 17 16 14 12 10 9 14 11 18 18 19 18 19 19 17 17 19 20 22
21 22 22 21 20 19 18 17 17 17 17 18 17 18 20 17 17 20 19 19 19 20 14 19 18 15 14 12 14 14 14 15 18 19 19 18 20 20 17 17 20 18
21 21 22 21 20 20 20 19 17 17 17 19 19 19 18 19 21 20 21 20 19 19 21 20 19 17 18 16 15 16 15 15 15 19 21 20 21 21 20 18 18 19

ECMWFNIL_sfc_gust_105.txt.gz
Wind_Gust
16 16 17 19 18 16 17 20 23 23 22 22 23 21 23 23 22 21 21 21 21 22 21 20 18 18 19 18 23 22 22 19 18 15 15 16 16 20 23 23 19 19
16 16 17 17 17 16 18 20 23 24 24 23 22 21 19 21 22 21 20 20 20 17 18 17 19 19 20 20 18 20 17 15 16 15 18 19 18 21 22 24 20 18
16 17 18 18 20 17 19 22 22 23 24 23 21 21 22 21 22 22 22 20 18 18 20 19 22 23 21 19 20 16 15 18 19 22 19 21 21 23 21 22 21 19
17 18 19 19 19 20 20 23 24 25 23 23 22 22 22 20 20 21 21 19 19 19 20 20 19 21 21 23 18 16 16 16 16 13 15 15 16 18 20 17 14 17
17 19 19 19 19 20 21 22 23 22 22 24 22 21 21 20 20 21 21 20 19 19 20 20 19 18 20 22 22 17 17 17 16 18 21 19 17 18 18 18 18 23
18 20 19 19 19 21 23 23 24 23 23 23 24 20 21 21 20 21 21 21 21 20 20 20 21 21 18 17 20 15 18 18 17 22 21 20 21 19 20 19 20 21
18 18 17 18 18 20 22 22 24 20 22 21 24 25 22 22 21 21 21 21 21 22 22 22 23 22 19 18 18 19 19 20 21 25 24 21 21 20 20 20 21 22
20 19 19 18 18 16 19 21 22 20 20 19 20 23 23 22 24 22 21 22 21 23 23 24 23 22 21 19 23 21 21 21 21 22 23 22 20 21 21 22 19 20
19 19 19 19 18 16 15 17 19 19 19 20 21 22 24 22 21 21 22 24 22 22 23 23 23 22 20 20 21 21 21 21 19 21 21 20 23 22 22 20 20 20
17 17 17 18 18 16 16 17 17 20 22 22 22 20 23 23 22 22 23 22 24 23 24 23 22 21 20 20 22 22 21 22 21 25 20 16 18 20 21 22 22 19
17 18 18 18 17 16 16 17 17 19 19 20 19 20 20 20 22 23 23 24 24 25 25 23 23 22 21 20 20 19 21 20 21 20 21 21 20 18 15 20 22 21
18 18 19 19 18 18 17 15 15 15 17 20 19 21 21 20 21 21 23 25 24 25 24 22 21 20 19 20 20 20 20 22 21 19 20 21 19 24 21 19 19 19
18 18 19 18 17 17 16 16 15 13 17 19 18 21 20 18 19 20 19 20 19 18 18 23 21 17 17 16 17 18 19 21 16 20 23 21 20 22 25 20 19 19
18 18 17 16 16 16 17 16 17 16 15 16 17 19 18 18 21 20 18 19 19 19 16 14 18 18 14 17 17 16 16 16 22 19 19 20 16 20 25 20 18 18
19 18 17 16 15 15 16 17 18 16 16 17 17 18 15 19 17 18 17 20 17 17 18 18 21 22 18 17 18 16 21 23 21 20 19 19 20 22 20 19 18 17
19 17 17 17 17 16 15 16 17 17 16 16 16 15 15 15 11 9 13 13 17 18 17 18 18 19 12 11 14 24 24 24 22 19 19 20 24 19 19 18 17 20
19 18 17 18 18 17 17 18 18 17 17 15 14 13 11 13 13 14 13 11 13 13 14 16 18 15 11 9 16 19 20 17 19 19 20 21 20 20 22 20 18 19
19 19 18 18 19 20 19 18 17 17 18 19 17 13 10 10 12 11 12 11 10 11 10 13 14 9 13 8 8 17 16 21 20 23 22 22 19 20 20 20 19 19
19 19 18 18 18 18 18 18 18 18 19 18 17 16 15 15 12 13 9 8 12 13 13 14 13 13 12 9 7 7 14 20 24 19 17 17 18 19 19 19 19 19
21 19 19 19 18 19 19 19 19 20 18 18 16 15 15 15 16 15 15 12 11 13 15 14 14 14 12 13 12 9 6 8 19 17 17 17 16 17 18 18 19 20
22 20 20 19 19 19 19 19 20 20 20 19 18 19 17 18 18 17 17 16 17 16 16 18 17 17 15 15 13 15 11 7 13 13 14 16 16 15 16 17 19 20
22 21 20 19 19 19 19 20 20 20 19 18 18 19 18 15 15 17 18 17 18 18 19 19 19 20 18 16 14 13 12 13 15 15 16 16 16 17 17 18 18 19
22 21 21 20 19 20 20 20 19 20 18 17 17 19 19 19 16 16 15 17 18 18 17 17 19 23 22 17 13 14 11 14 16 17 18 18 17 20 20 19 19 15
22 22 22 20 20 20 20 19 19 19 19 19 18 17 19 18 15 16 19 22 23 24 20 16 17 22 25 20 20 18 12 15 16 19 18 19 20 19 20 22 25 27
22 22 22 21 20 20 20 20 19 19 18 18 19 19 19 19 20 22 19 21 19 20 20 21 19 19 25 25 23 20 14 13 16 19 18 15 19 21 20 21 23 23
21 21 21 21 20 20 20 20 18 18 19 18 18 19 20 19 21 24 24 23 22 20 20 21 21 21 26 24 22 22 21 14 14 17 17 16 16 21 20 20 21 21

ECMWFNIL_sfc_gust_108.txt.gz
Wind_Gust
16 16 17 16 16 14 15 20 23 23 22 23 24 22 22 17 15 16 16 17 17 16 17 18 16 15 16 15 15 17 17 18 18 13 14 14 13 12 15 17 14 13
15 16 17 17 16 15 17 18 22 23 24 21 22 20 19 17 17 16 17 17 19 19 17 17 18 18 18 17 17 15 16 15 16 20 19 20 14 15 14 13 12 10
14 15 17 17 19 18 18 20 19 22 20 22 20 17 17 18 19 16 17 18 18 18 18 19 19 19 19 18 17 16 14 14 17 19 19 20 15 17 14 13 12 14
14 16 18 19 20 20 20 19 19 19 20 22 22 21 15 19 18 19 17 19 19 19 18 19 19 20 20 20 20 16 16 16 18 18 21 18 16 15 13 12 12 11
14 17 17 18 18 18 18 19 21 20 22 22 20 20 18 19 21 22 17 20 19 18 18 20 20 19 21 19 19 17 18 19 16 18 19 19 18 18 15 15 13 14
16 17 18 19 19 18 18 19 18 18 20 20 23 21 20 19 21 20 20 19 20 19 22 20 22 21 20 19 18 18 20 20 18 18 18 18 17 17 18 17 17 21
17 18 18 19 18 17 16 15 16 15 19 16 21 25 22 21 22 21 21 20 20 22 21 20 23 21 20 20 21 18 17 18 18 19 19 18 15 17 16 16 15 17
18 19 20 19 18 17 16 16 16 15 18 19 18 22 22 24 24 20 21 20 17 15 20 24 22 23 19 19 21 17 17 18 17 18 18 16 15 16 16 16 17 20
17 17 19 19 20 19 17 17 16 15 15 18 18 18 23 24 23 23 23 21 18 21 22 20 22 20 19 19 19 18 17 17 16 15 13 15 15 17 18 19 21 21
18 20 19 19 19 19 18 17 17 15 14 14 21 16 21 24 24 26 22 16 18 17 18 21 20 18 16 17 19 17 16 16 12 11 10 13 14 16 15 16 19 21
18 19 20 21 20 19 19 18 16 15 14 15 16 15 21 16 20 23 15 13 14 19 18 15 14 14 16 14 13 14 16 13 12 17 18 15 16 18 12 16 19 19
18 18 19 20 20 20 19 18 16 15 16 15 17 19 17 14 14 16 14 13 11 12 13 12 13 16 18 18 17 16 13 12 12 13 19 21 17 16 16 16 15 17
18 19 20 18 19 19 20 18 17 15 16 16 14 14 17 18 12 12 10 10 11 8 11 13 17 18 18 17 20 22 22 17 16 16 18 14 13 13 13 13 11 16
18 20 19 19 18 19 19 17 17 15 15 13 12 12 14 11 11 10 9 9 10 8 7 10 15 14 14 16 17 19 21 21 18 17 17 14 11 11 10 11 11 14
19 19 18 19 20 20 19 19 19 18 17 17 13 12 10 11 12 9 11 12 8 10 15 13 11 13 13 15 14 15 19 20 20 18 18 14 12 10 10 11 15 14
19 18 18 19 22 22 22 22 22 21 20 19 16 15 14 13 13 10 10 9 10 9 10 9 10 11 7 8 5 12 16 16 15 16 17 11 9 8 12 15 15 14
19 19 19 20 21 20 19 21 22 22 22 22 22 20 18 19 15 9 8 9 12 10 11 11 16 18 20 12 10 6 8 9 9 11 11 9 8 12 19 17 17 19
20 20 20 20 19 20 20 21 21 22 23 22 24 22 19 20 19 18 16 15 16 19 18 18 16 16 16 16 14 12 10 9 7 7 9 9 13 17 16 18 17 17
20 20 20 20 19 19 19 20 21 22 23 23 24 21 17 19 20 19 20 18 17 16 17 17 15 16 15 16 13 13 12 11 9 8 8 13 20 22 20 17 14 16
20 20 20 19 19 20 21 21 21 22 21 20 19 20 21 20 19 20 19 18 17 16 16 16 17 16 16 16 14 13 12 13 10 11 16 19 17 17 15 18 15 14
20 20 20 19 19 20 20 21 21 21 21 20 19 20 20 21 21 19 18 17 17 16 17 17 18 22 19 18 17 16 16 13 10 11 16 14 12 13 12 11 17 13
20 20 20 20 20 20 20 21 21 22 20 18 18 19 20 19 22 23 22 21 18 17 18 17 19 24 21 20 18 18 17 15 18 18 17 16 20 23 24 22 16 13
21 21 20 20 20 20 20 21 21 21 19 18 19 19 20 22 23 22 21 20 19 19 18 19 21 22 23 22 20 21 13 17 19 20 18 23 24 23 23 25 23 18
20 20 20 20 20 21 20 20 21 21 20 19 18 18 19 21 21 22 21 21 23 24 19 17 19 22 26 25 23 24 15 17 16 21 20 21 22 22 22 24 27 34
20 21 20 20 20 21 20 20 19 20 19 18 18 17 18 19 21 24 21 22 23 19 22 24 21 24 26 25 27 25 19 18 18 21 21 19 21 22 23 24 24 24
21 21 21 20 20 20 20 20 19 19 20 19 20 19 20 20 21 24 25 24 24 24 24 24 20 20 30 30 27 26 21 23 20 24 24 23 23 22 23 21 22 23

ECMWFNIL_sfc_gust_111.txt.gz
Wind_Gust
6 6 7 6 7 7 6 7 7 9 10 10 12 11 11 10 8 10 12 15 18 14 12 12 14 17 16 16 16 15 13 15 15 13 15 15 15 16 18 15 14 15
7 6 5 8 9 8 7 5 7 9 12 10 9 7 6 8 10 10 11 14 17 15 12 14 14 15 15 16 15 14 14 14 15 13 15 15 14 15 15 16 15 13
10 9 9 9 10 10 10 8 7 5 7 11 8 6 9 9 9 11 16 13 15 15 15 16 15 16 14 14 14 14 14 13 14 14 14 15 13 14 13 14 13 14
9 8 8 9 9 9 8 9 8 7 6 6 8 9 6 7 7 9 12 14 16 12 15 17 17 16 16 14 14 14 14 13 12 11 12 11 10 11 12 11 12 11
11 11 11 11 12 12 10 10 9 9 7 7 7 8 10 8 8 9 13 13 13 15 15 13 15 15 16 15 13 14 13 13 13 14 13 12 12 12 11 11 11 12
11 13 13 14 14 12 12 11 10 10 11 10 10 10 9 9 12 10 10 10 12 17 12 13 12 13 14 15 15 14 14 14 12 14 15 15 12 11 12 12 12 12
12 12 13 13 13 14 12 11 10 8 9 9 10 10 12 9 9 9 12 12 11 11 18 17 14 13 11 11 13 13 12 12 9 14 16 13 11 11 14 14 12 12
13 12 14 14 13 12 12 12 12 11 9 8 8 10 7 12 12 9 11 11 12 12 12 13 15 11 15 14 14 13 11 13 17 14 12 12 12 14 14 16 13 11
13 13 15 14 14 12 12 13 12 12 11 10 10 10 8 8 10 8 9 12 12 13 12 11 11 10 12 12 14 12 12 12 13 14 13 13 12 13 13 11 10 12
14 14 14 14 14 13 14 11 12 9 9 11 10 9 10 9 7 10 10 11 10 10 7 8 11 10 10 8 10 12 14 12 14 14 14 14 12 12 14 12 11 10
12 12 12 13 13 12 12 12 12 13 11 11 12 11 9 9 9 9 9 9 9 8 7 8 12 11 11 7 9 10 11 14 15 12 13 11 11 10 11 11 10 8
13 13 14 14 15 15 15 15 15 15 14 15 12 10 10 9 10 11 8 7 8 10 9 5 8 10 12 10 11 11 9 9 11 12 11 11 12 12 7 7 9 11
13 13 14 14 14 15 16 16 17 16 17 17 17 15 15 13 11 11 12 7 8 8 6 5 7 7 8 11 9 11 9 8 9 11 12 12 10 7 9 9 15 18
14 12 14 15 14 15 16 17 17 18 18 17 17 17 17 17 15 12 13 12 9 6 6 6 7 10 6 8 10 7 8 6 7 8 7 8 8 9 9 13 15 15
14 12 13 15 16 18 18 19 19 19 20 19 18 18 18 19 18 19 19 18 20 21 18 14 11 8 9 7 6 9 9 8 10 11 11 8 9 9 13 14 8 10
15 14 16 16 17 18 18 19 20 21 21 20 20 19 19 20 20 20 21 21 21 20 20 19 17 16 14 9 7 8 8 7 6 9 11 11 12 10 15 13 11 10
16 17 16 17 17 16 16 18 21 21 21 22 21 20 18 19 20 20 20 19 20 18 18 17 16 15 19 13 13 12 9 8 6 7 6 8 10 11 11 10 9 12
17 16 17 16 17 17 17 18 18 21 22 22 22 22 22 22 22 20 19 18 18 20 17 16 15 17 16 16 14 13 10 8 9 10 11 11 12 12 11 10 11 11
16 16 16 16 16 17 17 19 19 20 22 23 23 21 21 23 23 22 21 19 19 18 17 16 15 16 16 14 13 12 12 11 12 11 9 9 11 15 13 10 13 14
17 17 17 15 16 18 19 19 18 19 17 17 18 21 22 22 22 23 23 21 19 17 14 15 17 18 16 14 15 15 15 14 19 20 19 20 18 15 11 9 8 7
20 17 17 17 17 18 18 19 18 17 17 18 19 19 20 21 22 22 23 22 20 17 18 18 18 22 17 18 22 22 23 18 23 22 22 22 21 19 19 19 15 13
18 17 18 20 20 18 20 21 18 18 18 16 17 19 19 19 22 22 23 22 21 20 19 21 23 28 20 23 23 24 22 21 22 23 23 23 23 23 24 22 18 18
19 20 19 19 19 20 20 19 18 17 17 15 19 19 20 23 21 21 20 22 23 23 22 22 24 27 23 25 23 23 18 21 22 25 24 26 24 23 23 25 24 22
20 20 18 19 19 19 19 19 17 15 17 15 17 18 21 20 19 21 22 23 24 25 22 21 22 26 28 28 26 25 20 21 20 24 23 23 23 24 23 24 30 35
20 20 20 18 20 19 17 17 18 17 14 14 15 16 17 17 19 22 23 24 24 22 26 28 27 26 27 29 27 24 22 22 22 23 24 21 21 24 24 24 25 25
22 21 20 20 18 18 17 17 15 16 17 17 17 16 16 16 18 21 24 24 23 26 29 27 25 26 33 32 29 26 21 22 20 25 24 22 23 24 26 23 24 25

ECMWFNIL_sfc_gust_114.txt.gz
Wind_Gust
7 6 7 6 7 8 8 10 10 8 8 7 7 6 8 10 8 10 11 12 11 12 13 14 14 15 15 15 15 15 14 18 21 18 16 16 13 12 14 13 12 13
7 6 5 4 6 7 8 7 7 6 6 6 6 6 6 7 9 9 11 12 11 12 13 13 13 14 15 15 15 17 18 17 18 17 16 15 13 13 14 14 14 12
8 9 8 8 9 9 9 8 7 7 6 6 5 6 7 6 9 10 12 13 13 11 12 12 13 14 17 18 17 17 16 14 16 14 14 16 16 16 14 13 13 14
7 6 6 6 6 7 8 8 8 8 7 8 7 8 7 8 8 11 12 13 12 11 11 11 13 14 15 17 13 14 14 14 14 12 15 15 15 15 14 14 14 12
7 7 6 7 6 6 6 6 7 8 8 9 9 9 9 9 9 10 11 12 13 12 12 13 15 15 15 14 13 15 15 13 14 16 15 14 14 15 13 14 15 15
10 10 11 11 10 9 10 8 8 8 9 9 10 10 9 8 10 10 9 11 11 12 12 12 12 10 11 14 15 13 13 13 15 17 16 16 12 12 13 12 13 14
10 11 11 10 9 8 8 8 9 9 9 9 9 10 9 9 10 10 10 10 11 12 12 11 10 10 9 10 12 13 13 13 14 17 16 14 13 12 14 15 14 16
8 8 8 8 8 8 8 9 8 9 9 9 8 10 8 9 11 10 10 9 10 12 11 10 11 12 11 11 12 14 13 14 13 17 17 15 15 15 17 18 16 14
7 8 8 8 11 11 11 11 10 9 10 11 12 11 9 9 10 10 10 10 10 11 10 10 10 11 9 10 11 11 12 12 15 15 14 14 15 16 18 16 15 15
8 8 9 11 12 13 13 12 13 13 13 15 14 11 13 12 10 11 10 10 10 9 9 10 8 8 8 9 10 9 10 12 14 13 12 12 11 12 15 16 16 16
9 9 11 14 15 15 15 15 15 15 15 16 16 15 15 14 13 11 11 10 10 11 13 11 8 7 8 6 5 9 11 11 12 11 10 10 9 8 11 11 12 15
10 11 13 15 15 15 16 16 16 17 16 16 16 15 15 15 14 14 14 14 12 13 12 9 7 6 6 5 4 3 6 7 8 8 9 9 12 10 8 8 10 13
13 12 14 14 14 15 16 16 16 16 17 17 16 15 17 17 16 16 16 16 16 15 14 13 9 8 7 7 6 5 5 5 5 5 7 8 10 8 8 8 12 14
14 12 14 15 14 16 16 16 16 17 17 16 16 16 17 18 18 18 17 17 19 16 15 15 14 14 13 10 7 4 5 6 8 8 7 8 8 9 11 13 13 6
13 12 14 14 16 16 17 17 17 16 16 17 17 17 19 18 19 20 20 19 20 21 19 15 14 14 13 13 11 8 7 7 6 7 7 7 8 9 11 12 8 11
13 13 15 16 17 17 16 16 16 17 18 18 19 19 18 19 18 19 18 18 17 17 16 14 13 12 17 18 13 9 7 8 9 10 10 10 8 9 12 11 9 5
13 13 15 17 16 16 15 16 17 17 19 20 20 22 21 20 19 20 18 17 18 17 16 14 13 15 18 14 13 10 8 8 10 9 7 9 9 10 10 5 9 7
14 13 14 15 15 15 15 15 16 17 19 20 21 21 22 21 22 19 18 17 16 17 16 17 16 18 18 16 18 19 15 18 18 17 15 13 13 11 8 9 8 9
15 16 15 15 15 14 15 16 17 18 20 21 23 20 19 21 19 19 19 19 18 17 17 17 20 22 20 22 24 23 23 20 21 20 18 18 19 19 14 8 8 9
16 16 16 15 15 15 15 16 17 18 17 16 18 19 21 19 20 20 19 19 18 16 15 22 20 23 21 23 24 23 22 19 20 22 19 20 20 19 18 18 12 9
15 15 16 15 15 15 15 17 17 17 18 17 18 19 20 20 20 20 19 18 18 19 21 25 27 27 22 23 24 24 23 18 21 22 22 22 20 19 20 18 17 14
14 14 14 14 15 15 15 16 17 18 18 17 18 19 19 19 21 21 20 20 20 22 23 24 28 32 24 22 24 24 23 23 22 24 24 24 24 21 21 18 16 15
16 14 14 14 14 15 16 15 15 16 16 15 19 19 20 23 22 21 20 22 23 23 23 24 26 29 25 23 23 23 20 22 22 24 25 26 24 20 20 24 24 19
15 14 14 14 14 15 15 16 15 14 15 15 18 19 22 20 18 21 23 24 25 25 23 23 23 27 28 26 25 25 21 23 21 23 24 23 24 23 23 23 30 36
14 14 13 14 14 14 15 16 16 17 15 15 16 17 18 17 19 22 23 24 23 23 25 27 25 26 28 26 27 24 20 18 21 23 25 21 21 23 23 23 25 26
13 14 14 14 14 15 15 15 15 17 17 16 17 17 18 18 19 22 25 24 23 25 27 25 25 25 28 31 29 28 22 20 18 25 23 21 21 22 25 24 25 25

ECMWFNIL_sfc_gust_117.txt.gz
Wind_Gust
7 7 7 6 6 6 6 8 8 7 6 5 6 7 8 9 8 9 10 11 11 12 13 14 14 14 14 14 13 14 15 18 20 18 18 19 18 16 19 18 15 17
9 7 6 5 6 7 7 5 6 5 6 6 7 7 8 8 9 8 10 10 10 12 13 13 15 15 15 14 13 15 16 14 16 14 15 17 17 17 18 16 16 16
9 9 9 7 6 7 8 8 7 7 7 7 7 7 9 8 10 10 10 10 11 12 13 14 15 14 15 15 14 15 15 15 16 14 15 17 17 17 15 16 16 15
9 8 6 6 7 7 8 8 8 8 8 9 9 9 8 9 8 10 12 12 11 12 12 12 13 14 15 15 14 15 14 15 15 13 15 14 15 16 15 14 14 14
5 7 8 8 7 8 8 7 8 9 9 9 9 9 9 9 10 10 10 10 10 12 12 13 13 14 13 14 13 13 11 12 13 13 13 14 14 14 13 14 15 16
8 7 7 7 8 8 10 9 9 10 11 11 12 11 10 10 10 10 11 12 11 12 13 13 13 13 12 12 13 13 13 13 13 13 16 14 12 13 12 12 13 14
7 7 8 8 8 10 10 10 11 11 11 11 11 11 12 12 12 12 12 12 12 12 13 13 13 13 12 11 12 11 12 12 12 12 14 16 12 13 13 12 12 12
6 6 8 10 11 12 12 12 12 11 11 10 10 12 12 13 13 12 12 13 13 12 12 12 12 12 12 11 11 10 12 12 12 13 12 13 10 11 11 11 10 10
10 11 12 11 12 12 13 12 11 10 10 11 12 13 12 12 13 14 15 14 13 12 11 11 13 11 10 9 10 11 12 12 14 13 12 12 13 13 12 10 10 11
12 12 12 12 13 13 12 10 11 10 11 12 12 12 14 13 14 17 17 18 18 19 16 13 12 11 10 9 9 9 9 10 11 10 12 11 11 12 10 9 10 10
10 10 12 13 13 12 11 10 10 12 12 13 14 14 14 14 15 16 16 17 18 18 18 18 17 13 11 10 8 6 8 9 8 9 8 10 8 10 10 12 11 12
8 9 11 11 11 11 10 12 13 14 15 15 16 16 16 15 15 16 17 18 18 18 16 18 16 15 14 12 9 6 6 5 3 4 5 7 10 10 8 10 11 10
10 9 11 11 10 11 12 13 14 14 16 17 16 16 16 18 18 18 18 16 17 16 17 17 15 14 15 13 12 10 8 8 5 4 5 7 8 7 7 4 6 8
11 11 11 11 11 13 13 13 14 15 16 16 16 17 17 17 18 18 18 16 16 17 16 15 14 14 15 14 12 12 7 8 7 5 5 6 7 9 7 5 4 7
11 11 10 11 12 13 14 14 15 14 15 16 17 18 17 17 17 18 18 19 18 17 17 15 13 15 14 13 12 12 6 4 7 7 6 7 6 7 7 4 3 5
11 10 10 10 13 15 15 15 15 16 17 17 17 17 17 17 17 17 17 19 19 19 17 15 18 16 18 17 13 9 10 11 12 15 15 14 11 9 8 8 9 10
11 11 12 13 13 14 14 15 15 15 16 16 16 17 17 17 16 18 18 17 18 18 20 17 18 21 21 21 21 19 15 16 16 17 17 17 17 17 15 10 8 9
12 12 13 14 14 15 15 14 14 15 16 16 17 18 18 17 19 17 18 17 18 18 19 19 19 22 22 21 23 22 18 19 19 17 18 18 18 17 17 16 12 11
12 13 13 14 14 14 14 14 15 17 18 17 18 16 15 18 18 19 19 20 20 18 21 21 21 24 23 23 22 21 21 19 20 20 19 18 19 19 18 18 15 12
13 12 13 13 12 14 14 16 18 18 17 16 15 17 18 18 19 20 19 22 20 18 20 24 22 24 25 23 22 22 21 19 20 20 19 20 20 19 19 19 18 18
12 12 13 13 13 13 15 17 16 16 17 16 16 17 19 19 18 20 18 18 19 20 22 24 26 28 26 25 22 20 20 17 20 20 21 21 20 21 20 19 19 19
12 13 13 12 13 13 14 16 16 16 16 15 16 16 16 17 19 20 21 21 21 22 23 23 26 28 26 26 24 20 17 20 21 21 21 20 24 20 21 20 18 17
11 12 12 13 13 14 15 15 15 15 15 14 17 18 20 21 19 20 20 22 24 23 23 23 25 27 27 27 26 23 16 20 20 22 22 23 22 18 23 24 24 21
11 12 13 13 13 15 15 15 15 14 15 14 17 18 21 18 17 22 23 24 25 25 22 22 24 28 29 28 27 25 18 20 18 20 21 22 24 24 22 22 31 36
11 12 13 13 14 13 14 15 14 15 13 14 16 17 17 16 19 22 23 24 22 22 25 26 24 24 27 26 27 24 20 18 18 20 24 22 22 23 22 23 25 26
11 13 13 13 14 13 14 14 13 13 14 15 16 16 17 17 19 22 24 23 23 25 26 24 24 24 27 26 26 25 21 20 20 25 24 22 22 23 25 24 24 24

ECMWFNIL_sfc_gust_120.txt.gz
Wind_Gust
10 9 10 9 7 7 7 8 7 7 8 7 8 9 10 10 11 10 10 10 9 9 10 11 11 12 12 12 13 14 15 15 15 12 13 14 14 16 19 19 18 18
9 8 7 6 8 8 7 8 7 7 8 8 8 9 9 10 11 10 11 11 11 11 11 11 12 14 14 14 13 15 15 14 15 13 16 16 15 15 17 16 17 16
9 9 10 10 9 8 9 8 7 7 8 8 7 7 9 9 10 10 10 11 11 11 11 11 13 13 13 13 13 14 14 13 14 13 14 15 14 15 15 16 16 15
10 10 10 9 9 9 8 7 7 8 9 10 11 10 9 10 9 10 10 12 10 11 12 12 12 12 12 13 13 14 14 15 14 13 14 14 13 14 15 13 13 14
9 10 10 10 10 9 8 9 10 10 9 9 9 10 10 11 11 10 10 11 11 12 11 12 11 12 12 12 12 14 13 12 11 12 13 12 13 13 13 12 13 14
12 12 13 11 9 9 11 11 10 9 9 10 11 10 10 11 10 11 11 13 12 13 12 12 12 12 12 13 13 13 13 12 11 11 13 13 12 11 12 13 14 13
13 13 11 9 11 13 11 10 10 11 11 11 10 10 11 12 12 14 15 15 15 15 15 14 13 13 12 12 12 12 12 11 11 12 13 12 11 12 11 11 11 11
12 10 12 12 12 11 11 12 11 11 10 10 10 10 11 12 14 14 15 16 16 16 16 16 15 14 13 12 12 12 11 11 10 11 11 11 11 12 11 11 11 12
13 14 13 13 13 12 12 12 11 10 10 11 12 13 12 12 14 16 16 17 17 17 17 16 16 16 15 14 13 14 14 11 10 10 10 10 10 11 12 8 9 11
13 12 14 13 13 11 11 9 10 11 12 13 14 13 15 15 15 17 17 17 17 18 18 17 17 17 16 15 14 14 14 12 12 11 10 9 9 9 9 7 9 10
15 14 14 13 11 11 11 12 12 13 13 14 15 15 15 15 15 15 15 16 17 18 17 17 17 17 16 16 15 14 13 11 11 11 10 10 9 8 8 9 9 7
14 13 12 11 12 12 12 13 14 15 15 15 16 17 16 15 16 16 16 17 16 17 16 17 16 16 16 15 15 14 14 12 10 10 10 10 9 7 7 6 4 6
15 13 12 12 12 12 12 13 14 15 16 16 16 15 15 17 17 17 17 15 15 15 16 17 17 17 17 16 15 15 15 12 10 10 9 7 6 7 6 5 5 6
11 12 12 12 11 12 13 15 15 15 15 15 15 16 15 16 16 16 15 15 15 15 16 17 18 19 20 18 14 14 14 15 16 15 14 12 9 9 8 6 6 5
11 11 11 11 12 14 16 16 16 15 16 17 16 17 16 16 14 14 15 18 17 17 17 17 19 19 19 19 18 17 17 17 16 16 15 14 14 14 13 12 11 11
11 12 12 12 15 17 16 16 16 16 17 17 17 17 16 16 15 14 16 18 19 19 19 19 20 17 24 27 23 18 16 16 16 16 15 15 15 14 14 15 14 13
11 13 14 15 15 15 16 16 16 16 16 16 17 17 16 16 16 17 17 17 20 20 21 19 19 22 26 23 23 22 17 17 16 16 16 16 16 17 17 16 15 16
12 15 15 15 15 16 17 15 14 15 16 16 17 17 17 16 18 17 16 16 19 19 20 19 20 23 24 24 23 22 17 18 17 18 17 18 17 17 17 17 17 17
13 15 15 15 15 15 15 14 15 15 16 16 17 16 14 17 17 17 17 16 18 20 21 21 19 25 24 24 23 22 20 16 18 18 20 20 20 20 19 21 19 18
14 15 15 15 15 15 14 15 15 15 14 13 13 14 15 17 16 19 19 18 20 19 18 23 24 24 27 26 23 22 20 17 18 19 19 21 22 21 21 21 21 21
13 14 14 14 14 14 14 15 15 15 16 15 15 16 17 19 18 19 19 18 20 20 21 24 28 29 27 27 24 21 20 15 21 20 21 22 22 20 21 22 21 21
13 14 14 13 14 14 15 15 15 15 15 13 13 15 15 16 18 19 20 21 19 21 22 24 26 28 26 26 25 21 18 19 21 22 21 21 23 23 24 24 21 20
12 14 13 13 13 15 15 15 14 15 14 12 14 16 18 20 19 19 19 22 23 22 22 22 23 27 26 26 25 22 16 25 21 23 24 24 24 22 23 26 28 24
12 13 14 14 14 15 14 14 13 13 14 12 15 16 19 16 16 21 22 22 22 22 21 21 22 26 26 24 23 22 17 22 24 27 24 23 23 24 23 25 31 38
13 14 14 14 14 14 13 14 14 13 13 12 14 15 16 15 18 21 21 22 20 20 22 24 22 22 26 25 24 21 18 18 21 24 25 23 23 24 23 23 25 26
13 15 14 13 14 13 13 14 12 12 13 13 15 14 15 17 18 20 22 21 19 22 23 22 22 23 26 26 25 25 20 21 21 24 23 21 22 23 25 24 24 25

ECMWFNIL_sfc_gust_123.txt.gz
Wind_Gust
11 11 10 10 10 9 10 11 13 13 13 13 13 13 13 14 15 15 14 15 14 14 15 15 15 15 16 14 14 16 17 18 19 19 19 18 18 18 22 20 19 19
12 11 10 9 10 11 12 12 12 13 13 13 12 12 12 14 15 14 14 14 14 16 16 16 16 16 16 16 15 16 17 17 19 18 20 21 19 18 20 19 20 19
11 11 11 12 12 12 12 13 13 13 13 11 12 13 12 13 15 14 14 15 15 16 16 16 16 16 16 16 16 16 17 18 19 18 18 19 19 18 17 17 15 16
12 12 12 13 13 13 13 13 13 13 13 15 13 14 13 14 16 16 16 15 17 17 17 16 16 16 16 16 16 17 17 18 19 18 19 19 18 15 15 15 15 15
12 13 13 13 13 12 12 13 14 13 12 12 13 14 14 15 16 16 16 16 16 16 17 17 16 17 16 17 16 15 16 17 19 17 18 18 16 16 14 14 15 18
13 13 13 14 14 14 15 15 13 12 13 13 14 13 14 14 14 15 16 16 16 16 15 15 16 16 16 15 16 16 17 16 17 17 17 17 17 15 16 15 16 18
13 13 14 14 14 15 14 14 13 14 15 14 13 13 14 13 14 15 15 15 16 15 16 15 15 16 15 15 17 19 17 17 17 18 16 17 15 16 15 15 16 17
14 13 15 15 15 15 15 16 16 16 15 13 12 13 13 13 15 14 14 15 15 16 15 16 16 16 15 15 16 17 18 16 17 17 17 17 15 15 14 14 15 15
14 15 16 15 16 16 17 16 15 14 14 14 14 13 13 13 14 15 15 14 15 16 16 15 16 16 16 16 16 16 17 16 17 16 16 15 15 15 16 16 15 15
16 15 16 17 17 16 15 14 14 13 13 13 14 13 15 15 13 15 14 15 15 16 16 16 17 16 17 16 16 16 16 16 16 15 15 15 15 15 15 15 15 14
16 17 18 17 16 15 14 13 13 13 14 14 15 15 14 14 15 14 15 17 17 17 18 18 17 17 16 16 15 14 15 15 15 15 15 15 14 14 13 15 14 14
17 17 16 15 14 13 13 13 13 13 14 14 15 15 14 15 17 18 17 17 16 17 17 17 17 17 17 17 17 16 15 14 15 15 15 14 15 16 18 18 17 17
15 15 14 13 13 13 13 13 13 14 15 15 15 15 16 17 18 18 17 16 17 17 19 20 20 20 21 20 17 16 15 16 16 16 16 15 16 18 18 18 18 18
14 14 13 13 13 13 13 14 14 16 16 16 16 17 18 19 19 18 17 17 18 19 19 20 22 23 22 19 16 17 17 16 17 17 17 17 17 17 18 17 18 18
14 13 14 13 13 14 15 15 17 16 17 18 19 19 18 18 17 18 19 19 21 22 22 22 23 23 23 22 18 18 17 17 18 20 19 19 18 18 18 19 18 16
14 14 14 13 14 15 16 16 17 17 18 19 19 18 18 18 18 17 19 21 22 24 24 24 23 22 24 25 20 19 18 19 20 21 20 20 20 20 20 20 20 20
14 14 14 15 14 15 16 16 18 18 19 19 18 19 20 19 18 20 20 21 23 23 24 24 23 23 23 21 21 21 19 20 20 20 20 21 22 22 22 23 22 22
16 15 15 15 15 16 17 16 16 17 18 18 18 18 18 17 21 22 21 21 23 23 25 24 23 22 21 22 22 21 17 22 22 22 23 23 23 24 24 23 24 25
16 15 15 15 15 15 15 16 16 17 17 17 17 16 17 22 22 23 23 22 23 24 25 25 24 23 21 23 22 21 19 19 25 24 24 24 24 25 26 26 25 25
17 15 15 15 15 16 15 16 17 17 15 14 15 18 23 24 23 24 24 24 24 24 24 24 26 22 23 23 20 20 19 19 24 25 25 26 26 26 26 26 26 25
17 16 15 15 15 15 15 16 16 16 17 17 18 21 25 25 25 25 25 25 24 24 23 25 29 25 23 23 22 19 18 18 26 26 28 28 29 28 27 27 27 28
18 17 16 15 15 15 16 17 17 17 17 16 17 19 20 20 24 26 24 24 23 21 23 25 26 25 23 23 22 19 18 26 26 28 29 29 31 31 31 29 29 28
18 17 16 16 15 16 17 16 16 16 15 14 18 19 20 21 22 25 24 23 22 22 24 26 25 26 24 23 21 19 16 23 24 28 30 30 30 30 32 34 32 30
18 17 17 17 17 19 19 19 17 15 16 15 18 18 21 19 19 22 22 24 24 24 23 22 23 25 25 23 22 21 17 22 24 27 25 28 30 30 31 31 32 36
19 17 17 18 18 18 16 16 16 16 15 17 17 18 19 18 19 22 21 22 22 22 19 23 23 22 24 23 24 21 19 19 21 22 26 23 23 26 25 27 27 27
18 18 17 19 19 16 16 16 15 15 15 17 17 18 19 19 20 21 22 22 21 23 24 23 24 25 25 24 23 23 19 20 21 26 26 23 24 24 24 24 25 25